<?xml version="1.0" encoding="UTF-8" standalone="no" ?>
<gpx xmlns="http://www.topografix.com/GPX/1/1" xmlns:xsi="http://www.w3.org/2001/XMLSchema-instance" xsi:schemaLocation="http://www.topografix.com/GPX/1/1 http://www.topografix.com/GPX/1/1/gpx.xsd" version="1.1" creator="VisuGPX - https://www.visugpx.com">
  <metadata>
    <name>83-dim-Montfort/Correns</name>
    <desc><![CDATA[83-dim-Montfort/Correns : circuit des vignes et des oliviers        ]]></desc>
  </metadata>
  <trk>
    <name><![CDATA[2014-01-12-montfort]]></name>
    <trkseg>
      <trkpt lat="43.47217" lon="6.12338">
        <ele>142.8</ele>
        <time>2014-01-12T08:32:10Z</time>
      </trkpt>
      <trkpt lat="43.47219" lon="6.1235">
        <ele>141.7</ele>
        <time>2014-01-12T08:33:17Z</time>
      </trkpt>
      <trkpt lat="43.47219" lon="6.1235">
        <ele>141.8</ele>
        <time>2014-01-12T08:33:18Z</time>
      </trkpt>
      <trkpt lat="43.47224" lon="6.1234">
        <ele>140.8</ele>
        <time>2014-01-12T08:35:39Z</time>
      </trkpt>
      <trkpt lat="43.47227" lon="6.12319">
        <ele>141</ele>
        <time>2014-01-12T08:37:30Z</time>
      </trkpt>
      <trkpt lat="43.47227" lon="6.12318">
        <ele>141</ele>
        <time>2014-01-12T08:37:31Z</time>
      </trkpt>
      <trkpt lat="43.4724" lon="6.12303">
        <ele>141.7</ele>
        <time>2014-01-12T08:37:48Z</time>
      </trkpt>
      <trkpt lat="43.47244" lon="6.12292">
        <ele>141.6</ele>
        <time>2014-01-12T08:37:58Z</time>
      </trkpt>
      <trkpt lat="43.47248" lon="6.12283">
        <ele>142.3</ele>
        <time>2014-01-12T08:38:05Z</time>
      </trkpt>
      <trkpt lat="43.47251" lon="6.12272">
        <ele>142.9</ele>
        <time>2014-01-12T08:38:14Z</time>
      </trkpt>
      <trkpt lat="43.47255" lon="6.12263">
        <ele>142.6</ele>
        <time>2014-01-12T08:38:20Z</time>
      </trkpt>
      <trkpt lat="43.47259" lon="6.12252">
        <ele>142.6</ele>
        <time>2014-01-12T08:38:30Z</time>
      </trkpt>
      <trkpt lat="43.47258" lon="6.12241">
        <ele>142</ele>
        <time>2014-01-12T08:38:43Z</time>
      </trkpt>
      <trkpt lat="43.47258" lon="6.12239">
        <ele>142.1</ele>
        <time>2014-01-12T08:38:44Z</time>
      </trkpt>
      <trkpt lat="43.47258" lon="6.12219">
        <ele>142.4</ele>
        <time>2014-01-12T08:39:00Z</time>
      </trkpt>
      <trkpt lat="43.47261" lon="6.12208">
        <ele>141.9</ele>
        <time>2014-01-12T08:39:09Z</time>
      </trkpt>
      <trkpt lat="43.47263" lon="6.12196">
        <ele>141.5</ele>
        <time>2014-01-12T08:39:15Z</time>
      </trkpt>
      <trkpt lat="43.4726" lon="6.12184">
        <ele>142.1</ele>
        <time>2014-01-12T08:39:22Z</time>
      </trkpt>
      <trkpt lat="43.4726" lon="6.12174">
        <ele>142.2</ele>
        <time>2014-01-12T08:39:28Z</time>
      </trkpt>
      <trkpt lat="43.47262" lon="6.12162">
        <ele>142.1</ele>
        <time>2014-01-12T08:39:35Z</time>
      </trkpt>
      <trkpt lat="43.47257" lon="6.12153">
        <ele>141.8</ele>
        <time>2014-01-12T08:39:41Z</time>
      </trkpt>
      <trkpt lat="43.47254" lon="6.12143">
        <ele>141.8</ele>
        <time>2014-01-12T08:39:47Z</time>
      </trkpt>
      <trkpt lat="43.47253" lon="6.12141">
        <ele>141.6</ele>
        <time>2014-01-12T08:39:48Z</time>
      </trkpt>
      <trkpt lat="43.47251" lon="6.12122">
        <ele>141.5</ele>
        <time>2014-01-12T08:39:59Z</time>
      </trkpt>
      <trkpt lat="43.47245" lon="6.12113">
        <ele>141.6</ele>
        <time>2014-01-12T08:40:10Z</time>
      </trkpt>
      <trkpt lat="43.47241" lon="6.12101">
        <ele>141.7</ele>
        <time>2014-01-12T08:40:17Z</time>
      </trkpt>
      <trkpt lat="43.47238" lon="6.1209">
        <ele>141.6</ele>
        <time>2014-01-12T08:40:22Z</time>
      </trkpt>
      <trkpt lat="43.47238" lon="6.1208">
        <ele>141.5</ele>
        <time>2014-01-12T08:40:30Z</time>
      </trkpt>
      <trkpt lat="43.47236" lon="6.12068">
        <ele>141.8</ele>
        <time>2014-01-12T08:40:37Z</time>
      </trkpt>
      <trkpt lat="43.47236" lon="6.12056">
        <ele>142.9</ele>
        <time>2014-01-12T08:40:48Z</time>
      </trkpt>
      <trkpt lat="43.47236" lon="6.12055">
        <ele>142.8</ele>
        <time>2014-01-12T08:40:49Z</time>
      </trkpt>
      <trkpt lat="43.47233" lon="6.12035">
        <ele>143.3</ele>
        <time>2014-01-12T08:41:04Z</time>
      </trkpt>
      <trkpt lat="43.4723" lon="6.12025">
        <ele>142.8</ele>
        <time>2014-01-12T08:41:10Z</time>
      </trkpt>
      <trkpt lat="43.47226" lon="6.12015">
        <ele>142.7</ele>
        <time>2014-01-12T08:41:15Z</time>
      </trkpt>
      <trkpt lat="43.47225" lon="6.12003">
        <ele>142.6</ele>
        <time>2014-01-12T08:41:24Z</time>
      </trkpt>
      <trkpt lat="43.47224" lon="6.11991">
        <ele>142.8</ele>
        <time>2014-01-12T08:41:32Z</time>
      </trkpt>
      <trkpt lat="43.47219" lon="6.11983">
        <ele>143</ele>
        <time>2014-01-12T08:41:38Z</time>
      </trkpt>
      <trkpt lat="43.47213" lon="6.11973">
        <ele>142.7</ele>
        <time>2014-01-12T08:41:45Z</time>
      </trkpt>
      <trkpt lat="43.4721" lon="6.11964">
        <ele>142.8</ele>
        <time>2014-01-12T08:41:55Z</time>
      </trkpt>
      <trkpt lat="43.4721" lon="6.11962">
        <ele>142.7</ele>
        <time>2014-01-12T08:41:56Z</time>
      </trkpt>
      <trkpt lat="43.47207" lon="6.1194">
        <ele>143</ele>
        <time>2014-01-12T08:42:08Z</time>
      </trkpt>
      <trkpt lat="43.47205" lon="6.1193">
        <ele>142.6</ele>
        <time>2014-01-12T08:42:14Z</time>
      </trkpt>
      <trkpt lat="43.47203" lon="6.1192">
        <ele>143</ele>
        <time>2014-01-12T08:42:21Z</time>
      </trkpt>
      <trkpt lat="43.472" lon="6.11909">
        <ele>142.8</ele>
        <time>2014-01-12T08:42:26Z</time>
      </trkpt>
      <trkpt lat="43.47197" lon="6.119">
        <ele>142.3</ele>
        <time>2014-01-12T08:42:32Z</time>
      </trkpt>
      <trkpt lat="43.47192" lon="6.11891">
        <ele>142.4</ele>
        <time>2014-01-12T08:42:37Z</time>
      </trkpt>
      <trkpt lat="43.47188" lon="6.11882">
        <ele>142.7</ele>
        <time>2014-01-12T08:42:45Z</time>
      </trkpt>
      <trkpt lat="43.47184" lon="6.11871">
        <ele>142.4</ele>
        <time>2014-01-12T08:42:51Z</time>
      </trkpt>
      <trkpt lat="43.47178" lon="6.11863">
        <ele>142.1</ele>
        <time>2014-01-12T08:43:00Z</time>
      </trkpt>
      <trkpt lat="43.47178" lon="6.11862">
        <ele>142.1</ele>
        <time>2014-01-12T08:43:01Z</time>
      </trkpt>
      <trkpt lat="43.47189" lon="6.11848">
        <ele>142.7</ele>
        <time>2014-01-12T08:44:16Z</time>
      </trkpt>
      <trkpt lat="43.4719" lon="6.11848">
        <ele>142.6</ele>
        <time>2014-01-12T08:44:17Z</time>
      </trkpt>
      <trkpt lat="43.47202" lon="6.11832">
        <ele>144.6</ele>
        <time>2014-01-12T08:45:09Z</time>
      </trkpt>
      <trkpt lat="43.4721" lon="6.1183">
        <ele>146</ele>
        <time>2014-01-12T08:45:54Z</time>
      </trkpt>
      <trkpt lat="43.47211" lon="6.1183">
        <ele>146.1</ele>
        <time>2014-01-12T08:45:55Z</time>
      </trkpt>
      <trkpt lat="43.47224" lon="6.11825">
        <ele>148.5</ele>
        <time>2014-01-12T08:46:19Z</time>
      </trkpt>
      <trkpt lat="43.47217" lon="6.11817">
        <ele>149.4</ele>
        <time>2014-01-12T08:47:58Z</time>
      </trkpt>
      <trkpt lat="43.47217" lon="6.11816">
        <ele>149.5</ele>
        <time>2014-01-12T08:47:59Z</time>
      </trkpt>
      <trkpt lat="43.4722" lon="6.11795">
        <ele>149.3</ele>
        <time>2014-01-12T08:48:20Z</time>
      </trkpt>
      <trkpt lat="43.47219" lon="6.11783">
        <ele>149.1</ele>
        <time>2014-01-12T08:48:28Z</time>
      </trkpt>
      <trkpt lat="43.47214" lon="6.11774">
        <ele>148.1</ele>
        <time>2014-01-12T08:48:36Z</time>
      </trkpt>
      <trkpt lat="43.4721" lon="6.11764">
        <ele>147.5</ele>
        <time>2014-01-12T08:48:44Z</time>
      </trkpt>
      <trkpt lat="43.47203" lon="6.11759">
        <ele>147.2</ele>
        <time>2014-01-12T08:48:48Z</time>
      </trkpt>
      <trkpt lat="43.47199" lon="6.11748">
        <ele>147.5</ele>
        <time>2014-01-12T08:48:57Z</time>
      </trkpt>
      <trkpt lat="43.47193" lon="6.11739">
        <ele>147</ele>
        <time>2014-01-12T08:49:02Z</time>
      </trkpt>
      <trkpt lat="43.47193" lon="6.11738">
        <ele>147</ele>
        <time>2014-01-12T08:49:03Z</time>
      </trkpt>
      <trkpt lat="43.47185" lon="6.11718">
        <ele>146.5</ele>
        <time>2014-01-12T08:49:17Z</time>
      </trkpt>
      <trkpt lat="43.47182" lon="6.11707">
        <ele>145.9</ele>
        <time>2014-01-12T08:49:23Z</time>
      </trkpt>
      <trkpt lat="43.47179" lon="6.11697">
        <ele>146.1</ele>
        <time>2014-01-12T08:49:30Z</time>
      </trkpt>
      <trkpt lat="43.47177" lon="6.11686">
        <ele>146.1</ele>
        <time>2014-01-12T08:49:37Z</time>
      </trkpt>
      <trkpt lat="43.47174" lon="6.11674">
        <ele>146</ele>
        <time>2014-01-12T08:49:43Z</time>
      </trkpt>
      <trkpt lat="43.47172" lon="6.11663">
        <ele>146</ele>
        <time>2014-01-12T08:49:52Z</time>
      </trkpt>
      <trkpt lat="43.47169" lon="6.11652">
        <ele>146.3</ele>
        <time>2014-01-12T08:50:00Z</time>
      </trkpt>
      <trkpt lat="43.47167" lon="6.1164">
        <ele>146.5</ele>
        <time>2014-01-12T08:50:08Z</time>
      </trkpt>
      <trkpt lat="43.47167" lon="6.11638">
        <ele>146.5</ele>
        <time>2014-01-12T08:50:09Z</time>
      </trkpt>
      <trkpt lat="43.47166" lon="6.11617">
        <ele>147</ele>
        <time>2014-01-12T08:50:24Z</time>
      </trkpt>
      <trkpt lat="43.47168" lon="6.11606">
        <ele>147.1</ele>
        <time>2014-01-12T08:50:31Z</time>
      </trkpt>
      <trkpt lat="43.4717" lon="6.11595">
        <ele>147.2</ele>
        <time>2014-01-12T08:50:38Z</time>
      </trkpt>
      <trkpt lat="43.47171" lon="6.11583">
        <ele>147</ele>
        <time>2014-01-12T08:50:45Z</time>
      </trkpt>
      <trkpt lat="43.47171" lon="6.11571">
        <ele>148.2</ele>
        <time>2014-01-12T08:50:53Z</time>
      </trkpt>
      <trkpt lat="43.47171" lon="6.11559">
        <ele>148.2</ele>
        <time>2014-01-12T08:51:00Z</time>
      </trkpt>
      <trkpt lat="43.47172" lon="6.11548">
        <ele>148.2</ele>
        <time>2014-01-12T08:51:09Z</time>
      </trkpt>
      <trkpt lat="43.47172" lon="6.11547">
        <ele>148.2</ele>
        <time>2014-01-12T08:51:10Z</time>
      </trkpt>
      <trkpt lat="43.47171" lon="6.11524">
        <ele>147.9</ele>
        <time>2014-01-12T08:51:24Z</time>
      </trkpt>
      <trkpt lat="43.4717" lon="6.11514">
        <ele>147.7</ele>
        <time>2014-01-12T08:51:31Z</time>
      </trkpt>
      <trkpt lat="43.4717" lon="6.11501">
        <ele>147.9</ele>
        <time>2014-01-12T08:51:38Z</time>
      </trkpt>
      <trkpt lat="43.47168" lon="6.1149">
        <ele>147.8</ele>
        <time>2014-01-12T08:51:45Z</time>
      </trkpt>
      <trkpt lat="43.47167" lon="6.11478">
        <ele>148.1</ele>
        <time>2014-01-12T08:51:53Z</time>
      </trkpt>
      <trkpt lat="43.47167" lon="6.11466">
        <ele>147.6</ele>
        <time>2014-01-12T08:52:01Z</time>
      </trkpt>
      <trkpt lat="43.47169" lon="6.11455">
        <ele>147.8</ele>
        <time>2014-01-12T08:52:09Z</time>
      </trkpt>
      <trkpt lat="43.47173" lon="6.11445">
        <ele>147.8</ele>
        <time>2014-01-12T08:52:16Z</time>
      </trkpt>
      <trkpt lat="43.47173" lon="6.11443">
        <ele>147.9</ele>
        <time>2014-01-12T08:52:17Z</time>
      </trkpt>
      <trkpt lat="43.47179" lon="6.11424">
        <ele>148.4</ele>
        <time>2014-01-12T08:52:29Z</time>
      </trkpt>
      <trkpt lat="43.47181" lon="6.11414">
        <ele>148.6</ele>
        <time>2014-01-12T08:52:34Z</time>
      </trkpt>
      <trkpt lat="43.4718" lon="6.11402">
        <ele>149</ele>
        <time>2014-01-12T08:52:40Z</time>
      </trkpt>
      <trkpt lat="43.47177" lon="6.11391">
        <ele>149.2</ele>
        <time>2014-01-12T08:52:47Z</time>
      </trkpt>
      <trkpt lat="43.47173" lon="6.11382">
        <ele>149.4</ele>
        <time>2014-01-12T08:52:53Z</time>
      </trkpt>
      <trkpt lat="43.47168" lon="6.11373">
        <ele>149.6</ele>
        <time>2014-01-12T08:53:00Z</time>
      </trkpt>
      <trkpt lat="43.47165" lon="6.11362">
        <ele>149.6</ele>
        <time>2014-01-12T08:53:28Z</time>
      </trkpt>
      <trkpt lat="43.47165" lon="6.11361">
        <ele>149.4</ele>
        <time>2014-01-12T08:53:29Z</time>
      </trkpt>
      <trkpt lat="43.47155" lon="6.11344">
        <ele>148.6</ele>
        <time>2014-01-12T08:53:45Z</time>
      </trkpt>
      <trkpt lat="43.47152" lon="6.11334">
        <ele>148.4</ele>
        <time>2014-01-12T08:53:52Z</time>
      </trkpt>
      <trkpt lat="43.47148" lon="6.11324">
        <ele>148.2</ele>
        <time>2014-01-12T08:54:01Z</time>
      </trkpt>
      <trkpt lat="43.47143" lon="6.11315">
        <ele>147.8</ele>
        <time>2014-01-12T08:54:08Z</time>
      </trkpt>
      <trkpt lat="43.47139" lon="6.11305">
        <ele>147.9</ele>
        <time>2014-01-12T08:54:16Z</time>
      </trkpt>
      <trkpt lat="43.47137" lon="6.11293">
        <ele>148</ele>
        <time>2014-01-12T08:54:24Z</time>
      </trkpt>
      <trkpt lat="43.47135" lon="6.11282">
        <ele>148.1</ele>
        <time>2014-01-12T08:54:32Z</time>
      </trkpt>
      <trkpt lat="43.47134" lon="6.11281">
        <ele>148.2</ele>
        <time>2014-01-12T08:54:33Z</time>
      </trkpt>
      <trkpt lat="43.47133" lon="6.1126">
        <ele>148.5</ele>
        <time>2014-01-12T08:54:45Z</time>
      </trkpt>
      <trkpt lat="43.47135" lon="6.11248">
        <ele>148.7</ele>
        <time>2014-01-12T08:54:53Z</time>
      </trkpt>
      <trkpt lat="43.47138" lon="6.11236">
        <ele>149.1</ele>
        <time>2014-01-12T08:55:03Z</time>
      </trkpt>
      <trkpt lat="43.4714" lon="6.11225">
        <ele>149</ele>
        <time>2014-01-12T08:55:09Z</time>
      </trkpt>
      <trkpt lat="43.47141" lon="6.11213">
        <ele>148.9</ele>
        <time>2014-01-12T08:55:15Z</time>
      </trkpt>
      <trkpt lat="43.4714" lon="6.11203">
        <ele>148.8</ele>
        <time>2014-01-12T08:55:22Z</time>
      </trkpt>
      <trkpt lat="43.47141" lon="6.11191">
        <ele>148.9</ele>
        <time>2014-01-12T08:55:28Z</time>
      </trkpt>
      <trkpt lat="43.47143" lon="6.11179">
        <ele>148.7</ele>
        <time>2014-01-12T08:55:35Z</time>
      </trkpt>
      <trkpt lat="43.47143" lon="6.11177">
        <ele>148.8</ele>
        <time>2014-01-12T08:55:36Z</time>
      </trkpt>
      <trkpt lat="43.47148" lon="6.11158">
        <ele>148.6</ele>
        <time>2014-01-12T08:55:48Z</time>
      </trkpt>
      <trkpt lat="43.47153" lon="6.11148">
        <ele>149</ele>
        <time>2014-01-12T08:55:56Z</time>
      </trkpt>
      <trkpt lat="43.47156" lon="6.11137">
        <ele>149.6</ele>
        <time>2014-01-12T08:56:06Z</time>
      </trkpt>
      <trkpt lat="43.47159" lon="6.11126">
        <ele>149.6</ele>
        <time>2014-01-12T08:56:14Z</time>
      </trkpt>
      <trkpt lat="43.47161" lon="6.11115">
        <ele>150.1</ele>
        <time>2014-01-12T08:56:21Z</time>
      </trkpt>
      <trkpt lat="43.47159" lon="6.11104">
        <ele>150</ele>
        <time>2014-01-12T08:56:27Z</time>
      </trkpt>
      <trkpt lat="43.47158" lon="6.11091">
        <ele>149.7</ele>
        <time>2014-01-12T08:56:36Z</time>
      </trkpt>
      <trkpt lat="43.47157" lon="6.1108">
        <ele>149.6</ele>
        <time>2014-01-12T08:56:45Z</time>
      </trkpt>
      <trkpt lat="43.47157" lon="6.11078">
        <ele>149.8</ele>
        <time>2014-01-12T08:56:46Z</time>
      </trkpt>
      <trkpt lat="43.47158" lon="6.11056">
        <ele>150.4</ele>
        <time>2014-01-12T08:57:01Z</time>
      </trkpt>
      <trkpt lat="43.47158" lon="6.11045">
        <ele>150.2</ele>
        <time>2014-01-12T08:57:08Z</time>
      </trkpt>
      <trkpt lat="43.47159" lon="6.11033">
        <ele>149.9</ele>
        <time>2014-01-12T08:57:13Z</time>
      </trkpt>
      <trkpt lat="43.47162" lon="6.11022">
        <ele>149.8</ele>
        <time>2014-01-12T08:57:21Z</time>
      </trkpt>
      <trkpt lat="43.47164" lon="6.1101">
        <ele>149.9</ele>
        <time>2014-01-12T08:57:30Z</time>
      </trkpt>
      <trkpt lat="43.47165" lon="6.10999">
        <ele>150</ele>
        <time>2014-01-12T08:57:38Z</time>
      </trkpt>
      <trkpt lat="43.47165" lon="6.10987">
        <ele>149.6</ele>
        <time>2014-01-12T08:57:44Z</time>
      </trkpt>
      <trkpt lat="43.47166" lon="6.10976">
        <ele>150</ele>
        <time>2014-01-12T08:57:50Z</time>
      </trkpt>
      <trkpt lat="43.47166" lon="6.10974">
        <ele>149.8</ele>
        <time>2014-01-12T08:57:51Z</time>
      </trkpt>
      <trkpt lat="43.47166" lon="6.10954">
        <ele>149.6</ele>
        <time>2014-01-12T08:58:02Z</time>
      </trkpt>
      <trkpt lat="43.47165" lon="6.10942">
        <ele>149.2</ele>
        <time>2014-01-12T08:58:10Z</time>
      </trkpt>
      <trkpt lat="43.47163" lon="6.10931">
        <ele>148.4</ele>
        <time>2014-01-12T08:58:18Z</time>
      </trkpt>
      <trkpt lat="43.47158" lon="6.10922">
        <ele>148.4</ele>
        <time>2014-01-12T08:58:26Z</time>
      </trkpt>
      <trkpt lat="43.47157" lon="6.10912">
        <ele>148</ele>
        <time>2014-01-12T08:58:30Z</time>
      </trkpt>
      <trkpt lat="43.47154" lon="6.10902">
        <ele>147.7</ele>
        <time>2014-01-12T08:58:36Z</time>
      </trkpt>
      <trkpt lat="43.47154" lon="6.1089">
        <ele>147.8</ele>
        <time>2014-01-12T08:58:42Z</time>
      </trkpt>
      <trkpt lat="43.47152" lon="6.10878">
        <ele>148.1</ele>
        <time>2014-01-12T08:58:48Z</time>
      </trkpt>
      <trkpt lat="43.47149" lon="6.10867">
        <ele>147.7</ele>
        <time>2014-01-12T08:58:55Z</time>
      </trkpt>
      <trkpt lat="43.47148" lon="6.10866">
        <ele>147.6</ele>
        <time>2014-01-12T08:58:56Z</time>
      </trkpt>
      <trkpt lat="43.47145" lon="6.10845">
        <ele>147.4</ele>
        <time>2014-01-12T08:59:10Z</time>
      </trkpt>
      <trkpt lat="43.47143" lon="6.10834">
        <ele>147.4</ele>
        <time>2014-01-12T08:59:18Z</time>
      </trkpt>
      <trkpt lat="43.47139" lon="6.10822">
        <ele>147.5</ele>
        <time>2014-01-12T08:59:25Z</time>
      </trkpt>
      <trkpt lat="43.47135" lon="6.10811">
        <ele>147.7</ele>
        <time>2014-01-12T08:59:33Z</time>
      </trkpt>
      <trkpt lat="43.47133" lon="6.108">
        <ele>148</ele>
        <time>2014-01-12T08:59:40Z</time>
      </trkpt>
      <trkpt lat="43.47128" lon="6.10789">
        <ele>147.9</ele>
        <time>2014-01-12T08:59:46Z</time>
      </trkpt>
      <trkpt lat="43.47127" lon="6.10778">
        <ele>148.3</ele>
        <time>2014-01-12T08:59:53Z</time>
      </trkpt>
      <trkpt lat="43.47128" lon="6.10766">
        <ele>148.5</ele>
        <time>2014-01-12T09:00:01Z</time>
      </trkpt>
      <trkpt lat="43.47128" lon="6.10765">
        <ele>148.6</ele>
        <time>2014-01-12T09:00:02Z</time>
      </trkpt>
      <trkpt lat="43.47132" lon="6.10744">
        <ele>149.5</ele>
        <time>2014-01-12T09:00:16Z</time>
      </trkpt>
      <trkpt lat="43.47132" lon="6.10732">
        <ele>149.8</ele>
        <time>2014-01-12T09:00:23Z</time>
      </trkpt>
      <trkpt lat="43.47135" lon="6.10721">
        <ele>149.2</ele>
        <time>2014-01-12T09:00:30Z</time>
      </trkpt>
      <trkpt lat="43.47134" lon="6.10709">
        <ele>149.7</ele>
        <time>2014-01-12T09:00:37Z</time>
      </trkpt>
      <trkpt lat="43.47134" lon="6.10697">
        <ele>149.5</ele>
        <time>2014-01-12T09:00:45Z</time>
      </trkpt>
      <trkpt lat="43.47134" lon="6.10685">
        <ele>150.1</ele>
        <time>2014-01-12T09:00:53Z</time>
      </trkpt>
      <trkpt lat="43.47134" lon="6.10673">
        <ele>150.3</ele>
        <time>2014-01-12T09:01:01Z</time>
      </trkpt>
      <trkpt lat="43.47134" lon="6.10662">
        <ele>150.1</ele>
        <time>2014-01-12T09:01:08Z</time>
      </trkpt>
      <trkpt lat="43.47134" lon="6.1066">
        <ele>150.2</ele>
        <time>2014-01-12T09:01:09Z</time>
      </trkpt>
      <trkpt lat="43.47133" lon="6.10639">
        <ele>150.5</ele>
        <time>2014-01-12T09:01:22Z</time>
      </trkpt>
      <trkpt lat="43.47131" lon="6.10628">
        <ele>150.7</ele>
        <time>2014-01-12T09:01:30Z</time>
      </trkpt>
      <trkpt lat="43.47126" lon="6.10619">
        <ele>150.4</ele>
        <time>2014-01-12T09:01:37Z</time>
      </trkpt>
      <trkpt lat="43.4712" lon="6.10611">
        <ele>149.7</ele>
        <time>2014-01-12T09:01:44Z</time>
      </trkpt>
      <trkpt lat="43.47115" lon="6.10601">
        <ele>149.8</ele>
        <time>2014-01-12T09:01:52Z</time>
      </trkpt>
      <trkpt lat="43.4711" lon="6.10592">
        <ele>149.4</ele>
        <time>2014-01-12T09:02:00Z</time>
      </trkpt>
      <trkpt lat="43.47107" lon="6.10581">
        <ele>148.6</ele>
        <time>2014-01-12T09:02:08Z</time>
      </trkpt>
      <trkpt lat="43.47102" lon="6.10572">
        <ele>149.3</ele>
        <time>2014-01-12T09:02:15Z</time>
      </trkpt>
      <trkpt lat="43.47101" lon="6.10571">
        <ele>149.2</ele>
        <time>2014-01-12T09:02:16Z</time>
      </trkpt>
      <trkpt lat="43.47095" lon="6.1055">
        <ele>148.9</ele>
        <time>2014-01-12T09:02:31Z</time>
      </trkpt>
      <trkpt lat="43.47095" lon="6.10539">
        <ele>148.8</ele>
        <time>2014-01-12T09:02:39Z</time>
      </trkpt>
      <trkpt lat="43.47096" lon="6.10528">
        <ele>148</ele>
        <time>2014-01-12T09:02:47Z</time>
      </trkpt>
      <trkpt lat="43.47096" lon="6.10517">
        <ele>148.3</ele>
        <time>2014-01-12T09:02:53Z</time>
      </trkpt>
      <trkpt lat="43.47094" lon="6.10506">
        <ele>148.3</ele>
        <time>2014-01-12T09:03:18Z</time>
      </trkpt>
      <trkpt lat="43.47094" lon="6.10504">
        <ele>148.5</ele>
        <time>2014-01-12T09:03:19Z</time>
      </trkpt>
      <trkpt lat="43.4709" lon="6.10484">
        <ele>148.5</ele>
        <time>2014-01-12T09:03:32Z</time>
      </trkpt>
      <trkpt lat="43.47087" lon="6.10472">
        <ele>148.4</ele>
        <time>2014-01-12T09:03:40Z</time>
      </trkpt>
      <trkpt lat="43.47079" lon="6.10467">
        <ele>147.6</ele>
        <time>2014-01-12T09:04:08Z</time>
      </trkpt>
      <trkpt lat="43.47085" lon="6.10458">
        <ele>149</ele>
        <time>2014-01-12T09:04:44Z</time>
      </trkpt>
      <trkpt lat="43.47085" lon="6.10456">
        <ele>149.1</ele>
        <time>2014-01-12T09:04:45Z</time>
      </trkpt>
      <trkpt lat="43.47083" lon="6.10435">
        <ele>148.8</ele>
        <time>2014-01-12T09:04:58Z</time>
      </trkpt>
      <trkpt lat="43.47083" lon="6.10423">
        <ele>148.2</ele>
        <time>2014-01-12T09:05:05Z</time>
      </trkpt>
      <trkpt lat="43.47078" lon="6.10413">
        <ele>148</ele>
        <time>2014-01-12T09:05:12Z</time>
      </trkpt>
      <trkpt lat="43.47073" lon="6.10404">
        <ele>148</ele>
        <time>2014-01-12T09:05:17Z</time>
      </trkpt>
      <trkpt lat="43.47072" lon="6.10392">
        <ele>147.4</ele>
        <time>2014-01-12T09:05:24Z</time>
      </trkpt>
      <trkpt lat="43.47069" lon="6.1038">
        <ele>147.8</ele>
        <time>2014-01-12T09:05:31Z</time>
      </trkpt>
      <trkpt lat="43.47063" lon="6.10371">
        <ele>148.3</ele>
        <time>2014-01-12T09:06:06Z</time>
      </trkpt>
      <trkpt lat="43.47062" lon="6.1037">
        <ele>148.2</ele>
        <time>2014-01-12T09:06:07Z</time>
      </trkpt>
      <trkpt lat="43.47057" lon="6.10349">
        <ele>148</ele>
        <time>2014-01-12T09:06:20Z</time>
      </trkpt>
      <trkpt lat="43.47057" lon="6.10337">
        <ele>148.2</ele>
        <time>2014-01-12T09:06:25Z</time>
      </trkpt>
      <trkpt lat="43.47055" lon="6.10325">
        <ele>148.5</ele>
        <time>2014-01-12T09:06:30Z</time>
      </trkpt>
      <trkpt lat="43.47054" lon="6.10315">
        <ele>148.3</ele>
        <time>2014-01-12T09:06:34Z</time>
      </trkpt>
      <trkpt lat="43.47052" lon="6.10304">
        <ele>148.7</ele>
        <time>2014-01-12T09:06:39Z</time>
      </trkpt>
      <trkpt lat="43.47049" lon="6.10292">
        <ele>148.7</ele>
        <time>2014-01-12T09:06:44Z</time>
      </trkpt>
      <trkpt lat="43.47046" lon="6.10282">
        <ele>149.2</ele>
        <time>2014-01-12T09:06:48Z</time>
      </trkpt>
      <trkpt lat="43.47044" lon="6.1027">
        <ele>149</ele>
        <time>2014-01-12T09:06:53Z</time>
      </trkpt>
      <trkpt lat="43.47043" lon="6.10258">
        <ele>149</ele>
        <time>2014-01-12T09:07:02Z</time>
      </trkpt>
      <trkpt lat="43.47042" lon="6.10248">
        <ele>149</ele>
        <time>2014-01-12T09:07:10Z</time>
      </trkpt>
      <trkpt lat="43.47042" lon="6.10245">
        <ele>149.2</ele>
        <time>2014-01-12T09:07:11Z</time>
      </trkpt>
      <trkpt lat="43.47038" lon="6.10227">
        <ele>149.2</ele>
        <time>2014-01-12T09:07:25Z</time>
      </trkpt>
      <trkpt lat="43.47038" lon="6.10215">
        <ele>150.2</ele>
        <time>2014-01-12T09:07:30Z</time>
      </trkpt>
      <trkpt lat="43.47038" lon="6.10203">
        <ele>149.9</ele>
        <time>2014-01-12T09:07:38Z</time>
      </trkpt>
      <trkpt lat="43.47035" lon="6.10192">
        <ele>150.3</ele>
        <time>2014-01-12T09:07:44Z</time>
      </trkpt>
      <trkpt lat="43.47035" lon="6.1018">
        <ele>150.3</ele>
        <time>2014-01-12T09:07:52Z</time>
      </trkpt>
      <trkpt lat="43.47033" lon="6.1017">
        <ele>150.8</ele>
        <time>2014-01-12T09:07:57Z</time>
      </trkpt>
      <trkpt lat="43.4703" lon="6.10159">
        <ele>150.8</ele>
        <time>2014-01-12T09:08:04Z</time>
      </trkpt>
      <trkpt lat="43.47027" lon="6.10149">
        <ele>151.3</ele>
        <time>2014-01-12T09:08:09Z</time>
      </trkpt>
      <trkpt lat="43.47028" lon="6.10136">
        <ele>151.6</ele>
        <time>2014-01-12T09:08:15Z</time>
      </trkpt>
      <trkpt lat="43.47027" lon="6.10136">
        <ele>151.4</ele>
        <time>2014-01-12T09:08:16Z</time>
      </trkpt>
      <trkpt lat="43.47022" lon="6.10114">
        <ele>152.2</ele>
        <time>2014-01-12T09:08:27Z</time>
      </trkpt>
      <trkpt lat="43.47019" lon="6.10104">
        <ele>153.1</ele>
        <time>2014-01-12T09:08:35Z</time>
      </trkpt>
      <trkpt lat="43.47018" lon="6.10093">
        <ele>153.2</ele>
        <time>2014-01-12T09:08:40Z</time>
      </trkpt>
      <trkpt lat="43.47019" lon="6.10082">
        <ele>153.1</ele>
        <time>2014-01-12T09:08:48Z</time>
      </trkpt>
      <trkpt lat="43.47023" lon="6.10071">
        <ele>153</ele>
        <time>2014-01-12T09:08:55Z</time>
      </trkpt>
      <trkpt lat="43.47029" lon="6.10062">
        <ele>153.4</ele>
        <time>2014-01-12T09:09:02Z</time>
      </trkpt>
      <trkpt lat="43.47034" lon="6.10052">
        <ele>153.7</ele>
        <time>2014-01-12T09:09:09Z</time>
      </trkpt>
      <trkpt lat="43.47041" lon="6.10045">
        <ele>153.1</ele>
        <time>2014-01-12T09:09:17Z</time>
      </trkpt>
      <trkpt lat="43.47042" lon="6.10044">
        <ele>153</ele>
        <time>2014-01-12T09:09:18Z</time>
      </trkpt>
      <trkpt lat="43.47054" lon="6.10033">
        <ele>152.8</ele>
        <time>2014-01-12T09:09:30Z</time>
      </trkpt>
      <trkpt lat="43.47062" lon="6.10026">
        <ele>152.6</ele>
        <time>2014-01-12T09:09:37Z</time>
      </trkpt>
      <trkpt lat="43.4707" lon="6.10024">
        <ele>152.8</ele>
        <time>2014-01-12T09:09:44Z</time>
      </trkpt>
      <trkpt lat="43.47076" lon="6.10016">
        <ele>152.7</ele>
        <time>2014-01-12T09:09:52Z</time>
      </trkpt>
      <trkpt lat="43.47082" lon="6.10007">
        <ele>152.7</ele>
        <time>2014-01-12T09:09:59Z</time>
      </trkpt>
      <trkpt lat="43.47086" lon="6.09997">
        <ele>153.1</ele>
        <time>2014-01-12T09:10:05Z</time>
      </trkpt>
      <trkpt lat="43.47091" lon="6.09988">
        <ele>152.9</ele>
        <time>2014-01-12T09:10:09Z</time>
      </trkpt>
      <trkpt lat="43.47099" lon="6.09989">
        <ele>153</ele>
        <time>2014-01-12T09:10:15Z</time>
      </trkpt>
      <trkpt lat="43.47105" lon="6.09982">
        <ele>152.9</ele>
        <time>2014-01-12T09:10:24Z</time>
      </trkpt>
      <trkpt lat="43.47106" lon="6.09981">
        <ele>152.9</ele>
        <time>2014-01-12T09:10:25Z</time>
      </trkpt>
      <trkpt lat="43.47121" lon="6.0998">
        <ele>152.3</ele>
        <time>2014-01-12T09:10:37Z</time>
      </trkpt>
      <trkpt lat="43.47129" lon="6.0998">
        <ele>152.2</ele>
        <time>2014-01-12T09:11:04Z</time>
      </trkpt>
      <trkpt lat="43.47134" lon="6.0997">
        <ele>151.8</ele>
        <time>2014-01-12T09:11:11Z</time>
      </trkpt>
      <trkpt lat="43.47133" lon="6.09959">
        <ele>150.9</ele>
        <time>2014-01-12T09:11:20Z</time>
      </trkpt>
      <trkpt lat="43.47133" lon="6.09948">
        <ele>150.2</ele>
        <time>2014-01-12T09:11:27Z</time>
      </trkpt>
      <trkpt lat="43.47132" lon="6.09946">
        <ele>150.1</ele>
        <time>2014-01-12T09:11:28Z</time>
      </trkpt>
      <trkpt lat="43.47132" lon="6.09925">
        <ele>149.7</ele>
        <time>2014-01-12T09:11:40Z</time>
      </trkpt>
      <trkpt lat="43.4713" lon="6.09913">
        <ele>149.9</ele>
        <time>2014-01-12T09:11:46Z</time>
      </trkpt>
      <trkpt lat="43.47129" lon="6.099">
        <ele>149.4</ele>
        <time>2014-01-12T09:11:56Z</time>
      </trkpt>
      <trkpt lat="43.47134" lon="6.09892">
        <ele>149.3</ele>
        <time>2014-01-12T09:12:31Z</time>
      </trkpt>
      <trkpt lat="43.47135" lon="6.09891">
        <ele>149</ele>
        <time>2014-01-12T09:12:32Z</time>
      </trkpt>
      <trkpt lat="43.4714" lon="6.0987">
        <ele>147.9</ele>
        <time>2014-01-12T09:15:32Z</time>
      </trkpt>
      <trkpt lat="43.4714" lon="6.09869">
        <ele>147.9</ele>
        <time>2014-01-12T09:15:33Z</time>
      </trkpt>
      <trkpt lat="43.47156" lon="6.09866">
        <ele>148.3</ele>
        <time>2014-01-12T09:15:51Z</time>
      </trkpt>
      <trkpt lat="43.47165" lon="6.09867">
        <ele>148.3</ele>
        <time>2014-01-12T09:15:59Z</time>
      </trkpt>
      <trkpt lat="43.47173" lon="6.09865">
        <ele>148.5</ele>
        <time>2014-01-12T09:16:07Z</time>
      </trkpt>
      <trkpt lat="43.47182" lon="6.09863">
        <ele>148.2</ele>
        <time>2014-01-12T09:16:16Z</time>
      </trkpt>
      <trkpt lat="43.4719" lon="6.09863">
        <ele>148.3</ele>
        <time>2014-01-12T09:16:23Z</time>
      </trkpt>
      <trkpt lat="43.47199" lon="6.09861">
        <ele>148</ele>
        <time>2014-01-12T09:16:31Z</time>
      </trkpt>
      <trkpt lat="43.47207" lon="6.09857">
        <ele>148.9</ele>
        <time>2014-01-12T09:16:39Z</time>
      </trkpt>
      <trkpt lat="43.47208" lon="6.09856">
        <ele>148.8</ele>
        <time>2014-01-12T09:16:40Z</time>
      </trkpt>
      <trkpt lat="43.47223" lon="6.09851">
        <ele>148.5</ele>
        <time>2014-01-12T09:16:54Z</time>
      </trkpt>
      <trkpt lat="43.47231" lon="6.09848">
        <ele>148.6</ele>
        <time>2014-01-12T09:17:03Z</time>
      </trkpt>
      <trkpt lat="43.4724" lon="6.09847">
        <ele>149.1</ele>
        <time>2014-01-12T09:17:13Z</time>
      </trkpt>
      <trkpt lat="43.47248" lon="6.09848">
        <ele>149.4</ele>
        <time>2014-01-12T09:17:22Z</time>
      </trkpt>
      <trkpt lat="43.47257" lon="6.09848">
        <ele>149.4</ele>
        <time>2014-01-12T09:17:31Z</time>
      </trkpt>
      <trkpt lat="43.47265" lon="6.09845">
        <ele>150</ele>
        <time>2014-01-12T09:17:41Z</time>
      </trkpt>
      <trkpt lat="43.47266" lon="6.09845">
        <ele>149.9</ele>
        <time>2014-01-12T09:17:42Z</time>
      </trkpt>
      <trkpt lat="43.47282" lon="6.09842">
        <ele>150.3</ele>
        <time>2014-01-12T09:18:01Z</time>
      </trkpt>
      <trkpt lat="43.4729" lon="6.09838">
        <ele>150.4</ele>
        <time>2014-01-12T09:18:10Z</time>
      </trkpt>
      <trkpt lat="43.47297" lon="6.09836">
        <ele>150.9</ele>
        <time>2014-01-12T09:18:18Z</time>
      </trkpt>
      <trkpt lat="43.47306" lon="6.09835">
        <ele>150.5</ele>
        <time>2014-01-12T09:18:26Z</time>
      </trkpt>
      <trkpt lat="43.47314" lon="6.09833">
        <ele>150.5</ele>
        <time>2014-01-12T09:18:35Z</time>
      </trkpt>
      <trkpt lat="43.47322" lon="6.09828">
        <ele>149.7</ele>
        <time>2014-01-12T09:18:44Z</time>
      </trkpt>
      <trkpt lat="43.47323" lon="6.09827">
        <ele>149.8</ele>
        <time>2014-01-12T09:18:45Z</time>
      </trkpt>
      <trkpt lat="43.47337" lon="6.09815">
        <ele>149.3</ele>
        <time>2014-01-12T09:19:03Z</time>
      </trkpt>
      <trkpt lat="43.47343" lon="6.09808">
        <ele>149.1</ele>
        <time>2014-01-12T09:19:11Z</time>
      </trkpt>
      <trkpt lat="43.47349" lon="6.098">
        <ele>149.2</ele>
        <time>2014-01-12T09:19:22Z</time>
      </trkpt>
      <trkpt lat="43.47355" lon="6.09791">
        <ele>148.5</ele>
        <time>2014-01-12T09:19:38Z</time>
      </trkpt>
      <trkpt lat="43.47361" lon="6.09783">
        <ele>148</ele>
        <time>2014-01-12T09:19:51Z</time>
      </trkpt>
      <trkpt lat="43.47362" lon="6.09782">
        <ele>147.9</ele>
        <time>2014-01-12T09:19:52Z</time>
      </trkpt>
      <trkpt lat="43.47373" lon="6.09769">
        <ele>147.9</ele>
        <time>2014-01-12T09:20:08Z</time>
      </trkpt>
      <trkpt lat="43.47378" lon="6.0976">
        <ele>148.3</ele>
        <time>2014-01-12T09:20:15Z</time>
      </trkpt>
      <trkpt lat="43.47384" lon="6.09753">
        <ele>148.1</ele>
        <time>2014-01-12T09:20:22Z</time>
      </trkpt>
      <trkpt lat="43.4739" lon="6.09745">
        <ele>147.6</ele>
        <time>2014-01-12T09:20:32Z</time>
      </trkpt>
      <trkpt lat="43.47395" lon="6.09736">
        <ele>147.7</ele>
        <time>2014-01-12T09:20:47Z</time>
      </trkpt>
      <trkpt lat="43.47401" lon="6.09728">
        <ele>147.9</ele>
        <time>2014-01-12T09:20:58Z</time>
      </trkpt>
      <trkpt lat="43.47402" lon="6.09727">
        <ele>147.9</ele>
        <time>2014-01-12T09:20:59Z</time>
      </trkpt>
      <trkpt lat="43.47412" lon="6.0971">
        <ele>147.9</ele>
        <time>2014-01-12T09:21:17Z</time>
      </trkpt>
      <trkpt lat="43.47418" lon="6.09702">
        <ele>148</ele>
        <time>2014-01-12T09:21:25Z</time>
      </trkpt>
      <trkpt lat="43.47425" lon="6.09693">
        <ele>148.6</ele>
        <time>2014-01-12T09:21:34Z</time>
      </trkpt>
      <trkpt lat="43.47431" lon="6.09684">
        <ele>148.5</ele>
        <time>2014-01-12T09:21:43Z</time>
      </trkpt>
      <trkpt lat="43.47437" lon="6.09676">
        <ele>148.5</ele>
        <time>2014-01-12T09:21:52Z</time>
      </trkpt>
      <trkpt lat="43.47443" lon="6.09668">
        <ele>148.1</ele>
        <time>2014-01-12T09:22:01Z</time>
      </trkpt>
      <trkpt lat="43.47444" lon="6.09668">
        <ele>148.1</ele>
        <time>2014-01-12T09:22:02Z</time>
      </trkpt>
      <trkpt lat="43.47456" lon="6.09654">
        <ele>147.7</ele>
        <time>2014-01-12T09:22:16Z</time>
      </trkpt>
      <trkpt lat="43.47464" lon="6.09649">
        <ele>147.6</ele>
        <time>2014-01-12T09:22:23Z</time>
      </trkpt>
      <trkpt lat="43.47471" lon="6.09643">
        <ele>148.1</ele>
        <time>2014-01-12T09:22:31Z</time>
      </trkpt>
      <trkpt lat="43.47478" lon="6.09636">
        <ele>148</ele>
        <time>2014-01-12T09:22:38Z</time>
      </trkpt>
      <trkpt lat="43.47486" lon="6.09635">
        <ele>148.3</ele>
        <time>2014-01-12T09:22:47Z</time>
      </trkpt>
      <trkpt lat="43.47494" lon="6.09634">
        <ele>148.4</ele>
        <time>2014-01-12T09:22:55Z</time>
      </trkpt>
      <trkpt lat="43.47502" lon="6.0963">
        <ele>148.7</ele>
        <time>2014-01-12T09:23:04Z</time>
      </trkpt>
      <trkpt lat="43.47503" lon="6.0963">
        <ele>148.8</ele>
        <time>2014-01-12T09:23:05Z</time>
      </trkpt>
      <trkpt lat="43.47519" lon="6.09634">
        <ele>149.8</ele>
        <time>2014-01-12T09:23:25Z</time>
      </trkpt>
      <trkpt lat="43.47522" lon="6.09646">
        <ele>150.5</ele>
        <time>2014-01-12T09:23:38Z</time>
      </trkpt>
      <trkpt lat="43.47526" lon="6.09656">
        <ele>150.4</ele>
        <time>2014-01-12T09:23:47Z</time>
      </trkpt>
      <trkpt lat="43.47529" lon="6.09667">
        <ele>150.8</ele>
        <time>2014-01-12T09:23:57Z</time>
      </trkpt>
      <trkpt lat="43.47531" lon="6.09678">
        <ele>150.9</ele>
        <time>2014-01-12T09:24:05Z</time>
      </trkpt>
      <trkpt lat="43.47532" lon="6.09679">
        <ele>150.8</ele>
        <time>2014-01-12T09:24:06Z</time>
      </trkpt>
      <trkpt lat="43.47537" lon="6.09699">
        <ele>150.7</ele>
        <time>2014-01-12T09:24:19Z</time>
      </trkpt>
      <trkpt lat="43.47539" lon="6.0971">
        <ele>150.8</ele>
        <time>2014-01-12T09:24:27Z</time>
      </trkpt>
      <trkpt lat="43.47541" lon="6.09721">
        <ele>150.8</ele>
        <time>2014-01-12T09:24:35Z</time>
      </trkpt>
      <trkpt lat="43.47543" lon="6.09733">
        <ele>151</ele>
        <time>2014-01-12T09:24:43Z</time>
      </trkpt>
      <trkpt lat="43.47545" lon="6.09745">
        <ele>151.4</ele>
        <time>2014-01-12T09:24:51Z</time>
      </trkpt>
      <trkpt lat="43.47547" lon="6.09756">
        <ele>151.8</ele>
        <time>2014-01-12T09:25:00Z</time>
      </trkpt>
      <trkpt lat="43.47548" lon="6.09768">
        <ele>152.3</ele>
        <time>2014-01-12T09:25:20Z</time>
      </trkpt>
      <trkpt lat="43.47549" lon="6.09769">
        <ele>152.6</ele>
        <time>2014-01-12T09:25:21Z</time>
      </trkpt>
      <trkpt lat="43.47566" lon="6.09767">
        <ele>153.3</ele>
        <time>2014-01-12T09:25:46Z</time>
      </trkpt>
      <trkpt lat="43.47574" lon="6.09765">
        <ele>153.2</ele>
        <time>2014-01-12T09:25:55Z</time>
      </trkpt>
      <trkpt lat="43.47581" lon="6.09759">
        <ele>153.1</ele>
        <time>2014-01-12T09:26:04Z</time>
      </trkpt>
      <trkpt lat="43.47589" lon="6.09754">
        <ele>153.5</ele>
        <time>2014-01-12T09:26:13Z</time>
      </trkpt>
      <trkpt lat="43.47597" lon="6.09749">
        <ele>153.1</ele>
        <time>2014-01-12T09:26:22Z</time>
      </trkpt>
      <trkpt lat="43.47597" lon="6.09749">
        <ele>153.3</ele>
        <time>2014-01-12T09:26:23Z</time>
      </trkpt>
      <trkpt lat="43.47614" lon="6.09748">
        <ele>153.7</ele>
        <time>2014-01-12T09:26:39Z</time>
      </trkpt>
      <trkpt lat="43.47623" lon="6.09746">
        <ele>153.6</ele>
        <time>2014-01-12T09:26:48Z</time>
      </trkpt>
      <trkpt lat="43.47631" lon="6.09748">
        <ele>153.6</ele>
        <time>2014-01-12T09:26:54Z</time>
      </trkpt>
      <trkpt lat="43.4764" lon="6.09748">
        <ele>153.7</ele>
        <time>2014-01-12T09:27:03Z</time>
      </trkpt>
      <trkpt lat="43.47648" lon="6.09751">
        <ele>153.6</ele>
        <time>2014-01-12T09:27:10Z</time>
      </trkpt>
      <trkpt lat="43.47656" lon="6.0975">
        <ele>153.6</ele>
        <time>2014-01-12T09:27:17Z</time>
      </trkpt>
      <trkpt lat="43.47664" lon="6.09752">
        <ele>152.9</ele>
        <time>2014-01-12T09:27:23Z</time>
      </trkpt>
      <trkpt lat="43.47665" lon="6.09752">
        <ele>152.9</ele>
        <time>2014-01-12T09:27:24Z</time>
      </trkpt>
      <trkpt lat="43.4768" lon="6.09753">
        <ele>152.6</ele>
        <time>2014-01-12T09:27:36Z</time>
      </trkpt>
      <trkpt lat="43.47689" lon="6.09754">
        <ele>152.2</ele>
        <time>2014-01-12T09:27:44Z</time>
      </trkpt>
      <trkpt lat="43.47697" lon="6.0975">
        <ele>152</ele>
        <time>2014-01-12T09:27:52Z</time>
      </trkpt>
      <trkpt lat="43.47703" lon="6.09743">
        <ele>152.2</ele>
        <time>2014-01-12T09:27:59Z</time>
      </trkpt>
      <trkpt lat="43.4771" lon="6.09739">
        <ele>151.8</ele>
        <time>2014-01-12T09:28:07Z</time>
      </trkpt>
      <trkpt lat="43.47719" lon="6.09737">
        <ele>151.3</ele>
        <time>2014-01-12T09:28:13Z</time>
      </trkpt>
      <trkpt lat="43.47727" lon="6.09733">
        <ele>151.5</ele>
        <time>2014-01-12T09:28:21Z</time>
      </trkpt>
      <trkpt lat="43.47733" lon="6.09725">
        <ele>151.1</ele>
        <time>2014-01-12T09:28:30Z</time>
      </trkpt>
      <trkpt lat="43.47733" lon="6.09724">
        <ele>151.1</ele>
        <time>2014-01-12T09:28:31Z</time>
      </trkpt>
      <trkpt lat="43.47746" lon="6.09709">
        <ele>150.8</ele>
        <time>2014-01-12T09:28:45Z</time>
      </trkpt>
      <trkpt lat="43.47754" lon="6.09704">
        <ele>150.8</ele>
        <time>2014-01-12T09:28:53Z</time>
      </trkpt>
      <trkpt lat="43.47759" lon="6.09696">
        <ele>150.3</ele>
        <time>2014-01-12T09:28:58Z</time>
      </trkpt>
      <trkpt lat="43.47766" lon="6.09689">
        <ele>149.9</ele>
        <time>2014-01-12T09:29:05Z</time>
      </trkpt>
      <trkpt lat="43.47774" lon="6.09686">
        <ele>150</ele>
        <time>2014-01-12T09:29:13Z</time>
      </trkpt>
      <trkpt lat="43.47782" lon="6.09684">
        <ele>149.4</ele>
        <time>2014-01-12T09:29:21Z</time>
      </trkpt>
      <trkpt lat="43.47791" lon="6.09681">
        <ele>149.5</ele>
        <time>2014-01-12T09:29:29Z</time>
      </trkpt>
      <trkpt lat="43.47799" lon="6.09677">
        <ele>149.3</ele>
        <time>2014-01-12T09:29:37Z</time>
      </trkpt>
      <trkpt lat="43.478" lon="6.09676">
        <ele>149.3</ele>
        <time>2014-01-12T09:29:38Z</time>
      </trkpt>
      <trkpt lat="43.47814" lon="6.09667">
        <ele>149.6</ele>
        <time>2014-01-12T09:29:51Z</time>
      </trkpt>
      <trkpt lat="43.47823" lon="6.09664">
        <ele>150</ele>
        <time>2014-01-12T09:29:59Z</time>
      </trkpt>
      <trkpt lat="43.4783" lon="6.09658">
        <ele>150</ele>
        <time>2014-01-12T09:30:09Z</time>
      </trkpt>
      <trkpt lat="43.47839" lon="6.0966">
        <ele>150.6</ele>
        <time>2014-01-12T09:30:17Z</time>
      </trkpt>
      <trkpt lat="43.47847" lon="6.09659">
        <ele>151.5</ele>
        <time>2014-01-12T09:30:28Z</time>
      </trkpt>
      <trkpt lat="43.47855" lon="6.09661">
        <ele>151.6</ele>
        <time>2014-01-12T09:30:34Z</time>
      </trkpt>
      <trkpt lat="43.47863" lon="6.09657">
        <ele>152.3</ele>
        <time>2014-01-12T09:30:48Z</time>
      </trkpt>
      <trkpt lat="43.47864" lon="6.09657">
        <ele>152.6</ele>
        <time>2014-01-12T09:30:49Z</time>
      </trkpt>
      <trkpt lat="43.4788" lon="6.0966">
        <ele>153.6</ele>
        <time>2014-01-12T09:31:05Z</time>
      </trkpt>
      <trkpt lat="43.47888" lon="6.0966">
        <ele>154.1</ele>
        <time>2014-01-12T09:31:13Z</time>
      </trkpt>
      <trkpt lat="43.47896" lon="6.09663">
        <ele>154.2</ele>
        <time>2014-01-12T09:31:19Z</time>
      </trkpt>
      <trkpt lat="43.47905" lon="6.09664">
        <ele>154.6</ele>
        <time>2014-01-12T09:31:26Z</time>
      </trkpt>
      <trkpt lat="43.47913" lon="6.09666">
        <ele>154.8</ele>
        <time>2014-01-12T09:31:31Z</time>
      </trkpt>
      <trkpt lat="43.4792" lon="6.0967">
        <ele>154.5</ele>
        <time>2014-01-12T09:31:36Z</time>
      </trkpt>
      <trkpt lat="43.47928" lon="6.09671">
        <ele>154.9</ele>
        <time>2014-01-12T09:31:43Z</time>
      </trkpt>
      <trkpt lat="43.47936" lon="6.0967">
        <ele>155.4</ele>
        <time>2014-01-12T09:31:50Z</time>
      </trkpt>
      <trkpt lat="43.47937" lon="6.09669">
        <ele>155.5</ele>
        <time>2014-01-12T09:31:51Z</time>
      </trkpt>
      <trkpt lat="43.47953" lon="6.09667">
        <ele>156.1</ele>
        <time>2014-01-12T09:32:04Z</time>
      </trkpt>
      <trkpt lat="43.47961" lon="6.09665">
        <ele>155.7</ele>
        <time>2014-01-12T09:32:10Z</time>
      </trkpt>
      <trkpt lat="43.47968" lon="6.09661">
        <ele>156.5</ele>
        <time>2014-01-12T09:32:17Z</time>
      </trkpt>
      <trkpt lat="43.47975" lon="6.09653">
        <ele>156.3</ele>
        <time>2014-01-12T09:32:24Z</time>
      </trkpt>
      <trkpt lat="43.47981" lon="6.09644">
        <ele>156.4</ele>
        <time>2014-01-12T09:32:32Z</time>
      </trkpt>
      <trkpt lat="43.47987" lon="6.09639">
        <ele>156.5</ele>
        <time>2014-01-12T09:32:38Z</time>
      </trkpt>
      <trkpt lat="43.47995" lon="6.09634">
        <ele>156.5</ele>
        <time>2014-01-12T09:32:46Z</time>
      </trkpt>
      <trkpt lat="43.48003" lon="6.09629">
        <ele>156.8</ele>
        <time>2014-01-12T09:32:54Z</time>
      </trkpt>
      <trkpt lat="43.48004" lon="6.09629">
        <ele>156.9</ele>
        <time>2014-01-12T09:32:55Z</time>
      </trkpt>
      <trkpt lat="43.48017" lon="6.09616">
        <ele>157.5</ele>
        <time>2014-01-12T09:33:12Z</time>
      </trkpt>
      <trkpt lat="43.48026" lon="6.09612">
        <ele>157.7</ele>
        <time>2014-01-12T09:33:20Z</time>
      </trkpt>
      <trkpt lat="43.48034" lon="6.09611">
        <ele>158</ele>
        <time>2014-01-12T09:33:29Z</time>
      </trkpt>
      <trkpt lat="43.48043" lon="6.09609">
        <ele>158.4</ele>
        <time>2014-01-12T09:33:36Z</time>
      </trkpt>
      <trkpt lat="43.48047" lon="6.096">
        <ele>157.8</ele>
        <time>2014-01-12T09:33:43Z</time>
      </trkpt>
      <trkpt lat="43.48053" lon="6.09591">
        <ele>157.7</ele>
        <time>2014-01-12T09:33:51Z</time>
      </trkpt>
      <trkpt lat="43.48061" lon="6.09587">
        <ele>157.8</ele>
        <time>2014-01-12T09:33:59Z</time>
      </trkpt>
      <trkpt lat="43.48062" lon="6.09586">
        <ele>157.6</ele>
        <time>2014-01-12T09:34:00Z</time>
      </trkpt>
      <trkpt lat="43.48075" lon="6.09573">
        <ele>157.5</ele>
        <time>2014-01-12T09:34:16Z</time>
      </trkpt>
      <trkpt lat="43.48081" lon="6.09565">
        <ele>157.3</ele>
        <time>2014-01-12T09:34:22Z</time>
      </trkpt>
      <trkpt lat="43.48089" lon="6.09564">
        <ele>156.8</ele>
        <time>2014-01-12T09:34:28Z</time>
      </trkpt>
      <trkpt lat="43.48097" lon="6.09565">
        <ele>156.8</ele>
        <time>2014-01-12T09:34:33Z</time>
      </trkpt>
      <trkpt lat="43.48106" lon="6.09565">
        <ele>155.9</ele>
        <time>2014-01-12T09:34:40Z</time>
      </trkpt>
      <trkpt lat="43.48113" lon="6.0956">
        <ele>156.3</ele>
        <time>2014-01-12T09:34:46Z</time>
      </trkpt>
      <trkpt lat="43.48121" lon="6.09554">
        <ele>156.1</ele>
        <time>2014-01-12T09:34:53Z</time>
      </trkpt>
      <trkpt lat="43.48128" lon="6.09548">
        <ele>156.1</ele>
        <time>2014-01-12T09:34:59Z</time>
      </trkpt>
      <trkpt lat="43.48135" lon="6.09545">
        <ele>155.9</ele>
        <time>2014-01-12T09:35:05Z</time>
      </trkpt>
      <trkpt lat="43.48137" lon="6.09545">
        <ele>156</ele>
        <time>2014-01-12T09:35:06Z</time>
      </trkpt>
      <trkpt lat="43.4815" lon="6.09533">
        <ele>157.2</ele>
        <time>2014-01-12T09:35:30Z</time>
      </trkpt>
      <trkpt lat="43.48159" lon="6.09528">
        <ele>157.7</ele>
        <time>2014-01-12T09:35:41Z</time>
      </trkpt>
      <trkpt lat="43.48164" lon="6.0952">
        <ele>158.3</ele>
        <time>2014-01-12T09:35:48Z</time>
      </trkpt>
      <trkpt lat="43.4817" lon="6.09512">
        <ele>158.9</ele>
        <time>2014-01-12T09:35:56Z</time>
      </trkpt>
      <trkpt lat="43.48175" lon="6.09503">
        <ele>159</ele>
        <time>2014-01-12T09:36:05Z</time>
      </trkpt>
      <trkpt lat="43.48181" lon="6.09494">
        <ele>158.9</ele>
        <time>2014-01-12T09:36:48Z</time>
      </trkpt>
      <trkpt lat="43.48181" lon="6.09493">
        <ele>158.9</ele>
        <time>2014-01-12T09:36:49Z</time>
      </trkpt>
      <trkpt lat="43.48188" lon="6.09486">
        <ele>158.9</ele>
        <time>2014-01-12T09:37:52Z</time>
      </trkpt>
      <trkpt lat="43.482" lon="6.09471">
        <ele>158.8</ele>
        <time>2014-01-12T09:38:41Z</time>
      </trkpt>
      <trkpt lat="43.48206" lon="6.09462">
        <ele>158.9</ele>
        <time>2014-01-12T09:39:40Z</time>
      </trkpt>
      <trkpt lat="43.48207" lon="6.09462">
        <ele>158.8</ele>
        <time>2014-01-12T09:39:41Z</time>
      </trkpt>
      <trkpt lat="43.48223" lon="6.09455">
        <ele>158.9</ele>
        <time>2014-01-12T09:40:05Z</time>
      </trkpt>
      <trkpt lat="43.48231" lon="6.09451">
        <ele>159</ele>
        <time>2014-01-12T09:40:14Z</time>
      </trkpt>
      <trkpt lat="43.4824" lon="6.09453">
        <ele>159.7</ele>
        <time>2014-01-12T09:40:25Z</time>
      </trkpt>
      <trkpt lat="43.48243" lon="6.09442">
        <ele>160.3</ele>
        <time>2014-01-12T09:40:33Z</time>
      </trkpt>
      <trkpt lat="43.48252" lon="6.0944">
        <ele>161.3</ele>
        <time>2014-01-12T09:40:43Z</time>
      </trkpt>
      <trkpt lat="43.48252" lon="6.09439">
        <ele>161.4</ele>
        <time>2014-01-12T09:40:44Z</time>
      </trkpt>
      <trkpt lat="43.48267" lon="6.09436">
        <ele>161.7</ele>
        <time>2014-01-12T09:40:59Z</time>
      </trkpt>
      <trkpt lat="43.48276" lon="6.09437">
        <ele>161.8</ele>
        <time>2014-01-12T09:41:07Z</time>
      </trkpt>
      <trkpt lat="43.48284" lon="6.0944">
        <ele>161.8</ele>
        <time>2014-01-12T09:41:16Z</time>
      </trkpt>
      <trkpt lat="43.48293" lon="6.09442">
        <ele>161.4</ele>
        <time>2014-01-12T09:41:26Z</time>
      </trkpt>
      <trkpt lat="43.48301" lon="6.09443">
        <ele>160.9</ele>
        <time>2014-01-12T09:41:37Z</time>
      </trkpt>
      <trkpt lat="43.4831" lon="6.09444">
        <ele>160.9</ele>
        <time>2014-01-12T09:41:49Z</time>
      </trkpt>
      <trkpt lat="43.48311" lon="6.09445">
        <ele>161.1</ele>
        <time>2014-01-12T09:41:50Z</time>
      </trkpt>
      <trkpt lat="43.48325" lon="6.09452">
        <ele>161.1</ele>
        <time>2014-01-12T09:42:28Z</time>
      </trkpt>
      <trkpt lat="43.48332" lon="6.09458">
        <ele>161.4</ele>
        <time>2014-01-12T09:42:43Z</time>
      </trkpt>
      <trkpt lat="43.48338" lon="6.09448">
        <ele>161.7</ele>
        <time>2014-01-12T09:43:14Z</time>
      </trkpt>
      <trkpt lat="43.48338" lon="6.09448">
        <ele>161.7</ele>
        <time>2014-01-12T09:43:15Z</time>
      </trkpt>
      <trkpt lat="43.48347" lon="6.09449">
        <ele>162</ele>
        <time>2014-01-12T09:48:52Z</time>
      </trkpt>
      <trkpt lat="43.48345" lon="6.09452">
        <ele>163.2</ele>
        <time>2014-01-12T09:50:42Z</time>
      </trkpt>
      <trkpt lat="43.48346" lon="6.09452">
        <ele>163.3</ele>
        <time>2014-01-12T09:50:43Z</time>
      </trkpt>
      <trkpt lat="43.48345" lon="6.09451">
        <ele>162.1</ele>
        <time>2014-01-12T09:52:36Z</time>
      </trkpt>
      <trkpt lat="43.48345" lon="6.09451">
        <ele>161.7</ele>
        <time>2014-01-12T09:52:37Z</time>
      </trkpt>
      <trkpt lat="43.48352" lon="6.09442">
        <ele>159.5</ele>
        <time>2014-01-12T09:54:08Z</time>
      </trkpt>
      <trkpt lat="43.48357" lon="6.09421">
        <ele>158.9</ele>
        <time>2014-01-12T09:54:29Z</time>
      </trkpt>
      <trkpt lat="43.48361" lon="6.0941">
        <ele>158.4</ele>
        <time>2014-01-12T09:54:39Z</time>
      </trkpt>
      <trkpt lat="43.48365" lon="6.094">
        <ele>158.5</ele>
        <time>2014-01-12T09:54:48Z</time>
      </trkpt>
      <trkpt lat="43.48368" lon="6.09389">
        <ele>158.9</ele>
        <time>2014-01-12T09:54:55Z</time>
      </trkpt>
      <trkpt lat="43.4837" lon="6.09378">
        <ele>159.4</ele>
        <time>2014-01-12T09:55:02Z</time>
      </trkpt>
      <trkpt lat="43.48373" lon="6.09367">
        <ele>159.6</ele>
        <time>2014-01-12T09:55:10Z</time>
      </trkpt>
      <trkpt lat="43.48373" lon="6.09365">
        <ele>159.8</ele>
        <time>2014-01-12T09:55:11Z</time>
      </trkpt>
      <trkpt lat="43.48377" lon="6.09345">
        <ele>160.8</ele>
        <time>2014-01-12T09:55:24Z</time>
      </trkpt>
      <trkpt lat="43.48379" lon="6.09334">
        <ele>161.5</ele>
        <time>2014-01-12T09:55:31Z</time>
      </trkpt>
      <trkpt lat="43.48381" lon="6.09323">
        <ele>162.3</ele>
        <time>2014-01-12T09:55:39Z</time>
      </trkpt>
      <trkpt lat="43.48383" lon="6.09311">
        <ele>163.7</ele>
        <time>2014-01-12T09:55:49Z</time>
      </trkpt>
      <trkpt lat="43.48384" lon="6.09299">
        <ele>164.2</ele>
        <time>2014-01-12T09:55:56Z</time>
      </trkpt>
      <trkpt lat="43.48383" lon="6.09287">
        <ele>163.7</ele>
        <time>2014-01-12T09:56:02Z</time>
      </trkpt>
      <trkpt lat="43.48382" lon="6.09275">
        <ele>164.4</ele>
        <time>2014-01-12T09:56:11Z</time>
      </trkpt>
      <trkpt lat="43.48382" lon="6.09274">
        <ele>164.3</ele>
        <time>2014-01-12T09:56:12Z</time>
      </trkpt>
      <trkpt lat="43.48381" lon="6.09252">
        <ele>164.6</ele>
        <time>2014-01-12T09:56:27Z</time>
      </trkpt>
      <trkpt lat="43.48382" lon="6.0924">
        <ele>163.9</ele>
        <time>2014-01-12T09:56:34Z</time>
      </trkpt>
      <trkpt lat="43.48384" lon="6.0923">
        <ele>163.3</ele>
        <time>2014-01-12T09:56:41Z</time>
      </trkpt>
      <trkpt lat="43.48388" lon="6.09219">
        <ele>163.7</ele>
        <time>2014-01-12T09:56:48Z</time>
      </trkpt>
      <trkpt lat="43.4839" lon="6.09208">
        <ele>162</ele>
        <time>2014-01-12T09:57:03Z</time>
      </trkpt>
      <trkpt lat="43.48392" lon="6.09196">
        <ele>162.1</ele>
        <time>2014-01-12T09:57:11Z</time>
      </trkpt>
      <trkpt lat="43.4839" lon="6.09185">
        <ele>161.9</ele>
        <time>2014-01-12T09:57:21Z</time>
      </trkpt>
      <trkpt lat="43.4839" lon="6.09184">
        <ele>161.8</ele>
        <time>2014-01-12T09:57:22Z</time>
      </trkpt>
      <trkpt lat="43.48389" lon="6.09162">
        <ele>161.8</ele>
        <time>2014-01-12T09:57:35Z</time>
      </trkpt>
      <trkpt lat="43.48387" lon="6.0915">
        <ele>161.2</ele>
        <time>2014-01-12T09:57:44Z</time>
      </trkpt>
      <trkpt lat="43.48384" lon="6.0914">
        <ele>160.8</ele>
        <time>2014-01-12T09:57:51Z</time>
      </trkpt>
      <trkpt lat="43.48385" lon="6.09127">
        <ele>160.4</ele>
        <time>2014-01-12T09:57:59Z</time>
      </trkpt>
      <trkpt lat="43.48385" lon="6.09115">
        <ele>160.2</ele>
        <time>2014-01-12T09:58:08Z</time>
      </trkpt>
      <trkpt lat="43.48381" lon="6.09104">
        <ele>160</ele>
        <time>2014-01-12T09:58:16Z</time>
      </trkpt>
      <trkpt lat="43.48381" lon="6.09092">
        <ele>159.5</ele>
        <time>2014-01-12T09:58:22Z</time>
      </trkpt>
      <trkpt lat="43.4838" lon="6.09091">
        <ele>159.6</ele>
        <time>2014-01-12T09:58:23Z</time>
      </trkpt>
      <trkpt lat="43.48376" lon="6.09069">
        <ele>159.9</ele>
        <time>2014-01-12T09:58:37Z</time>
      </trkpt>
      <trkpt lat="43.48373" lon="6.09059">
        <ele>160</ele>
        <time>2014-01-12T09:58:44Z</time>
      </trkpt>
      <trkpt lat="43.48371" lon="6.09048">
        <ele>159.9</ele>
        <time>2014-01-12T09:58:51Z</time>
      </trkpt>
      <trkpt lat="43.48368" lon="6.09037">
        <ele>160.5</ele>
        <time>2014-01-12T09:58:58Z</time>
      </trkpt>
      <trkpt lat="43.48366" lon="6.09025">
        <ele>160.1</ele>
        <time>2014-01-12T09:59:06Z</time>
      </trkpt>
      <trkpt lat="43.48364" lon="6.09014">
        <ele>160.8</ele>
        <time>2014-01-12T09:59:13Z</time>
      </trkpt>
      <trkpt lat="43.48361" lon="6.09002">
        <ele>161</ele>
        <time>2014-01-12T09:59:20Z</time>
      </trkpt>
      <trkpt lat="43.4836" lon="6.08991">
        <ele>161.3</ele>
        <time>2014-01-12T09:59:27Z</time>
      </trkpt>
      <trkpt lat="43.48359" lon="6.0899">
        <ele>161.2</ele>
        <time>2014-01-12T09:59:28Z</time>
      </trkpt>
      <trkpt lat="43.48355" lon="6.08969">
        <ele>162.1</ele>
        <time>2014-01-12T10:00:47Z</time>
      </trkpt>
      <trkpt lat="43.48355" lon="6.08968">
        <ele>162.2</ele>
        <time>2014-01-12T10:00:48Z</time>
      </trkpt>
      <trkpt lat="43.4835" lon="6.08947">
        <ele>162.8</ele>
        <time>2014-01-12T10:01:28Z</time>
      </trkpt>
      <trkpt lat="43.48347" lon="6.08936">
        <ele>162.8</ele>
        <time>2014-01-12T10:01:36Z</time>
      </trkpt>
      <trkpt lat="43.48347" lon="6.08924">
        <ele>163.4</ele>
        <time>2014-01-12T10:01:43Z</time>
      </trkpt>
      <trkpt lat="43.48347" lon="6.08913">
        <ele>163.4</ele>
        <time>2014-01-12T10:01:50Z</time>
      </trkpt>
      <trkpt lat="43.48347" lon="6.08911">
        <ele>163.4</ele>
        <time>2014-01-12T10:01:51Z</time>
      </trkpt>
      <trkpt lat="43.48355" lon="6.08893">
        <ele>164</ele>
        <time>2014-01-12T10:02:08Z</time>
      </trkpt>
      <trkpt lat="43.4836" lon="6.08885">
        <ele>164.4</ele>
        <time>2014-01-12T10:02:13Z</time>
      </trkpt>
      <trkpt lat="43.48367" lon="6.08879">
        <ele>165.1</ele>
        <time>2014-01-12T10:02:21Z</time>
      </trkpt>
      <trkpt lat="43.48373" lon="6.08869">
        <ele>164.7</ele>
        <time>2014-01-12T10:02:29Z</time>
      </trkpt>
      <trkpt lat="43.48373" lon="6.08857">
        <ele>163.3</ele>
        <time>2014-01-12T10:02:37Z</time>
      </trkpt>
      <trkpt lat="43.48371" lon="6.08846">
        <ele>162.9</ele>
        <time>2014-01-12T10:02:44Z</time>
      </trkpt>
      <trkpt lat="43.48367" lon="6.08836">
        <ele>162.2</ele>
        <time>2014-01-12T10:02:52Z</time>
      </trkpt>
      <trkpt lat="43.48367" lon="6.08835">
        <ele>161.9</ele>
        <time>2014-01-12T10:02:53Z</time>
      </trkpt>
      <trkpt lat="43.48358" lon="6.08816">
        <ele>162.4</ele>
        <time>2014-01-12T10:03:05Z</time>
      </trkpt>
      <trkpt lat="43.48354" lon="6.08806">
        <ele>162</ele>
        <time>2014-01-12T10:03:12Z</time>
      </trkpt>
      <trkpt lat="43.48351" lon="6.08796">
        <ele>162.2</ele>
        <time>2014-01-12T10:03:18Z</time>
      </trkpt>
      <trkpt lat="43.48347" lon="6.08787">
        <ele>162.7</ele>
        <time>2014-01-12T10:03:24Z</time>
      </trkpt>
      <trkpt lat="43.48342" lon="6.08776">
        <ele>162.3</ele>
        <time>2014-01-12T10:03:32Z</time>
      </trkpt>
      <trkpt lat="43.48339" lon="6.08766">
        <ele>162.7</ele>
        <time>2014-01-12T10:03:38Z</time>
      </trkpt>
      <trkpt lat="43.48334" lon="6.08756">
        <ele>163.1</ele>
        <time>2014-01-12T10:03:44Z</time>
      </trkpt>
      <trkpt lat="43.48329" lon="6.08746">
        <ele>164.1</ele>
        <time>2014-01-12T10:03:53Z</time>
      </trkpt>
      <trkpt lat="43.48329" lon="6.08744">
        <ele>164</ele>
        <time>2014-01-12T10:03:54Z</time>
      </trkpt>
      <trkpt lat="43.48322" lon="6.08725">
        <ele>165.5</ele>
        <time>2014-01-12T10:04:07Z</time>
      </trkpt>
      <trkpt lat="43.48315" lon="6.08718">
        <ele>166.6</ele>
        <time>2014-01-12T10:04:18Z</time>
      </trkpt>
      <trkpt lat="43.48312" lon="6.08707">
        <ele>167.6</ele>
        <time>2014-01-12T10:04:25Z</time>
      </trkpt>
      <trkpt lat="43.48309" lon="6.08697">
        <ele>167.6</ele>
        <time>2014-01-12T10:04:33Z</time>
      </trkpt>
      <trkpt lat="43.48304" lon="6.08689">
        <ele>167.7</ele>
        <time>2014-01-12T10:04:38Z</time>
      </trkpt>
      <trkpt lat="43.483" lon="6.08678">
        <ele>167.9</ele>
        <time>2014-01-12T10:04:44Z</time>
      </trkpt>
      <trkpt lat="43.48298" lon="6.08666">
        <ele>168.2</ele>
        <time>2014-01-12T10:04:50Z</time>
      </trkpt>
      <trkpt lat="43.48294" lon="6.08657">
        <ele>168.2</ele>
        <time>2014-01-12T10:04:56Z</time>
      </trkpt>
      <trkpt lat="43.48293" lon="6.08655">
        <ele>168.3</ele>
        <time>2014-01-12T10:04:57Z</time>
      </trkpt>
      <trkpt lat="43.48285" lon="6.08636">
        <ele>168.9</ele>
        <time>2014-01-12T10:05:10Z</time>
      </trkpt>
      <trkpt lat="43.48281" lon="6.08626">
        <ele>169.5</ele>
        <time>2014-01-12T10:05:19Z</time>
      </trkpt>
      <trkpt lat="43.48277" lon="6.08615">
        <ele>170</ele>
        <time>2014-01-12T10:05:28Z</time>
      </trkpt>
      <trkpt lat="43.48274" lon="6.08605">
        <ele>170</ele>
        <time>2014-01-12T10:05:35Z</time>
      </trkpt>
      <trkpt lat="43.48272" lon="6.08593">
        <ele>170.2</ele>
        <time>2014-01-12T10:05:41Z</time>
      </trkpt>
      <trkpt lat="43.48269" lon="6.08584">
        <ele>170.6</ele>
        <time>2014-01-12T10:05:47Z</time>
      </trkpt>
      <trkpt lat="43.48269" lon="6.08573">
        <ele>171.2</ele>
        <time>2014-01-12T10:05:54Z</time>
      </trkpt>
      <trkpt lat="43.48265" lon="6.08563">
        <ele>171.8</ele>
        <time>2014-01-12T10:06:02Z</time>
      </trkpt>
      <trkpt lat="43.48264" lon="6.08561">
        <ele>171.9</ele>
        <time>2014-01-12T10:06:03Z</time>
      </trkpt>
      <trkpt lat="43.48261" lon="6.0854">
        <ele>173.8</ele>
        <time>2014-01-12T10:06:22Z</time>
      </trkpt>
      <trkpt lat="43.48259" lon="6.08529">
        <ele>174.9</ele>
        <time>2014-01-12T10:06:31Z</time>
      </trkpt>
      <trkpt lat="43.48257" lon="6.08518">
        <ele>175.1</ele>
        <time>2014-01-12T10:06:38Z</time>
      </trkpt>
      <trkpt lat="43.48257" lon="6.08506">
        <ele>175.2</ele>
        <time>2014-01-12T10:06:44Z</time>
      </trkpt>
      <trkpt lat="43.48253" lon="6.08496">
        <ele>175.3</ele>
        <time>2014-01-12T10:06:50Z</time>
      </trkpt>
      <trkpt lat="43.48252" lon="6.08485">
        <ele>175.3</ele>
        <time>2014-01-12T10:06:57Z</time>
      </trkpt>
      <trkpt lat="43.4825" lon="6.08474">
        <ele>175.6</ele>
        <time>2014-01-12T10:07:04Z</time>
      </trkpt>
      <trkpt lat="43.4825" lon="6.08473">
        <ele>175.6</ele>
        <time>2014-01-12T10:07:05Z</time>
      </trkpt>
      <trkpt lat="43.48246" lon="6.08451">
        <ele>175.8</ele>
        <time>2014-01-12T10:07:19Z</time>
      </trkpt>
      <trkpt lat="43.48243" lon="6.08439">
        <ele>175.4</ele>
        <time>2014-01-12T10:07:26Z</time>
      </trkpt>
      <trkpt lat="43.48239" lon="6.08429">
        <ele>175.3</ele>
        <time>2014-01-12T10:07:32Z</time>
      </trkpt>
      <trkpt lat="43.48236" lon="6.08418">
        <ele>174.6</ele>
        <time>2014-01-12T10:07:39Z</time>
      </trkpt>
      <trkpt lat="43.48232" lon="6.08407">
        <ele>174.5</ele>
        <time>2014-01-12T10:07:47Z</time>
      </trkpt>
      <trkpt lat="43.4823" lon="6.08395">
        <ele>174.4</ele>
        <time>2014-01-12T10:07:54Z</time>
      </trkpt>
      <trkpt lat="43.48227" lon="6.08386">
        <ele>174.3</ele>
        <time>2014-01-12T10:07:59Z</time>
      </trkpt>
      <trkpt lat="43.48221" lon="6.08377">
        <ele>173.8</ele>
        <time>2014-01-12T10:08:06Z</time>
      </trkpt>
      <trkpt lat="43.4822" lon="6.08376">
        <ele>173.6</ele>
        <time>2014-01-12T10:08:07Z</time>
      </trkpt>
      <trkpt lat="43.48217" lon="6.08356">
        <ele>171.7</ele>
        <time>2014-01-12T10:08:23Z</time>
      </trkpt>
      <trkpt lat="43.48222" lon="6.08346">
        <ele>169.8</ele>
        <time>2014-01-12T10:09:02Z</time>
      </trkpt>
      <trkpt lat="43.48227" lon="6.08336">
        <ele>168.7</ele>
        <time>2014-01-12T10:09:12Z</time>
      </trkpt>
      <trkpt lat="43.48227" lon="6.08335">
        <ele>168.6</ele>
        <time>2014-01-12T10:09:13Z</time>
      </trkpt>
      <trkpt lat="43.48241" lon="6.08323">
        <ele>168.3</ele>
        <time>2014-01-12T10:09:27Z</time>
      </trkpt>
      <trkpt lat="43.48244" lon="6.08312">
        <ele>167.6</ele>
        <time>2014-01-12T10:09:34Z</time>
      </trkpt>
      <trkpt lat="43.48252" lon="6.08309">
        <ele>167.2</ele>
        <time>2014-01-12T10:09:41Z</time>
      </trkpt>
      <trkpt lat="43.4826" lon="6.08307">
        <ele>165.6</ele>
        <time>2014-01-12T10:09:49Z</time>
      </trkpt>
      <trkpt lat="43.48268" lon="6.08302">
        <ele>164.4</ele>
        <time>2014-01-12T10:09:55Z</time>
      </trkpt>
      <trkpt lat="43.48275" lon="6.08296">
        <ele>163.2</ele>
        <time>2014-01-12T10:10:04Z</time>
      </trkpt>
      <trkpt lat="43.48283" lon="6.08292">
        <ele>162.9</ele>
        <time>2014-01-12T10:10:09Z</time>
      </trkpt>
      <trkpt lat="43.48291" lon="6.08292">
        <ele>162.5</ele>
        <time>2014-01-12T10:10:13Z</time>
      </trkpt>
      <trkpt lat="43.48293" lon="6.08291">
        <ele>162.4</ele>
        <time>2014-01-12T10:10:14Z</time>
      </trkpt>
      <trkpt lat="43.48303" lon="6.08278">
        <ele>161.7</ele>
        <time>2014-01-12T10:10:25Z</time>
      </trkpt>
      <trkpt lat="43.48309" lon="6.08271">
        <ele>162.1</ele>
        <time>2014-01-12T10:10:30Z</time>
      </trkpt>
      <trkpt lat="43.48318" lon="6.08268">
        <ele>162.1</ele>
        <time>2014-01-12T10:10:34Z</time>
      </trkpt>
      <trkpt lat="43.48326" lon="6.08264">
        <ele>161.9</ele>
        <time>2014-01-12T10:10:42Z</time>
      </trkpt>
      <trkpt lat="43.48332" lon="6.08257">
        <ele>161.5</ele>
        <time>2014-01-12T10:10:47Z</time>
      </trkpt>
      <trkpt lat="43.4834" lon="6.08252">
        <ele>161.4</ele>
        <time>2014-01-12T10:10:54Z</time>
      </trkpt>
      <trkpt lat="43.48347" lon="6.08245">
        <ele>161.5</ele>
        <time>2014-01-12T10:11:00Z</time>
      </trkpt>
      <trkpt lat="43.48355" lon="6.0824">
        <ele>161.6</ele>
        <time>2014-01-12T10:11:06Z</time>
      </trkpt>
      <trkpt lat="43.48363" lon="6.08239">
        <ele>162.1</ele>
        <time>2014-01-12T10:11:13Z</time>
      </trkpt>
      <trkpt lat="43.4837" lon="6.08233">
        <ele>161.8</ele>
        <time>2014-01-12T10:11:21Z</time>
      </trkpt>
      <trkpt lat="43.48372" lon="6.08233">
        <ele>161.7</ele>
        <time>2014-01-12T10:11:22Z</time>
      </trkpt>
      <trkpt lat="43.48384" lon="6.08224">
        <ele>162.7</ele>
        <time>2014-01-12T10:11:33Z</time>
      </trkpt>
      <trkpt lat="43.48391" lon="6.08216">
        <ele>162.6</ele>
        <time>2014-01-12T10:11:41Z</time>
      </trkpt>
      <trkpt lat="43.48398" lon="6.0821">
        <ele>162</ele>
        <time>2014-01-12T10:11:55Z</time>
      </trkpt>
      <trkpt lat="43.48405" lon="6.08207">
        <ele>161.8</ele>
        <time>2014-01-12T10:12:03Z</time>
      </trkpt>
      <trkpt lat="43.48412" lon="6.08202">
        <ele>161.7</ele>
        <time>2014-01-12T10:12:09Z</time>
      </trkpt>
      <trkpt lat="43.48419" lon="6.08196">
        <ele>161.2</ele>
        <time>2014-01-12T10:12:16Z</time>
      </trkpt>
      <trkpt lat="43.48428" lon="6.08194">
        <ele>160.8</ele>
        <time>2014-01-12T10:12:24Z</time>
      </trkpt>
      <trkpt lat="43.4843" lon="6.08192">
        <ele>160.9</ele>
        <time>2014-01-12T10:12:25Z</time>
      </trkpt>
      <trkpt lat="43.48444" lon="6.08185">
        <ele>160.5</ele>
        <time>2014-01-12T10:12:35Z</time>
      </trkpt>
      <trkpt lat="43.48451" lon="6.0818">
        <ele>159.8</ele>
        <time>2014-01-12T10:12:41Z</time>
      </trkpt>
      <trkpt lat="43.48458" lon="6.0818">
        <ele>159.5</ele>
        <time>2014-01-12T10:12:45Z</time>
      </trkpt>
      <trkpt lat="43.48466" lon="6.08184">
        <ele>160</ele>
        <time>2014-01-12T10:12:49Z</time>
      </trkpt>
      <trkpt lat="43.48472" lon="6.08175">
        <ele>159.4</ele>
        <time>2014-01-12T10:13:01Z</time>
      </trkpt>
      <trkpt lat="43.48471" lon="6.08163">
        <ele>159</ele>
        <time>2014-01-12T10:13:08Z</time>
      </trkpt>
      <trkpt lat="43.48474" lon="6.08152">
        <ele>159.3</ele>
        <time>2014-01-12T10:13:18Z</time>
      </trkpt>
      <trkpt lat="43.48472" lon="6.08141">
        <ele>159.3</ele>
        <time>2014-01-12T10:13:28Z</time>
      </trkpt>
      <trkpt lat="43.48472" lon="6.0814">
        <ele>159.3</ele>
        <time>2014-01-12T10:13:29Z</time>
      </trkpt>
      <trkpt lat="43.48462" lon="6.08123">
        <ele>158.7</ele>
        <time>2014-01-12T10:13:54Z</time>
      </trkpt>
      <trkpt lat="43.48463" lon="6.08112">
        <ele>158.5</ele>
        <time>2014-01-12T10:14:02Z</time>
      </trkpt>
      <trkpt lat="43.48467" lon="6.08101">
        <ele>158.1</ele>
        <time>2014-01-12T10:14:07Z</time>
      </trkpt>
      <trkpt lat="43.48474" lon="6.08094">
        <ele>157.1</ele>
        <time>2014-01-12T10:14:18Z</time>
      </trkpt>
      <trkpt lat="43.48483" lon="6.08092">
        <ele>155.9</ele>
        <time>2014-01-12T10:14:30Z</time>
      </trkpt>
      <trkpt lat="43.48483" lon="6.08093">
        <ele>155.8</ele>
        <time>2014-01-12T10:14:31Z</time>
      </trkpt>
      <trkpt lat="43.48499" lon="6.08092">
        <ele>154.9</ele>
        <time>2014-01-12T10:15:01Z</time>
      </trkpt>
      <trkpt lat="43.48507" lon="6.08092">
        <ele>154.7</ele>
        <time>2014-01-12T10:15:14Z</time>
      </trkpt>
      <trkpt lat="43.48516" lon="6.08091">
        <ele>155.1</ele>
        <time>2014-01-12T10:15:21Z</time>
      </trkpt>
      <trkpt lat="43.48524" lon="6.08091">
        <ele>155.1</ele>
        <time>2014-01-12T10:15:29Z</time>
      </trkpt>
      <trkpt lat="43.48533" lon="6.08092">
        <ele>155.1</ele>
        <time>2014-01-12T10:15:38Z</time>
      </trkpt>
      <trkpt lat="43.48533" lon="6.08092">
        <ele>155.1</ele>
        <time>2014-01-12T10:15:39Z</time>
      </trkpt>
      <trkpt lat="43.48548" lon="6.08093">
        <ele>155.2</ele>
        <time>2014-01-12T10:16:00Z</time>
      </trkpt>
      <trkpt lat="43.48556" lon="6.08087">
        <ele>156</ele>
        <time>2014-01-12T10:16:11Z</time>
      </trkpt>
      <trkpt lat="43.48561" lon="6.08076">
        <ele>155.2</ele>
        <time>2014-01-12T10:16:56Z</time>
      </trkpt>
      <trkpt lat="43.48561" lon="6.08076">
        <ele>155.3</ele>
        <time>2014-01-12T10:16:57Z</time>
      </trkpt>
      <trkpt lat="43.48578" lon="6.08081">
        <ele>155.8</ele>
        <time>2014-01-12T10:17:23Z</time>
      </trkpt>
      <trkpt lat="43.48586" lon="6.08084">
        <ele>156.1</ele>
        <time>2014-01-12T10:17:30Z</time>
      </trkpt>
      <trkpt lat="43.48594" lon="6.08081">
        <ele>156.4</ele>
        <time>2014-01-12T10:17:38Z</time>
      </trkpt>
      <trkpt lat="43.48598" lon="6.08071">
        <ele>156.7</ele>
        <time>2014-01-12T10:17:45Z</time>
      </trkpt>
      <trkpt lat="43.48604" lon="6.08064">
        <ele>157.1</ele>
        <time>2014-01-12T10:17:52Z</time>
      </trkpt>
      <trkpt lat="43.48611" lon="6.08057">
        <ele>157.3</ele>
        <time>2014-01-12T10:18:05Z</time>
      </trkpt>
      <trkpt lat="43.48612" lon="6.08057">
        <ele>157.3</ele>
        <time>2014-01-12T10:18:06Z</time>
      </trkpt>
      <trkpt lat="43.48623" lon="6.08041">
        <ele>158.6</ele>
        <time>2014-01-12T10:18:38Z</time>
      </trkpt>
      <trkpt lat="43.48632" lon="6.08038">
        <ele>158.7</ele>
        <time>2014-01-12T10:18:46Z</time>
      </trkpt>
      <trkpt lat="43.48638" lon="6.0803">
        <ele>157.7</ele>
        <time>2014-01-12T10:18:59Z</time>
      </trkpt>
      <trkpt lat="43.48642" lon="6.0802">
        <ele>157.8</ele>
        <time>2014-01-12T10:19:05Z</time>
      </trkpt>
      <trkpt lat="43.4865" lon="6.0802">
        <ele>158.1</ele>
        <time>2014-01-12T10:19:11Z</time>
      </trkpt>
      <trkpt lat="43.48651" lon="6.08022">
        <ele>157.9</ele>
        <time>2014-01-12T10:19:12Z</time>
      </trkpt>
      <trkpt lat="43.48663" lon="6.08018">
        <ele>157.8</ele>
        <time>2014-01-12T10:19:25Z</time>
      </trkpt>
      <trkpt lat="43.48673" lon="6.08019">
        <ele>158</ele>
        <time>2014-01-12T10:19:32Z</time>
      </trkpt>
      <trkpt lat="43.48681" lon="6.08017">
        <ele>157.7</ele>
        <time>2014-01-12T10:19:38Z</time>
      </trkpt>
      <trkpt lat="43.48687" lon="6.08024">
        <ele>158</ele>
        <time>2014-01-12T10:19:42Z</time>
      </trkpt>
      <trkpt lat="43.48695" lon="6.08029">
        <ele>158.5</ele>
        <time>2014-01-12T10:19:50Z</time>
      </trkpt>
      <trkpt lat="43.48704" lon="6.08031">
        <ele>158.3</ele>
        <time>2014-01-12T10:20:02Z</time>
      </trkpt>
      <trkpt lat="43.48707" lon="6.08021">
        <ele>158.4</ele>
        <time>2014-01-12T10:20:13Z</time>
      </trkpt>
      <trkpt lat="43.48707" lon="6.08019">
        <ele>158.5</ele>
        <time>2014-01-12T10:20:14Z</time>
      </trkpt>
      <trkpt lat="43.48716" lon="6.08004">
        <ele>159.1</ele>
        <time>2014-01-12T10:20:26Z</time>
      </trkpt>
      <trkpt lat="43.48725" lon="6.08004">
        <ele>159.3</ele>
        <time>2014-01-12T10:20:32Z</time>
      </trkpt>
      <trkpt lat="43.48732" lon="6.08001">
        <ele>159.7</ele>
        <time>2014-01-12T10:20:43Z</time>
      </trkpt>
      <trkpt lat="43.48741" lon="6.07999">
        <ele>160</ele>
        <time>2014-01-12T10:20:52Z</time>
      </trkpt>
      <trkpt lat="43.48746" lon="6.07991">
        <ele>159.7</ele>
        <time>2014-01-12T10:20:58Z</time>
      </trkpt>
      <trkpt lat="43.48753" lon="6.07984">
        <ele>160.1</ele>
        <time>2014-01-12T10:21:05Z</time>
      </trkpt>
      <trkpt lat="43.48756" lon="6.07972">
        <ele>160.1</ele>
        <time>2014-01-12T10:21:10Z</time>
      </trkpt>
      <trkpt lat="43.48763" lon="6.07965">
        <ele>160</ele>
        <time>2014-01-12T10:21:20Z</time>
      </trkpt>
      <trkpt lat="43.48764" lon="6.07966">
        <ele>160.1</ele>
        <time>2014-01-12T10:21:21Z</time>
      </trkpt>
      <trkpt lat="43.48779" lon="6.07958">
        <ele>161</ele>
        <time>2014-01-12T10:22:07Z</time>
      </trkpt>
      <trkpt lat="43.4878" lon="6.07976">
        <ele>160</ele>
        <time>2014-01-12T10:23:13Z</time>
      </trkpt>
      <trkpt lat="43.48791" lon="6.07976">
        <ele>160.9</ele>
        <time>2014-01-12T10:23:50Z</time>
      </trkpt>
      <trkpt lat="43.48787" lon="6.07965">
        <ele>160.7</ele>
        <time>2014-01-12T10:24:03Z</time>
      </trkpt>
      <trkpt lat="43.48791" lon="6.07955">
        <ele>160.8</ele>
        <time>2014-01-12T10:24:13Z</time>
      </trkpt>
      <trkpt lat="43.48799" lon="6.0795">
        <ele>160.7</ele>
        <time>2014-01-12T10:24:52Z</time>
      </trkpt>
      <trkpt lat="43.48799" lon="6.07947">
        <ele>160.6</ele>
        <time>2014-01-12T10:24:53Z</time>
      </trkpt>
      <trkpt lat="43.48804" lon="6.07928">
        <ele>160.2</ele>
        <time>2014-01-12T10:25:01Z</time>
      </trkpt>
      <trkpt lat="43.48809" lon="6.07918">
        <ele>160.2</ele>
        <time>2014-01-12T10:25:07Z</time>
      </trkpt>
      <trkpt lat="43.48815" lon="6.0791">
        <ele>160.2</ele>
        <time>2014-01-12T10:25:13Z</time>
      </trkpt>
      <trkpt lat="43.48819" lon="6.07901">
        <ele>160</ele>
        <time>2014-01-12T10:25:19Z</time>
      </trkpt>
      <trkpt lat="43.48821" lon="6.0789">
        <ele>160.2</ele>
        <time>2014-01-12T10:25:29Z</time>
      </trkpt>
      <trkpt lat="43.48823" lon="6.07878">
        <ele>160.3</ele>
        <time>2014-01-12T10:25:36Z</time>
      </trkpt>
      <trkpt lat="43.48829" lon="6.07871">
        <ele>160.3</ele>
        <time>2014-01-12T10:25:42Z</time>
      </trkpt>
      <trkpt lat="43.48832" lon="6.0786">
        <ele>160.3</ele>
        <time>2014-01-12T10:25:48Z</time>
      </trkpt>
      <trkpt lat="43.48834" lon="6.07848">
        <ele>160.6</ele>
        <time>2014-01-12T10:25:54Z</time>
      </trkpt>
      <trkpt lat="43.48835" lon="6.07847">
        <ele>160.7</ele>
        <time>2014-01-12T10:25:55Z</time>
      </trkpt>
      <trkpt lat="43.4884" lon="6.07827">
        <ele>161.1</ele>
        <time>2014-01-12T10:26:08Z</time>
      </trkpt>
      <trkpt lat="43.48841" lon="6.07817">
        <ele>161.4</ele>
        <time>2014-01-12T10:26:15Z</time>
      </trkpt>
      <trkpt lat="43.48843" lon="6.07808">
        <ele>161.3</ele>
        <time>2014-01-12T10:26:20Z</time>
      </trkpt>
      <trkpt lat="43.48848" lon="6.07798">
        <ele>161.5</ele>
        <time>2014-01-12T10:26:28Z</time>
      </trkpt>
      <trkpt lat="43.48851" lon="6.07788">
        <ele>161.7</ele>
        <time>2014-01-12T10:26:34Z</time>
      </trkpt>
      <trkpt lat="43.48855" lon="6.07779">
        <ele>161.8</ele>
        <time>2014-01-12T10:26:38Z</time>
      </trkpt>
      <trkpt lat="43.48858" lon="6.07768">
        <ele>161.6</ele>
        <time>2014-01-12T10:26:46Z</time>
      </trkpt>
      <trkpt lat="43.48859" lon="6.07757">
        <ele>161.9</ele>
        <time>2014-01-12T10:26:53Z</time>
      </trkpt>
      <trkpt lat="43.48855" lon="6.07746">
        <ele>161.8</ele>
        <time>2014-01-12T10:26:58Z</time>
      </trkpt>
      <trkpt lat="43.48855" lon="6.07744">
        <ele>162</ele>
        <time>2014-01-12T10:26:59Z</time>
      </trkpt>
      <trkpt lat="43.48845" lon="6.07729">
        <ele>162.2</ele>
        <time>2014-01-12T10:27:10Z</time>
      </trkpt>
      <trkpt lat="43.48837" lon="6.07723">
        <ele>161.9</ele>
        <time>2014-01-12T10:27:17Z</time>
      </trkpt>
      <trkpt lat="43.48838" lon="6.07735">
        <ele>162.6</ele>
        <time>2014-01-12T10:28:23Z</time>
      </trkpt>
      <trkpt lat="43.48838" lon="6.07737">
        <ele>162.5</ele>
        <time>2014-01-12T10:28:24Z</time>
      </trkpt>
      <trkpt lat="43.48849" lon="6.07754">
        <ele>162</ele>
        <time>2014-01-12T10:28:39Z</time>
      </trkpt>
      <trkpt lat="43.48853" lon="6.07765">
        <ele>162.5</ele>
        <time>2014-01-12T10:28:49Z</time>
      </trkpt>
      <trkpt lat="43.48856" lon="6.07775">
        <ele>161.7</ele>
        <time>2014-01-12T10:29:03Z</time>
      </trkpt>
      <trkpt lat="43.48854" lon="6.07785">
        <ele>161.9</ele>
        <time>2014-01-12T10:29:11Z</time>
      </trkpt>
      <trkpt lat="43.48849" lon="6.07794">
        <ele>161.6</ele>
        <time>2014-01-12T10:29:17Z</time>
      </trkpt>
      <trkpt lat="43.48843" lon="6.07803">
        <ele>161.9</ele>
        <time>2014-01-12T10:29:23Z</time>
      </trkpt>
      <trkpt lat="43.4884" lon="6.07814">
        <ele>162.3</ele>
        <time>2014-01-12T10:29:33Z</time>
      </trkpt>
      <trkpt lat="43.4884" lon="6.07815">
        <ele>162.2</ele>
        <time>2014-01-12T10:29:34Z</time>
      </trkpt>
      <trkpt lat="43.4884" lon="6.07837">
        <ele>161.5</ele>
        <time>2014-01-12T10:30:02Z</time>
      </trkpt>
      <trkpt lat="43.48838" lon="6.07849">
        <ele>161.1</ele>
        <time>2014-01-12T10:30:09Z</time>
      </trkpt>
      <trkpt lat="43.48835" lon="6.07859">
        <ele>161</ele>
        <time>2014-01-12T10:30:16Z</time>
      </trkpt>
      <trkpt lat="43.48832" lon="6.07869">
        <ele>161.1</ele>
        <time>2014-01-12T10:30:23Z</time>
      </trkpt>
      <trkpt lat="43.48829" lon="6.07881">
        <ele>161.2</ele>
        <time>2014-01-12T10:30:30Z</time>
      </trkpt>
      <trkpt lat="43.4882" lon="6.07884">
        <ele>161.4</ele>
        <time>2014-01-12T10:30:39Z</time>
      </trkpt>
      <trkpt lat="43.48819" lon="6.07885">
        <ele>161.3</ele>
        <time>2014-01-12T10:30:40Z</time>
      </trkpt>
      <trkpt lat="43.48805" lon="6.07895">
        <ele>161</ele>
        <time>2014-01-12T10:31:20Z</time>
      </trkpt>
      <trkpt lat="43.48796" lon="6.07894">
        <ele>161.9</ele>
        <time>2014-01-12T10:31:30Z</time>
      </trkpt>
      <trkpt lat="43.48789" lon="6.07888">
        <ele>161.2</ele>
        <time>2014-01-12T10:31:42Z</time>
      </trkpt>
      <trkpt lat="43.48788" lon="6.07887">
        <ele>161.1</ele>
        <time>2014-01-12T10:31:43Z</time>
      </trkpt>
      <trkpt lat="43.48778" lon="6.07872">
        <ele>161.8</ele>
        <time>2014-01-12T10:31:54Z</time>
      </trkpt>
      <trkpt lat="43.48771" lon="6.07867">
        <ele>161.2</ele>
        <time>2014-01-12T10:32:04Z</time>
      </trkpt>
      <trkpt lat="43.48762" lon="6.07864">
        <ele>161.4</ele>
        <time>2014-01-12T10:32:31Z</time>
      </trkpt>
      <trkpt lat="43.48756" lon="6.0787">
        <ele>161.3</ele>
        <time>2014-01-12T10:32:38Z</time>
      </trkpt>
      <trkpt lat="43.48747" lon="6.07873">
        <ele>161.2</ele>
        <time>2014-01-12T10:32:46Z</time>
      </trkpt>
      <trkpt lat="43.48746" lon="6.07873">
        <ele>161.1</ele>
        <time>2014-01-12T10:32:47Z</time>
      </trkpt>
      <trkpt lat="43.4874" lon="6.07894">
        <ele>161.5</ele>
        <time>2014-01-12T10:33:08Z</time>
      </trkpt>
      <trkpt lat="43.48732" lon="6.07897">
        <ele>161.2</ele>
        <time>2014-01-12T10:33:17Z</time>
      </trkpt>
      <trkpt lat="43.48724" lon="6.07899">
        <ele>161.5</ele>
        <time>2014-01-12T10:33:21Z</time>
      </trkpt>
      <trkpt lat="43.48716" lon="6.07902">
        <ele>161.7</ele>
        <time>2014-01-12T10:33:29Z</time>
      </trkpt>
      <trkpt lat="43.48708" lon="6.07908">
        <ele>161.4</ele>
        <time>2014-01-12T10:33:40Z</time>
      </trkpt>
      <trkpt lat="43.48699" lon="6.07907">
        <ele>160.9</ele>
        <time>2014-01-12T10:33:58Z</time>
      </trkpt>
      <trkpt lat="43.48699" lon="6.07907">
        <ele>160.9</ele>
        <time>2014-01-12T10:33:59Z</time>
      </trkpt>
      <trkpt lat="43.48683" lon="6.0792">
        <ele>161.2</ele>
        <time>2014-01-12T10:34:20Z</time>
      </trkpt>
      <trkpt lat="43.48676" lon="6.07926">
        <ele>161.5</ele>
        <time>2014-01-12T10:34:29Z</time>
      </trkpt>
      <trkpt lat="43.48673" lon="6.07937">
        <ele>161.6</ele>
        <time>2014-01-12T10:34:36Z</time>
      </trkpt>
      <trkpt lat="43.4867" lon="6.07947">
        <ele>160.9</ele>
        <time>2014-01-12T10:34:41Z</time>
      </trkpt>
      <trkpt lat="43.48666" lon="6.07957">
        <ele>160.5</ele>
        <time>2014-01-12T10:34:46Z</time>
      </trkpt>
      <trkpt lat="43.48661" lon="6.07966">
        <ele>160.4</ele>
        <time>2014-01-12T10:34:53Z</time>
      </trkpt>
      <trkpt lat="43.48655" lon="6.07974">
        <ele>160.3</ele>
        <time>2014-01-12T10:34:58Z</time>
      </trkpt>
      <trkpt lat="43.48653" lon="6.07986">
        <ele>160.3</ele>
        <time>2014-01-12T10:35:07Z</time>
      </trkpt>
      <trkpt lat="43.48653" lon="6.07988">
        <ele>160.3</ele>
        <time>2014-01-12T10:35:08Z</time>
      </trkpt>
      <trkpt lat="43.48647" lon="6.08028">
        <ele>159.5</ele>
        <time>2014-01-12T10:35:29Z</time>
      </trkpt>
      <trkpt lat="43.48655" lon="6.08026">
        <ele>159.2</ele>
        <time>2014-01-12T10:35:34Z</time>
      </trkpt>
      <trkpt lat="43.48663" lon="6.08026">
        <ele>159.4</ele>
        <time>2014-01-12T10:35:46Z</time>
      </trkpt>
      <trkpt lat="43.48672" lon="6.08025">
        <ele>159.6</ele>
        <time>2014-01-12T10:35:52Z</time>
      </trkpt>
      <trkpt lat="43.48681" lon="6.08028">
        <ele>159.7</ele>
        <time>2014-01-12T10:35:57Z</time>
      </trkpt>
      <trkpt lat="43.48688" lon="6.08029">
        <ele>159.7</ele>
        <time>2014-01-12T10:36:02Z</time>
      </trkpt>
      <trkpt lat="43.48696" lon="6.08031">
        <ele>159.8</ele>
        <time>2014-01-12T10:36:08Z</time>
      </trkpt>
      <trkpt lat="43.48697" lon="6.08031">
        <ele>159.6</ele>
        <time>2014-01-12T10:36:09Z</time>
      </trkpt>
      <trkpt lat="43.48711" lon="6.0803">
        <ele>160.5</ele>
        <time>2014-01-12T10:36:20Z</time>
      </trkpt>
      <trkpt lat="43.48719" lon="6.08026">
        <ele>161.1</ele>
        <time>2014-01-12T10:36:25Z</time>
      </trkpt>
      <trkpt lat="43.48724" lon="6.08018">
        <ele>161</ele>
        <time>2014-01-12T10:36:29Z</time>
      </trkpt>
      <trkpt lat="43.48729" lon="6.08007">
        <ele>161.4</ele>
        <time>2014-01-12T10:36:39Z</time>
      </trkpt>
      <trkpt lat="43.48736" lon="6.08003">
        <ele>161.9</ele>
        <time>2014-01-12T10:36:44Z</time>
      </trkpt>
      <trkpt lat="43.48743" lon="6.07996">
        <ele>162.2</ele>
        <time>2014-01-12T10:36:50Z</time>
      </trkpt>
      <trkpt lat="43.48751" lon="6.0799">
        <ele>161.9</ele>
        <time>2014-01-12T10:36:54Z</time>
      </trkpt>
      <trkpt lat="43.48753" lon="6.0798">
        <ele>162.1</ele>
        <time>2014-01-12T10:36:59Z</time>
      </trkpt>
      <trkpt lat="43.48756" lon="6.07969">
        <ele>162.3</ele>
        <time>2014-01-12T10:37:04Z</time>
      </trkpt>
      <trkpt lat="43.48765" lon="6.07966">
        <ele>162.1</ele>
        <time>2014-01-12T10:37:09Z</time>
      </trkpt>
      <trkpt lat="43.48766" lon="6.07963">
        <ele>162</ele>
        <time>2014-01-12T10:37:10Z</time>
      </trkpt>
      <trkpt lat="43.48779" lon="6.07955">
        <ele>162.1</ele>
        <time>2014-01-12T10:37:21Z</time>
      </trkpt>
      <trkpt lat="43.48786" lon="6.07952">
        <ele>162.2</ele>
        <time>2014-01-12T10:37:28Z</time>
      </trkpt>
      <trkpt lat="43.48793" lon="6.07944">
        <ele>162.6</ele>
        <time>2014-01-12T10:37:33Z</time>
      </trkpt>
      <trkpt lat="43.48785" lon="6.0795">
        <ele>162.2</ele>
        <time>2014-01-12T10:37:56Z</time>
      </trkpt>
      <trkpt lat="43.48777" lon="6.07952">
        <ele>161.9</ele>
        <time>2014-01-12T10:38:02Z</time>
      </trkpt>
      <trkpt lat="43.48768" lon="6.07956">
        <ele>162.5</ele>
        <time>2014-01-12T10:38:13Z</time>
      </trkpt>
      <trkpt lat="43.48767" lon="6.07957">
        <ele>162.4</ele>
        <time>2014-01-12T10:38:14Z</time>
      </trkpt>
      <trkpt lat="43.48754" lon="6.07966">
        <ele>162.3</ele>
        <time>2014-01-12T10:38:27Z</time>
      </trkpt>
      <trkpt lat="43.48747" lon="6.07969">
        <ele>162.3</ele>
        <time>2014-01-12T10:38:32Z</time>
      </trkpt>
      <trkpt lat="43.48743" lon="6.07979">
        <ele>162.1</ele>
        <time>2014-01-12T10:38:38Z</time>
      </trkpt>
      <trkpt lat="43.48737" lon="6.07988">
        <ele>161.5</ele>
        <time>2014-01-12T10:38:47Z</time>
      </trkpt>
      <trkpt lat="43.48735" lon="6.07999">
        <ele>160.9</ele>
        <time>2014-01-12T10:38:53Z</time>
      </trkpt>
      <trkpt lat="43.48729" lon="6.08008">
        <ele>161.2</ele>
        <time>2014-01-12T10:38:59Z</time>
      </trkpt>
      <trkpt lat="43.48724" lon="6.08017">
        <ele>160.8</ele>
        <time>2014-01-12T10:39:03Z</time>
      </trkpt>
      <trkpt lat="43.48717" lon="6.08022">
        <ele>161</ele>
        <time>2014-01-12T10:39:06Z</time>
      </trkpt>
      <trkpt lat="43.48713" lon="6.0803">
        <ele>161.2</ele>
        <time>2014-01-12T10:39:14Z</time>
      </trkpt>
      <trkpt lat="43.48714" lon="6.08034">
        <ele>161</ele>
        <time>2014-01-12T10:39:15Z</time>
      </trkpt>
      <trkpt lat="43.4872" lon="6.08052">
        <ele>160.8</ele>
        <time>2014-01-12T10:39:23Z</time>
      </trkpt>
      <trkpt lat="43.48722" lon="6.08063">
        <ele>160.4</ele>
        <time>2014-01-12T10:39:29Z</time>
      </trkpt>
      <trkpt lat="43.48724" lon="6.08073">
        <ele>160.6</ele>
        <time>2014-01-12T10:39:33Z</time>
      </trkpt>
      <trkpt lat="43.48733" lon="6.08069">
        <ele>163.2</ele>
        <time>2014-01-12T10:39:51Z</time>
      </trkpt>
      <trkpt lat="43.48741" lon="6.08073">
        <ele>166.6</ele>
        <time>2014-01-12T10:40:17Z</time>
      </trkpt>
      <trkpt lat="43.48741" lon="6.08074">
        <ele>166.8</ele>
        <time>2014-01-12T10:40:18Z</time>
      </trkpt>
      <trkpt lat="43.48751" lon="6.08055">
        <ele>171.3</ele>
        <time>2014-01-12T10:40:56Z</time>
      </trkpt>
      <trkpt lat="43.48753" lon="6.08043">
        <ele>171.7</ele>
        <time>2014-01-12T10:41:02Z</time>
      </trkpt>
      <trkpt lat="43.48757" lon="6.08033">
        <ele>171</ele>
        <time>2014-01-12T10:41:08Z</time>
      </trkpt>
      <trkpt lat="43.48764" lon="6.08039">
        <ele>170.3</ele>
        <time>2014-01-12T10:41:16Z</time>
      </trkpt>
      <trkpt lat="43.48771" lon="6.08045">
        <ele>170.9</ele>
        <time>2014-01-12T10:41:22Z</time>
      </trkpt>
      <trkpt lat="43.48772" lon="6.08046">
        <ele>170.6</ele>
        <time>2014-01-12T10:41:23Z</time>
      </trkpt>
      <trkpt lat="43.48768" lon="6.0806">
        <ele>172.3</ele>
        <time>2014-01-12T10:41:52Z</time>
      </trkpt>
      <trkpt lat="43.4876" lon="6.08053">
        <ele>172</ele>
        <time>2014-01-12T10:42:49Z</time>
      </trkpt>
      <trkpt lat="43.48717" lon="6.08048">
        <ele>172.4</ele>
        <time>2014-01-12T10:43:47Z</time>
      </trkpt>
      <trkpt lat="43.48762" lon="6.08041">
        <ele>172.3</ele>
        <time>2014-01-12T10:43:48Z</time>
      </trkpt>
      <trkpt lat="43.48766" lon="6.08049">
        <ele>172.4</ele>
        <time>2014-01-12T10:43:49Z</time>
      </trkpt>
      <trkpt lat="43.48764" lon="6.0806">
        <ele>172.7</ele>
        <time>2014-01-12T10:43:52Z</time>
      </trkpt>
      <trkpt lat="43.48758" lon="6.08069">
        <ele>172.4</ele>
        <time>2014-01-12T10:44:13Z</time>
      </trkpt>
      <trkpt lat="43.48766" lon="6.08065">
        <ele>172.2</ele>
        <time>2014-01-12T10:44:46Z</time>
      </trkpt>
      <trkpt lat="43.48774" lon="6.08064">
        <ele>171.3</ele>
        <time>2014-01-12T10:44:55Z</time>
      </trkpt>
      <trkpt lat="43.48775" lon="6.08063">
        <ele>171.4</ele>
        <time>2014-01-12T10:44:56Z</time>
      </trkpt>
      <trkpt lat="43.48785" lon="6.08045">
        <ele>170</ele>
        <time>2014-01-12T10:45:21Z</time>
      </trkpt>
      <trkpt lat="43.48777" lon="6.0804">
        <ele>169.6</ele>
        <time>2014-01-12T10:47:04Z</time>
      </trkpt>
      <trkpt lat="43.48777" lon="6.0804">
        <ele>169.9</ele>
        <time>2014-01-12T10:47:05Z</time>
      </trkpt>
      <trkpt lat="43.4877" lon="6.08062">
        <ele>170.5</ele>
        <time>2014-01-12T10:48:01Z</time>
      </trkpt>
      <trkpt lat="43.48778" lon="6.08056">
        <ele>168.7</ele>
        <time>2014-01-12T10:48:15Z</time>
      </trkpt>
      <trkpt lat="43.48778" lon="6.08054">
        <ele>168.7</ele>
        <time>2014-01-12T10:48:16Z</time>
      </trkpt>
      <trkpt lat="43.48788" lon="6.08038">
        <ele>167.6</ele>
        <time>2014-01-12T10:49:07Z</time>
      </trkpt>
      <trkpt lat="43.48789" lon="6.0805">
        <ele>170.2</ele>
        <time>2014-01-12T10:58:44Z</time>
      </trkpt>
      <trkpt lat="43.48788" lon="6.0805">
        <ele>170.1</ele>
        <time>2014-01-12T10:58:45Z</time>
      </trkpt>
      <trkpt lat="43.48788" lon="6.08038">
        <ele>170.3</ele>
        <time>2014-01-12T10:59:55Z</time>
      </trkpt>
      <trkpt lat="43.48786" lon="6.08039">
        <ele>171.4</ele>
        <time>2014-01-12T11:00:51Z</time>
      </trkpt>
      <trkpt lat="43.48778" lon="6.08039">
        <ele>171.8</ele>
        <time>2014-01-12T11:01:21Z</time>
      </trkpt>
      <trkpt lat="43.48777" lon="6.08039">
        <ele>171.7</ele>
        <time>2014-01-12T11:01:22Z</time>
      </trkpt>
      <trkpt lat="43.48787" lon="6.0804">
        <ele>171.2</ele>
        <time>2014-01-12T11:03:05Z</time>
      </trkpt>
      <trkpt lat="43.48795" lon="6.08043">
        <ele>171.7</ele>
        <time>2014-01-12T11:07:13Z</time>
      </trkpt>
      <trkpt lat="43.48786" lon="6.0804">
        <ele>171.2</ele>
        <time>2014-01-12T11:09:53Z</time>
      </trkpt>
      <trkpt lat="43.48789" lon="6.08039">
        <ele>171</ele>
        <time>2014-01-12T11:10:40Z</time>
      </trkpt>
      <trkpt lat="43.48786" lon="6.08028">
        <ele>173.3</ele>
        <time>2014-01-12T11:26:47Z</time>
      </trkpt>
      <trkpt lat="43.48785" lon="6.08028">
        <ele>173.2</ele>
        <time>2014-01-12T11:26:48Z</time>
      </trkpt>
      <trkpt lat="43.48793" lon="6.08035">
        <ele>172.2</ele>
        <time>2014-01-12T11:33:42Z</time>
      </trkpt>
      <trkpt lat="43.48789" lon="6.08047">
        <ele>172.5</ele>
        <time>2014-01-12T11:36:35Z</time>
      </trkpt>
      <trkpt lat="43.48785" lon="6.08035">
        <ele>173.4</ele>
        <time>2014-01-12T11:40:00Z</time>
      </trkpt>
      <trkpt lat="43.48768" lon="6.08038">
        <ele>175</ele>
        <time>2014-01-12T11:41:02Z</time>
      </trkpt>
      <trkpt lat="43.48767" lon="6.08038">
        <ele>174.8</ele>
        <time>2014-01-12T11:41:03Z</time>
      </trkpt>
      <trkpt lat="43.48751" lon="6.08037">
        <ele>175</ele>
        <time>2014-01-12T11:41:26Z</time>
      </trkpt>
      <trkpt lat="43.48746" lon="6.08047">
        <ele>175.9</ele>
        <time>2014-01-12T11:42:11Z</time>
      </trkpt>
      <trkpt lat="43.48745" lon="6.08047">
        <ele>175.8</ele>
        <time>2014-01-12T11:42:12Z</time>
      </trkpt>
      <trkpt lat="43.48745" lon="6.08071">
        <ele>172.4</ele>
        <time>2014-01-12T11:43:02Z</time>
      </trkpt>
      <trkpt lat="43.48737" lon="6.0807">
        <ele>168</ele>
        <time>2014-01-12T11:43:34Z</time>
      </trkpt>
      <trkpt lat="43.48736" lon="6.0807">
        <ele>167.9</ele>
        <time>2014-01-12T11:43:35Z</time>
      </trkpt>
      <trkpt lat="43.48739" lon="6.08092">
        <ele>164.4</ele>
        <time>2014-01-12T11:44:13Z</time>
      </trkpt>
      <trkpt lat="43.4874" lon="6.08104">
        <ele>164.7</ele>
        <time>2014-01-12T11:44:24Z</time>
      </trkpt>
      <trkpt lat="43.48747" lon="6.08104">
        <ele>164.5</ele>
        <time>2014-01-12T11:44:29Z</time>
      </trkpt>
      <trkpt lat="43.48755" lon="6.08105">
        <ele>164.5</ele>
        <time>2014-01-12T11:44:34Z</time>
      </trkpt>
      <trkpt lat="43.48762" lon="6.08113">
        <ele>165.1</ele>
        <time>2014-01-12T11:44:45Z</time>
      </trkpt>
      <trkpt lat="43.48764" lon="6.08115">
        <ele>165</ele>
        <time>2014-01-12T11:44:46Z</time>
      </trkpt>
      <trkpt lat="43.48774" lon="6.08131">
        <ele>166.4</ele>
        <time>2014-01-12T11:45:19Z</time>
      </trkpt>
      <trkpt lat="43.48778" lon="6.0814">
        <ele>166.9</ele>
        <time>2014-01-12T11:45:25Z</time>
      </trkpt>
      <trkpt lat="43.48786" lon="6.0814">
        <ele>167.1</ele>
        <time>2014-01-12T11:46:01Z</time>
      </trkpt>
      <trkpt lat="43.48787" lon="6.08141">
        <ele>167.2</ele>
        <time>2014-01-12T11:46:02Z</time>
      </trkpt>
      <trkpt lat="43.48773" lon="6.08126">
        <ele>166.1</ele>
        <time>2014-01-12T11:47:11Z</time>
      </trkpt>
      <trkpt lat="43.48772" lon="6.08126">
        <ele>166</ele>
        <time>2014-01-12T11:47:12Z</time>
      </trkpt>
      <trkpt lat="43.48759" lon="6.08112">
        <ele>165.5</ele>
        <time>2014-01-12T11:47:26Z</time>
      </trkpt>
      <trkpt lat="43.48751" lon="6.08111">
        <ele>164.9</ele>
        <time>2014-01-12T11:47:35Z</time>
      </trkpt>
      <trkpt lat="43.48742" lon="6.08108">
        <ele>165</ele>
        <time>2014-01-12T11:47:44Z</time>
      </trkpt>
      <trkpt lat="43.48735" lon="6.08101">
        <ele>165.2</ele>
        <time>2014-01-12T11:47:54Z</time>
      </trkpt>
      <trkpt lat="43.48731" lon="6.08092">
        <ele>165.4</ele>
        <time>2014-01-12T11:48:06Z</time>
      </trkpt>
      <trkpt lat="43.48725" lon="6.08084">
        <ele>165.7</ele>
        <time>2014-01-12T11:48:17Z</time>
      </trkpt>
      <trkpt lat="43.48724" lon="6.08083">
        <ele>165.8</ele>
        <time>2014-01-12T11:48:18Z</time>
      </trkpt>
      <trkpt lat="43.4872" lon="6.08061">
        <ele>167.5</ele>
        <time>2014-01-12T11:48:47Z</time>
      </trkpt>
      <trkpt lat="43.48722" lon="6.08051">
        <ele>167.7</ele>
        <time>2014-01-12T11:48:54Z</time>
      </trkpt>
      <trkpt lat="43.48722" lon="6.0804">
        <ele>167.8</ele>
        <time>2014-01-12T11:49:01Z</time>
      </trkpt>
      <trkpt lat="43.48718" lon="6.08029">
        <ele>167.8</ele>
        <time>2014-01-12T11:49:08Z</time>
      </trkpt>
      <trkpt lat="43.48711" lon="6.08027">
        <ele>167.9</ele>
        <time>2014-01-12T11:49:12Z</time>
      </trkpt>
      <trkpt lat="43.48702" lon="6.08025">
        <ele>167.8</ele>
        <time>2014-01-12T11:49:17Z</time>
      </trkpt>
      <trkpt lat="43.48695" lon="6.08028">
        <ele>167.3</ele>
        <time>2014-01-12T11:49:23Z</time>
      </trkpt>
      <trkpt lat="43.48692" lon="6.08028">
        <ele>167.3</ele>
        <time>2014-01-12T11:49:24Z</time>
      </trkpt>
      <trkpt lat="43.48679" lon="6.08026">
        <ele>166.9</ele>
        <time>2014-01-12T11:49:33Z</time>
      </trkpt>
      <trkpt lat="43.48671" lon="6.08021">
        <ele>166.9</ele>
        <time>2014-01-12T11:49:40Z</time>
      </trkpt>
      <trkpt lat="43.48663" lon="6.08017">
        <ele>167.2</ele>
        <time>2014-01-12T11:49:48Z</time>
      </trkpt>
      <trkpt lat="43.48655" lon="6.08014">
        <ele>166.7</ele>
        <time>2014-01-12T11:49:53Z</time>
      </trkpt>
      <trkpt lat="43.48648" lon="6.08017">
        <ele>166.9</ele>
        <time>2014-01-12T11:49:56Z</time>
      </trkpt>
      <trkpt lat="43.48641" lon="6.08023">
        <ele>167.2</ele>
        <time>2014-01-12T11:50:01Z</time>
      </trkpt>
      <trkpt lat="43.48633" lon="6.08027">
        <ele>166.8</ele>
        <time>2014-01-12T11:50:10Z</time>
      </trkpt>
      <trkpt lat="43.48625" lon="6.08031">
        <ele>167.1</ele>
        <time>2014-01-12T11:50:18Z</time>
      </trkpt>
      <trkpt lat="43.4862" lon="6.08039">
        <ele>167.1</ele>
        <time>2014-01-12T11:50:27Z</time>
      </trkpt>
      <trkpt lat="43.48619" lon="6.0804">
        <ele>167</ele>
        <time>2014-01-12T11:50:28Z</time>
      </trkpt>
      <trkpt lat="43.48606" lon="6.08052">
        <ele>166.9</ele>
        <time>2014-01-12T11:50:43Z</time>
      </trkpt>
      <trkpt lat="43.48599" lon="6.08059">
        <ele>166</ele>
        <time>2014-01-12T11:50:55Z</time>
      </trkpt>
      <trkpt lat="43.48598" lon="6.0807">
        <ele>165.5</ele>
        <time>2014-01-12T11:51:17Z</time>
      </trkpt>
      <trkpt lat="43.48589" lon="6.0807">
        <ele>165</ele>
        <time>2014-01-12T11:51:38Z</time>
      </trkpt>
      <trkpt lat="43.48588" lon="6.08071">
        <ele>165</ele>
        <time>2014-01-12T11:51:39Z</time>
      </trkpt>
      <trkpt lat="43.48572" lon="6.08073">
        <ele>164.9</ele>
        <time>2014-01-12T11:51:55Z</time>
      </trkpt>
      <trkpt lat="43.4857" lon="6.08084">
        <ele>164.2</ele>
        <time>2014-01-12T11:52:35Z</time>
      </trkpt>
      <trkpt lat="43.48565" lon="6.08093">
        <ele>164.7</ele>
        <time>2014-01-12T11:53:22Z</time>
      </trkpt>
      <trkpt lat="43.48564" lon="6.08095">
        <ele>164.9</ele>
        <time>2014-01-12T11:53:23Z</time>
      </trkpt>
      <trkpt lat="43.48551" lon="6.08081">
        <ele>164.1</ele>
        <time>2014-01-12T11:54:07Z</time>
      </trkpt>
      <trkpt lat="43.48542" lon="6.08079">
        <ele>164.9</ele>
        <time>2014-01-12T11:54:55Z</time>
      </trkpt>
      <trkpt lat="43.48541" lon="6.08079">
        <ele>165.1</ele>
        <time>2014-01-12T11:54:56Z</time>
      </trkpt>
      <trkpt lat="43.48526" lon="6.08082">
        <ele>163.9</ele>
        <time>2014-01-12T11:55:10Z</time>
      </trkpt>
      <trkpt lat="43.48518" lon="6.08082">
        <ele>164.3</ele>
        <time>2014-01-12T11:55:16Z</time>
      </trkpt>
      <trkpt lat="43.4851" lon="6.08084">
        <ele>164.2</ele>
        <time>2014-01-12T11:55:24Z</time>
      </trkpt>
      <trkpt lat="43.48501" lon="6.08085">
        <ele>164.3</ele>
        <time>2014-01-12T11:55:36Z</time>
      </trkpt>
      <trkpt lat="43.48493" lon="6.08083">
        <ele>164.7</ele>
        <time>2014-01-12T11:55:48Z</time>
      </trkpt>
      <trkpt lat="43.48485" lon="6.08078">
        <ele>164.8</ele>
        <time>2014-01-12T11:55:57Z</time>
      </trkpt>
      <trkpt lat="43.48484" lon="6.08078">
        <ele>164.7</ele>
        <time>2014-01-12T11:55:58Z</time>
      </trkpt>
      <trkpt lat="43.48468" lon="6.08085">
        <ele>165.9</ele>
        <time>2014-01-12T11:56:15Z</time>
      </trkpt>
      <trkpt lat="43.48464" lon="6.08095">
        <ele>166.7</ele>
        <time>2014-01-12T11:56:24Z</time>
      </trkpt>
      <trkpt lat="43.48463" lon="6.08107">
        <ele>167.6</ele>
        <time>2014-01-12T11:56:33Z</time>
      </trkpt>
      <trkpt lat="43.48461" lon="6.08118">
        <ele>168</ele>
        <time>2014-01-12T11:56:40Z</time>
      </trkpt>
      <trkpt lat="43.48458" lon="6.08128">
        <ele>167.9</ele>
        <time>2014-01-12T11:56:46Z</time>
      </trkpt>
      <trkpt lat="43.48457" lon="6.0814">
        <ele>168</ele>
        <time>2014-01-12T11:56:54Z</time>
      </trkpt>
      <trkpt lat="43.48457" lon="6.08152">
        <ele>168</ele>
        <time>2014-01-12T11:57:03Z</time>
      </trkpt>
      <trkpt lat="43.48457" lon="6.08154">
        <ele>168.1</ele>
        <time>2014-01-12T11:57:04Z</time>
      </trkpt>
      <trkpt lat="43.48465" lon="6.08168">
        <ele>170.5</ele>
        <time>2014-01-12T11:57:22Z</time>
      </trkpt>
      <trkpt lat="43.48469" lon="6.08179">
        <ele>172.1</ele>
        <time>2014-01-12T11:57:35Z</time>
      </trkpt>
      <trkpt lat="43.48477" lon="6.08177">
        <ele>174</ele>
        <time>2014-01-12T11:57:51Z</time>
      </trkpt>
      <trkpt lat="43.48486" lon="6.08175">
        <ele>173.8</ele>
        <time>2014-01-12T11:57:59Z</time>
      </trkpt>
      <trkpt lat="43.48494" lon="6.08179">
        <ele>174.1</ele>
        <time>2014-01-12T11:58:09Z</time>
      </trkpt>
      <trkpt lat="43.48494" lon="6.0818">
        <ele>174.1</ele>
        <time>2014-01-12T11:58:10Z</time>
      </trkpt>
      <trkpt lat="43.4851" lon="6.08187">
        <ele>178.9</ele>
        <time>2014-01-12T11:58:41Z</time>
      </trkpt>
      <trkpt lat="43.48518" lon="6.0819">
        <ele>180.6</ele>
        <time>2014-01-12T11:58:58Z</time>
      </trkpt>
      <trkpt lat="43.48527" lon="6.08192">
        <ele>183.2</ele>
        <time>2014-01-12T11:59:14Z</time>
      </trkpt>
      <trkpt lat="43.48528" lon="6.08192">
        <ele>183.3</ele>
        <time>2014-01-12T11:59:15Z</time>
      </trkpt>
      <trkpt lat="43.48545" lon="6.08189">
        <ele>185.4</ele>
        <time>2014-01-12T11:59:42Z</time>
      </trkpt>
      <trkpt lat="43.48553" lon="6.08187">
        <ele>187</ele>
        <time>2014-01-12T12:00:01Z</time>
      </trkpt>
      <trkpt lat="43.4856" lon="6.08194">
        <ele>187.5</ele>
        <time>2014-01-12T12:00:12Z</time>
      </trkpt>
      <trkpt lat="43.48568" lon="6.08198">
        <ele>187.7</ele>
        <time>2014-01-12T12:00:23Z</time>
      </trkpt>
      <trkpt lat="43.48569" lon="6.08198">
        <ele>187.5</ele>
        <time>2014-01-12T12:00:24Z</time>
      </trkpt>
      <trkpt lat="43.48584" lon="6.08202">
        <ele>186.1</ele>
        <time>2014-01-12T12:00:48Z</time>
      </trkpt>
      <trkpt lat="43.48592" lon="6.08202">
        <ele>185.6</ele>
        <time>2014-01-12T12:01:24Z</time>
      </trkpt>
      <trkpt lat="43.48594" lon="6.08203">
        <ele>185.4</ele>
        <time>2014-01-12T12:01:25Z</time>
      </trkpt>
      <trkpt lat="43.48608" lon="6.08204">
        <ele>184.9</ele>
        <time>2014-01-12T12:01:40Z</time>
      </trkpt>
      <trkpt lat="43.48616" lon="6.08207">
        <ele>184.7</ele>
        <time>2014-01-12T12:01:48Z</time>
      </trkpt>
      <trkpt lat="43.48624" lon="6.0821">
        <ele>184.9</ele>
        <time>2014-01-12T12:01:56Z</time>
      </trkpt>
      <trkpt lat="43.48632" lon="6.08216">
        <ele>184.8</ele>
        <time>2014-01-12T12:02:04Z</time>
      </trkpt>
      <trkpt lat="43.48637" lon="6.08226">
        <ele>185</ele>
        <time>2014-01-12T12:02:12Z</time>
      </trkpt>
      <trkpt lat="43.48646" lon="6.08227">
        <ele>184.9</ele>
        <time>2014-01-12T12:02:26Z</time>
      </trkpt>
      <trkpt lat="43.48647" lon="6.08227">
        <ele>185</ele>
        <time>2014-01-12T12:02:27Z</time>
      </trkpt>
      <trkpt lat="43.48657" lon="6.08243">
        <ele>186.1</ele>
        <time>2014-01-12T12:02:46Z</time>
      </trkpt>
      <trkpt lat="43.48664" lon="6.08247">
        <ele>186.5</ele>
        <time>2014-01-12T12:02:53Z</time>
      </trkpt>
      <trkpt lat="43.48672" lon="6.08251">
        <ele>187.2</ele>
        <time>2014-01-12T12:03:01Z</time>
      </trkpt>
      <trkpt lat="43.48679" lon="6.08255">
        <ele>187.9</ele>
        <time>2014-01-12T12:03:07Z</time>
      </trkpt>
      <trkpt lat="43.48686" lon="6.08261">
        <ele>187.1</ele>
        <time>2014-01-12T12:03:18Z</time>
      </trkpt>
      <trkpt lat="43.48693" lon="6.08268">
        <ele>187.4</ele>
        <time>2014-01-12T12:03:26Z</time>
      </trkpt>
      <trkpt lat="43.48701" lon="6.08273">
        <ele>186.6</ele>
        <time>2014-01-12T12:03:38Z</time>
      </trkpt>
      <trkpt lat="43.48702" lon="6.08273">
        <ele>186.7</ele>
        <time>2014-01-12T12:03:39Z</time>
      </trkpt>
      <trkpt lat="43.48716" lon="6.08283">
        <ele>186.4</ele>
        <time>2014-01-12T12:03:57Z</time>
      </trkpt>
      <trkpt lat="43.48724" lon="6.08283">
        <ele>186</ele>
        <time>2014-01-12T12:04:04Z</time>
      </trkpt>
      <trkpt lat="43.48732" lon="6.08281">
        <ele>186.3</ele>
        <time>2014-01-12T12:04:12Z</time>
      </trkpt>
      <trkpt lat="43.48741" lon="6.08282">
        <ele>186</ele>
        <time>2014-01-12T12:04:20Z</time>
      </trkpt>
      <trkpt lat="43.48749" lon="6.08282">
        <ele>185.6</ele>
        <time>2014-01-12T12:04:26Z</time>
      </trkpt>
      <trkpt lat="43.48758" lon="6.08279">
        <ele>186.8</ele>
        <time>2014-01-12T12:04:39Z</time>
      </trkpt>
      <trkpt lat="43.48758" lon="6.08279">
        <ele>186.5</ele>
        <time>2014-01-12T12:04:40Z</time>
      </trkpt>
      <trkpt lat="43.48772" lon="6.08265">
        <ele>185.3</ele>
        <time>2014-01-12T12:04:59Z</time>
      </trkpt>
      <trkpt lat="43.48777" lon="6.08255">
        <ele>185.4</ele>
        <time>2014-01-12T12:05:14Z</time>
      </trkpt>
      <trkpt lat="43.48786" lon="6.08256">
        <ele>185.8</ele>
        <time>2014-01-12T12:05:56Z</time>
      </trkpt>
      <trkpt lat="43.48786" lon="6.08256">
        <ele>185.8</ele>
        <time>2014-01-12T12:05:57Z</time>
      </trkpt>
      <trkpt lat="43.48798" lon="6.08241">
        <ele>184.3</ele>
        <time>2014-01-12T12:06:36Z</time>
      </trkpt>
      <trkpt lat="43.48805" lon="6.08249">
        <ele>187</ele>
        <time>2014-01-12T12:07:14Z</time>
      </trkpt>
      <trkpt lat="43.48805" lon="6.08249">
        <ele>187</ele>
        <time>2014-01-12T12:07:15Z</time>
      </trkpt>
      <trkpt lat="43.48814" lon="6.08246">
        <ele>185.5</ele>
        <time>2014-01-12T12:09:01Z</time>
      </trkpt>
      <trkpt lat="43.48831" lon="6.08252">
        <ele>182.2</ele>
        <time>2014-01-12T12:09:56Z</time>
      </trkpt>
      <trkpt lat="43.48838" lon="6.08258">
        <ele>181</ele>
        <time>2014-01-12T12:10:24Z</time>
      </trkpt>
      <trkpt lat="43.48839" lon="6.08259">
        <ele>180.9</ele>
        <time>2014-01-12T12:10:25Z</time>
      </trkpt>
      <trkpt lat="43.48848" lon="6.08277">
        <ele>178.8</ele>
        <time>2014-01-12T12:10:37Z</time>
      </trkpt>
      <trkpt lat="43.48856" lon="6.08273">
        <ele>176.4</ele>
        <time>2014-01-12T12:10:48Z</time>
      </trkpt>
      <trkpt lat="43.48861" lon="6.08264">
        <ele>175.7</ele>
        <time>2014-01-12T12:10:59Z</time>
      </trkpt>
      <trkpt lat="43.4887" lon="6.08266">
        <ele>175.7</ele>
        <time>2014-01-12T12:11:21Z</time>
      </trkpt>
      <trkpt lat="43.48877" lon="6.08274">
        <ele>176.4</ele>
        <time>2014-01-12T12:11:42Z</time>
      </trkpt>
      <trkpt lat="43.48877" lon="6.08275">
        <ele>176.7</ele>
        <time>2014-01-12T12:11:43Z</time>
      </trkpt>
      <trkpt lat="43.48887" lon="6.08291">
        <ele>176.8</ele>
        <time>2014-01-12T12:11:57Z</time>
      </trkpt>
      <trkpt lat="43.48893" lon="6.08301">
        <ele>176.9</ele>
        <time>2014-01-12T12:12:04Z</time>
      </trkpt>
      <trkpt lat="43.48898" lon="6.0831">
        <ele>176.6</ele>
        <time>2014-01-12T12:12:12Z</time>
      </trkpt>
      <trkpt lat="43.48902" lon="6.08319">
        <ele>177.2</ele>
        <time>2014-01-12T12:12:20Z</time>
      </trkpt>
      <trkpt lat="43.48906" lon="6.08329">
        <ele>177.7</ele>
        <time>2014-01-12T12:12:27Z</time>
      </trkpt>
      <trkpt lat="43.48911" lon="6.08339">
        <ele>178.4</ele>
        <time>2014-01-12T12:12:38Z</time>
      </trkpt>
      <trkpt lat="43.48919" lon="6.08344">
        <ele>179.6</ele>
        <time>2014-01-12T12:12:56Z</time>
      </trkpt>
      <trkpt lat="43.4892" lon="6.08345">
        <ele>179.8</ele>
        <time>2014-01-12T12:12:57Z</time>
      </trkpt>
      <trkpt lat="43.48932" lon="6.08357">
        <ele>181.8</ele>
        <time>2014-01-12T12:13:14Z</time>
      </trkpt>
      <trkpt lat="43.48938" lon="6.08365">
        <ele>182.3</ele>
        <time>2014-01-12T12:13:25Z</time>
      </trkpt>
      <trkpt lat="43.48947" lon="6.08369">
        <ele>182.2</ele>
        <time>2014-01-12T12:13:34Z</time>
      </trkpt>
      <trkpt lat="43.48954" lon="6.08375">
        <ele>182.7</ele>
        <time>2014-01-12T12:13:43Z</time>
      </trkpt>
      <trkpt lat="43.4896" lon="6.08383">
        <ele>182.9</ele>
        <time>2014-01-12T12:13:53Z</time>
      </trkpt>
      <trkpt lat="43.48964" lon="6.08392">
        <ele>183</ele>
        <time>2014-01-12T12:14:00Z</time>
      </trkpt>
      <trkpt lat="43.48965" lon="6.08393">
        <ele>183.3</ele>
        <time>2014-01-12T12:14:01Z</time>
      </trkpt>
      <trkpt lat="43.48977" lon="6.08407">
        <ele>183.3</ele>
        <time>2014-01-12T12:14:15Z</time>
      </trkpt>
      <trkpt lat="43.48983" lon="6.08416">
        <ele>184.8</ele>
        <time>2014-01-12T12:14:23Z</time>
      </trkpt>
      <trkpt lat="43.48989" lon="6.08425">
        <ele>185.3</ele>
        <time>2014-01-12T12:14:31Z</time>
      </trkpt>
      <trkpt lat="43.48993" lon="6.08435">
        <ele>186.7</ele>
        <time>2014-01-12T12:14:39Z</time>
      </trkpt>
      <trkpt lat="43.48998" lon="6.08446">
        <ele>188</ele>
        <time>2014-01-12T12:14:48Z</time>
      </trkpt>
      <trkpt lat="43.49003" lon="6.08454">
        <ele>188.9</ele>
        <time>2014-01-12T12:14:58Z</time>
      </trkpt>
      <trkpt lat="43.49007" lon="6.08464">
        <ele>189.8</ele>
        <time>2014-01-12T12:15:07Z</time>
      </trkpt>
      <trkpt lat="43.49007" lon="6.08466">
        <ele>189.9</ele>
        <time>2014-01-12T12:15:08Z</time>
      </trkpt>
      <trkpt lat="43.49015" lon="6.08484">
        <ele>191.9</ele>
        <time>2014-01-12T12:15:23Z</time>
      </trkpt>
      <trkpt lat="43.49021" lon="6.08493">
        <ele>193.4</ele>
        <time>2014-01-12T12:15:32Z</time>
      </trkpt>
      <trkpt lat="43.49027" lon="6.08501">
        <ele>194</ele>
        <time>2014-01-12T12:15:39Z</time>
      </trkpt>
      <trkpt lat="43.49032" lon="6.08511">
        <ele>194.6</ele>
        <time>2014-01-12T12:15:47Z</time>
      </trkpt>
      <trkpt lat="43.49035" lon="6.08522">
        <ele>195.4</ele>
        <time>2014-01-12T12:15:55Z</time>
      </trkpt>
      <trkpt lat="43.49038" lon="6.08532">
        <ele>196.2</ele>
        <time>2014-01-12T12:16:03Z</time>
      </trkpt>
      <trkpt lat="43.49043" lon="6.08541">
        <ele>196.3</ele>
        <time>2014-01-12T12:16:10Z</time>
      </trkpt>
      <trkpt lat="43.49044" lon="6.08542">
        <ele>196.7</ele>
        <time>2014-01-12T12:16:11Z</time>
      </trkpt>
      <trkpt lat="43.49054" lon="6.0856">
        <ele>198</ele>
        <time>2014-01-12T12:16:30Z</time>
      </trkpt>
      <trkpt lat="43.4905" lon="6.08571">
        <ele>198</ele>
        <time>2014-01-12T12:17:08Z</time>
      </trkpt>
      <trkpt lat="43.49056" lon="6.08563">
        <ele>198.7</ele>
        <time>2014-01-12T12:18:09Z</time>
      </trkpt>
      <trkpt lat="43.49057" lon="6.08563">
        <ele>198.5</ele>
        <time>2014-01-12T12:18:10Z</time>
      </trkpt>
      <trkpt lat="43.4907" lon="6.08575">
        <ele>200.8</ele>
        <time>2014-01-12T12:18:44Z</time>
      </trkpt>
      <trkpt lat="43.49077" lon="6.08583">
        <ele>202.1</ele>
        <time>2014-01-12T12:18:53Z</time>
      </trkpt>
      <trkpt lat="43.49078" lon="6.08594">
        <ele>202.1</ele>
        <time>2014-01-12T12:19:01Z</time>
      </trkpt>
      <trkpt lat="43.49077" lon="6.08605">
        <ele>202.5</ele>
        <time>2014-01-12T12:19:08Z</time>
      </trkpt>
      <trkpt lat="43.49081" lon="6.08615">
        <ele>202.4</ele>
        <time>2014-01-12T12:19:24Z</time>
      </trkpt>
      <trkpt lat="43.49081" lon="6.08616">
        <ele>202.6</ele>
        <time>2014-01-12T12:19:25Z</time>
      </trkpt>
      <trkpt lat="43.49078" lon="6.08629">
        <ele>203.2</ele>
        <time>2014-01-12T12:20:45Z</time>
      </trkpt>
      <trkpt lat="43.49078" lon="6.08632">
        <ele>203.3</ele>
        <time>2014-01-12T12:20:46Z</time>
      </trkpt>
      <trkpt lat="43.49081" lon="6.08652">
        <ele>203.8</ele>
        <time>2014-01-12T12:20:56Z</time>
      </trkpt>
      <trkpt lat="43.49086" lon="6.08662">
        <ele>205.1</ele>
        <time>2014-01-12T12:21:04Z</time>
      </trkpt>
      <trkpt lat="43.4909" lon="6.08672">
        <ele>207.1</ele>
        <time>2014-01-12T12:21:13Z</time>
      </trkpt>
      <trkpt lat="43.49093" lon="6.08683">
        <ele>208.7</ele>
        <time>2014-01-12T12:21:21Z</time>
      </trkpt>
      <trkpt lat="43.49099" lon="6.08693">
        <ele>210.5</ele>
        <time>2014-01-12T12:21:28Z</time>
      </trkpt>
      <trkpt lat="43.49105" lon="6.08699">
        <ele>211.9</ele>
        <time>2014-01-12T12:21:34Z</time>
      </trkpt>
      <trkpt lat="43.49113" lon="6.08694">
        <ele>214.2</ele>
        <time>2014-01-12T12:21:43Z</time>
      </trkpt>
      <trkpt lat="43.49121" lon="6.08693">
        <ele>214.9</ele>
        <time>2014-01-12T12:21:50Z</time>
      </trkpt>
      <trkpt lat="43.49122" lon="6.08694">
        <ele>215</ele>
        <time>2014-01-12T12:21:51Z</time>
      </trkpt>
      <trkpt lat="43.49135" lon="6.08707">
        <ele>217.8</ele>
        <time>2014-01-12T12:22:07Z</time>
      </trkpt>
      <trkpt lat="43.49142" lon="6.08714">
        <ele>218.7</ele>
        <time>2014-01-12T12:22:14Z</time>
      </trkpt>
      <trkpt lat="43.49148" lon="6.0872">
        <ele>219.6</ele>
        <time>2014-01-12T12:22:21Z</time>
      </trkpt>
      <trkpt lat="43.49156" lon="6.08722">
        <ele>220.2</ele>
        <time>2014-01-12T12:22:26Z</time>
      </trkpt>
      <trkpt lat="43.49163" lon="6.08729">
        <ele>220.2</ele>
        <time>2014-01-12T12:22:32Z</time>
      </trkpt>
      <trkpt lat="43.4917" lon="6.08735">
        <ele>220.4</ele>
        <time>2014-01-12T12:22:37Z</time>
      </trkpt>
      <trkpt lat="43.49178" lon="6.08741">
        <ele>220.9</ele>
        <time>2014-01-12T12:22:50Z</time>
      </trkpt>
      <trkpt lat="43.49184" lon="6.08748">
        <ele>220.7</ele>
        <time>2014-01-12T12:22:58Z</time>
      </trkpt>
      <trkpt lat="43.49185" lon="6.0875">
        <ele>220.6</ele>
        <time>2014-01-12T12:22:59Z</time>
      </trkpt>
      <trkpt lat="43.49194" lon="6.08768">
        <ele>220.6</ele>
        <time>2014-01-12T12:23:15Z</time>
      </trkpt>
      <trkpt lat="43.49199" lon="6.08777">
        <ele>220.5</ele>
        <time>2014-01-12T12:23:23Z</time>
      </trkpt>
      <trkpt lat="43.49204" lon="6.08786">
        <ele>220.7</ele>
        <time>2014-01-12T12:23:31Z</time>
      </trkpt>
      <trkpt lat="43.49209" lon="6.08795">
        <ele>220.9</ele>
        <time>2014-01-12T12:23:38Z</time>
      </trkpt>
      <trkpt lat="43.49213" lon="6.08805">
        <ele>221.5</ele>
        <time>2014-01-12T12:23:45Z</time>
      </trkpt>
      <trkpt lat="43.49217" lon="6.08816">
        <ele>221.5</ele>
        <time>2014-01-12T12:23:52Z</time>
      </trkpt>
      <trkpt lat="43.49223" lon="6.08823">
        <ele>221.9</ele>
        <time>2014-01-12T12:23:59Z</time>
      </trkpt>
      <trkpt lat="43.49224" lon="6.08825">
        <ele>221.9</ele>
        <time>2014-01-12T12:24:00Z</time>
      </trkpt>
      <trkpt lat="43.49234" lon="6.08841">
        <ele>223.2</ele>
        <time>2014-01-12T12:24:13Z</time>
      </trkpt>
      <trkpt lat="43.49238" lon="6.08851">
        <ele>224.2</ele>
        <time>2014-01-12T12:24:22Z</time>
      </trkpt>
      <trkpt lat="43.49243" lon="6.08861">
        <ele>225.6</ele>
        <time>2014-01-12T12:24:30Z</time>
      </trkpt>
      <trkpt lat="43.49248" lon="6.0887">
        <ele>227.3</ele>
        <time>2014-01-12T12:24:39Z</time>
      </trkpt>
      <trkpt lat="43.49245" lon="6.08882">
        <ele>228.2</ele>
        <time>2014-01-12T12:24:46Z</time>
      </trkpt>
      <trkpt lat="43.49243" lon="6.08894">
        <ele>230</ele>
        <time>2014-01-12T12:24:54Z</time>
      </trkpt>
      <trkpt lat="43.4924" lon="6.08904">
        <ele>231.6</ele>
        <time>2014-01-12T12:25:05Z</time>
      </trkpt>
      <trkpt lat="43.4924" lon="6.08906">
        <ele>231.8</ele>
        <time>2014-01-12T12:25:06Z</time>
      </trkpt>
      <trkpt lat="43.49235" lon="6.08926">
        <ele>234</ele>
        <time>2014-01-12T12:25:24Z</time>
      </trkpt>
      <trkpt lat="43.49234" lon="6.08938">
        <ele>235.1</ele>
        <time>2014-01-12T12:25:31Z</time>
      </trkpt>
      <trkpt lat="43.49232" lon="6.0895">
        <ele>236.1</ele>
        <time>2014-01-12T12:25:41Z</time>
      </trkpt>
      <trkpt lat="43.49229" lon="6.0896">
        <ele>236.9</ele>
        <time>2014-01-12T12:25:49Z</time>
      </trkpt>
      <trkpt lat="43.49227" lon="6.08971">
        <ele>236.7</ele>
        <time>2014-01-12T12:25:56Z</time>
      </trkpt>
      <trkpt lat="43.49224" lon="6.08982">
        <ele>237.9</ele>
        <time>2014-01-12T12:26:04Z</time>
      </trkpt>
      <trkpt lat="43.49225" lon="6.08993">
        <ele>238</ele>
        <time>2014-01-12T12:26:11Z</time>
      </trkpt>
      <trkpt lat="43.49225" lon="6.08995">
        <ele>238.1</ele>
        <time>2014-01-12T12:26:12Z</time>
      </trkpt>
      <trkpt lat="43.49232" lon="6.09015">
        <ele>239.1</ele>
        <time>2014-01-12T12:26:27Z</time>
      </trkpt>
      <trkpt lat="43.49236" lon="6.09024">
        <ele>239.2</ele>
        <time>2014-01-12T12:26:33Z</time>
      </trkpt>
      <trkpt lat="43.49243" lon="6.0903">
        <ele>239.5</ele>
        <time>2014-01-12T12:26:39Z</time>
      </trkpt>
      <trkpt lat="43.4925" lon="6.09037">
        <ele>239.5</ele>
        <time>2014-01-12T12:26:46Z</time>
      </trkpt>
      <trkpt lat="43.49253" lon="6.09049">
        <ele>240.2</ele>
        <time>2014-01-12T12:26:55Z</time>
      </trkpt>
      <trkpt lat="43.49257" lon="6.09059">
        <ele>241.6</ele>
        <time>2014-01-12T12:27:09Z</time>
      </trkpt>
      <trkpt lat="43.49263" lon="6.09068">
        <ele>242.2</ele>
        <time>2014-01-12T12:27:19Z</time>
      </trkpt>
      <trkpt lat="43.49263" lon="6.09069">
        <ele>242.5</ele>
        <time>2014-01-12T12:27:20Z</time>
      </trkpt>
      <trkpt lat="43.49273" lon="6.09087">
        <ele>243.6</ele>
        <time>2014-01-12T12:27:36Z</time>
      </trkpt>
      <trkpt lat="43.49279" lon="6.09096">
        <ele>244.7</ele>
        <time>2014-01-12T12:27:46Z</time>
      </trkpt>
      <trkpt lat="43.49285" lon="6.09105">
        <ele>245.3</ele>
        <time>2014-01-12T12:27:55Z</time>
      </trkpt>
      <trkpt lat="43.49288" lon="6.09116">
        <ele>247</ele>
        <time>2014-01-12T12:28:08Z</time>
      </trkpt>
      <trkpt lat="43.4929" lon="6.09128">
        <ele>248.5</ele>
        <time>2014-01-12T12:28:20Z</time>
      </trkpt>
      <trkpt lat="43.4929" lon="6.09129">
        <ele>248.6</ele>
        <time>2014-01-12T12:28:21Z</time>
      </trkpt>
      <trkpt lat="43.49292" lon="6.09151">
        <ele>249.9</ele>
        <time>2014-01-12T12:28:37Z</time>
      </trkpt>
      <trkpt lat="43.49293" lon="6.09163">
        <ele>250.4</ele>
        <time>2014-01-12T12:28:45Z</time>
      </trkpt>
      <trkpt lat="43.49296" lon="6.09173">
        <ele>251.2</ele>
        <time>2014-01-12T12:28:52Z</time>
      </trkpt>
      <trkpt lat="43.49296" lon="6.09185">
        <ele>251.8</ele>
        <time>2014-01-12T12:29:00Z</time>
      </trkpt>
      <trkpt lat="43.49295" lon="6.09196">
        <ele>252.1</ele>
        <time>2014-01-12T12:29:11Z</time>
      </trkpt>
      <trkpt lat="43.49296" lon="6.09209">
        <ele>252.2</ele>
        <time>2014-01-12T12:29:22Z</time>
      </trkpt>
      <trkpt lat="43.49296" lon="6.0921">
        <ele>252.4</ele>
        <time>2014-01-12T12:29:23Z</time>
      </trkpt>
      <trkpt lat="43.493" lon="6.09231">
        <ele>252</ele>
        <time>2014-01-12T12:29:45Z</time>
      </trkpt>
      <trkpt lat="43.49302" lon="6.09243">
        <ele>252.2</ele>
        <time>2014-01-12T12:29:57Z</time>
      </trkpt>
      <trkpt lat="43.49304" lon="6.09255">
        <ele>251.8</ele>
        <time>2014-01-12T12:30:29Z</time>
      </trkpt>
      <trkpt lat="43.49304" lon="6.09255">
        <ele>251.8</ele>
        <time>2014-01-12T12:30:30Z</time>
      </trkpt>
      <trkpt lat="43.49307" lon="6.09268">
        <ele>251.6</ele>
        <time>2014-01-12T12:31:50Z</time>
      </trkpt>
      <trkpt lat="43.49311" lon="6.09289">
        <ele>252.7</ele>
        <time>2014-01-12T12:32:07Z</time>
      </trkpt>
      <trkpt lat="43.49311" lon="6.09301">
        <ele>251.9</ele>
        <time>2014-01-12T12:32:15Z</time>
      </trkpt>
      <trkpt lat="43.49311" lon="6.09313">
        <ele>252.3</ele>
        <time>2014-01-12T12:32:24Z</time>
      </trkpt>
      <trkpt lat="43.49312" lon="6.09324">
        <ele>252.5</ele>
        <time>2014-01-12T12:32:30Z</time>
      </trkpt>
      <trkpt lat="43.49314" lon="6.09335">
        <ele>253.1</ele>
        <time>2014-01-12T12:32:37Z</time>
      </trkpt>
      <trkpt lat="43.49316" lon="6.09345">
        <ele>253.5</ele>
        <time>2014-01-12T12:32:42Z</time>
      </trkpt>
      <trkpt lat="43.49319" lon="6.09357">
        <ele>253.3</ele>
        <time>2014-01-12T12:32:52Z</time>
      </trkpt>
      <trkpt lat="43.49319" lon="6.09358">
        <ele>253.1</ele>
        <time>2014-01-12T12:32:53Z</time>
      </trkpt>
      <trkpt lat="43.49326" lon="6.09376">
        <ele>254.5</ele>
        <time>2014-01-12T12:33:12Z</time>
      </trkpt>
      <trkpt lat="43.49331" lon="6.09385">
        <ele>255</ele>
        <time>2014-01-12T12:33:20Z</time>
      </trkpt>
      <trkpt lat="43.49338" lon="6.09392">
        <ele>255.6</ele>
        <time>2014-01-12T12:33:28Z</time>
      </trkpt>
      <trkpt lat="43.49338" lon="6.09403">
        <ele>256</ele>
        <time>2014-01-12T12:33:35Z</time>
      </trkpt>
      <trkpt lat="43.49339" lon="6.09414">
        <ele>256.8</ele>
        <time>2014-01-12T12:33:42Z</time>
      </trkpt>
      <trkpt lat="43.49342" lon="6.09423">
        <ele>257.9</ele>
        <time>2014-01-12T12:33:49Z</time>
      </trkpt>
      <trkpt lat="43.49345" lon="6.09433">
        <ele>259.3</ele>
        <time>2014-01-12T12:33:57Z</time>
      </trkpt>
      <trkpt lat="43.49346" lon="6.09435">
        <ele>259.2</ele>
        <time>2014-01-12T12:33:58Z</time>
      </trkpt>
      <trkpt lat="43.49356" lon="6.09451">
        <ele>259.1</ele>
        <time>2014-01-12T12:34:17Z</time>
      </trkpt>
      <trkpt lat="43.49358" lon="6.09463">
        <ele>259</ele>
        <time>2014-01-12T12:34:24Z</time>
      </trkpt>
      <trkpt lat="43.49359" lon="6.09473">
        <ele>259.6</ele>
        <time>2014-01-12T12:34:30Z</time>
      </trkpt>
      <trkpt lat="43.4936" lon="6.09485">
        <ele>259.4</ele>
        <time>2014-01-12T12:34:42Z</time>
      </trkpt>
      <trkpt lat="43.49359" lon="6.09497">
        <ele>259.8</ele>
        <time>2014-01-12T12:34:58Z</time>
      </trkpt>
      <trkpt lat="43.49359" lon="6.09498">
        <ele>259.9</ele>
        <time>2014-01-12T12:34:59Z</time>
      </trkpt>
      <trkpt lat="43.49365" lon="6.0952">
        <ele>260</ele>
        <time>2014-01-12T12:35:13Z</time>
      </trkpt>
      <trkpt lat="43.49366" lon="6.09532">
        <ele>260.6</ele>
        <time>2014-01-12T12:35:22Z</time>
      </trkpt>
      <trkpt lat="43.49368" lon="6.09543">
        <ele>261.8</ele>
        <time>2014-01-12T12:35:29Z</time>
      </trkpt>
      <trkpt lat="43.49373" lon="6.09551">
        <ele>262.5</ele>
        <time>2014-01-12T12:35:37Z</time>
      </trkpt>
      <trkpt lat="43.4938" lon="6.09558">
        <ele>264.1</ele>
        <time>2014-01-12T12:35:46Z</time>
      </trkpt>
      <trkpt lat="43.49384" lon="6.09568">
        <ele>265.1</ele>
        <time>2014-01-12T12:35:56Z</time>
      </trkpt>
      <trkpt lat="43.49388" lon="6.09579">
        <ele>266.9</ele>
        <time>2014-01-12T12:36:05Z</time>
      </trkpt>
      <trkpt lat="43.49388" lon="6.0958">
        <ele>267.1</ele>
        <time>2014-01-12T12:36:06Z</time>
      </trkpt>
      <trkpt lat="43.49399" lon="6.09596">
        <ele>268.3</ele>
        <time>2014-01-12T12:36:19Z</time>
      </trkpt>
      <trkpt lat="43.49405" lon="6.09605">
        <ele>270</ele>
        <time>2014-01-12T12:36:28Z</time>
      </trkpt>
      <trkpt lat="43.49409" lon="6.09616">
        <ele>271.2</ele>
        <time>2014-01-12T12:36:36Z</time>
      </trkpt>
      <trkpt lat="43.49413" lon="6.09627">
        <ele>272.2</ele>
        <time>2014-01-12T12:36:43Z</time>
      </trkpt>
      <trkpt lat="43.49417" lon="6.09638">
        <ele>273.3</ele>
        <time>2014-01-12T12:36:50Z</time>
      </trkpt>
      <trkpt lat="43.49421" lon="6.09648">
        <ele>273.2</ele>
        <time>2014-01-12T12:36:57Z</time>
      </trkpt>
      <trkpt lat="43.49424" lon="6.09658">
        <ele>273.3</ele>
        <time>2014-01-12T12:37:02Z</time>
      </trkpt>
      <trkpt lat="43.49424" lon="6.09671">
        <ele>273.7</ele>
        <time>2014-01-12T12:37:10Z</time>
      </trkpt>
      <trkpt lat="43.49424" lon="6.09673">
        <ele>273.9</ele>
        <time>2014-01-12T12:37:11Z</time>
      </trkpt>
      <trkpt lat="43.49427" lon="6.09693">
        <ele>274.5</ele>
        <time>2014-01-12T12:37:24Z</time>
      </trkpt>
      <trkpt lat="43.49426" lon="6.09704">
        <ele>275.7</ele>
        <time>2014-01-12T12:37:31Z</time>
      </trkpt>
      <trkpt lat="43.49424" lon="6.09716">
        <ele>276.1</ele>
        <time>2014-01-12T12:37:39Z</time>
      </trkpt>
      <trkpt lat="43.49422" lon="6.09728">
        <ele>277</ele>
        <time>2014-01-12T12:37:48Z</time>
      </trkpt>
      <trkpt lat="43.49418" lon="6.09738">
        <ele>277.2</ele>
        <time>2014-01-12T12:37:55Z</time>
      </trkpt>
      <trkpt lat="43.49416" lon="6.09749">
        <ele>278.3</ele>
        <time>2014-01-12T12:38:04Z</time>
      </trkpt>
      <trkpt lat="43.49416" lon="6.09759">
        <ele>279.2</ele>
        <time>2014-01-12T12:38:12Z</time>
      </trkpt>
      <trkpt lat="43.49414" lon="6.09761">
        <ele>279.2</ele>
        <time>2014-01-12T12:38:13Z</time>
      </trkpt>
      <trkpt lat="43.49406" lon="6.09779">
        <ele>280.4</ele>
        <time>2014-01-12T12:38:27Z</time>
      </trkpt>
      <trkpt lat="43.49402" lon="6.09789">
        <ele>281.6</ele>
        <time>2014-01-12T12:38:35Z</time>
      </trkpt>
      <trkpt lat="43.494" lon="6.09799">
        <ele>282.6</ele>
        <time>2014-01-12T12:38:44Z</time>
      </trkpt>
      <trkpt lat="43.49399" lon="6.09811">
        <ele>283.2</ele>
        <time>2014-01-12T12:38:51Z</time>
      </trkpt>
      <trkpt lat="43.49403" lon="6.0982">
        <ele>284.1</ele>
        <time>2014-01-12T12:38:59Z</time>
      </trkpt>
      <trkpt lat="43.49408" lon="6.09829">
        <ele>284.8</ele>
        <time>2014-01-12T12:39:06Z</time>
      </trkpt>
      <trkpt lat="43.49415" lon="6.09835">
        <ele>286.2</ele>
        <time>2014-01-12T12:39:14Z</time>
      </trkpt>
      <trkpt lat="43.49416" lon="6.09836">
        <ele>286.3</ele>
        <time>2014-01-12T12:39:15Z</time>
      </trkpt>
      <trkpt lat="43.49423" lon="6.09854">
        <ele>287.6</ele>
        <time>2014-01-12T12:39:29Z</time>
      </trkpt>
      <trkpt lat="43.49423" lon="6.09867">
        <ele>289.5</ele>
        <time>2014-01-12T12:39:40Z</time>
      </trkpt>
      <trkpt lat="43.49421" lon="6.09878">
        <ele>291</ele>
        <time>2014-01-12T12:39:52Z</time>
      </trkpt>
      <trkpt lat="43.49419" lon="6.09889">
        <ele>291.8</ele>
        <time>2014-01-12T12:40:01Z</time>
      </trkpt>
      <trkpt lat="43.49417" lon="6.099">
        <ele>292.1</ele>
        <time>2014-01-12T12:40:10Z</time>
      </trkpt>
      <trkpt lat="43.49414" lon="6.09912">
        <ele>293.5</ele>
        <time>2014-01-12T12:40:21Z</time>
      </trkpt>
      <trkpt lat="43.49414" lon="6.09913">
        <ele>293.4</ele>
        <time>2014-01-12T12:40:22Z</time>
      </trkpt>
      <trkpt lat="43.49409" lon="6.09934">
        <ele>296.8</ele>
        <time>2014-01-12T12:40:44Z</time>
      </trkpt>
      <trkpt lat="43.49408" lon="6.09946">
        <ele>298.2</ele>
        <time>2014-01-12T12:40:52Z</time>
      </trkpt>
      <trkpt lat="43.49412" lon="6.09956">
        <ele>299.5</ele>
        <time>2014-01-12T12:41:02Z</time>
      </trkpt>
      <trkpt lat="43.49416" lon="6.09966">
        <ele>300.6</ele>
        <time>2014-01-12T12:41:13Z</time>
      </trkpt>
      <trkpt lat="43.49416" lon="6.09978">
        <ele>302</ele>
        <time>2014-01-12T12:41:33Z</time>
      </trkpt>
      <trkpt lat="43.49416" lon="6.09978">
        <ele>302.1</ele>
        <time>2014-01-12T12:41:34Z</time>
      </trkpt>
      <trkpt lat="43.49424" lon="6.09992">
        <ele>303.4</ele>
        <time>2014-01-12T12:42:25Z</time>
      </trkpt>
      <trkpt lat="43.49427" lon="6.10003">
        <ele>305</ele>
        <time>2014-01-12T12:42:35Z</time>
      </trkpt>
      <trkpt lat="43.49427" lon="6.10004">
        <ele>305.2</ele>
        <time>2014-01-12T12:42:36Z</time>
      </trkpt>
      <trkpt lat="43.49433" lon="6.10026">
        <ele>307.6</ele>
        <time>2014-01-12T12:42:53Z</time>
      </trkpt>
      <trkpt lat="43.49438" lon="6.10035">
        <ele>308.9</ele>
        <time>2014-01-12T12:43:01Z</time>
      </trkpt>
      <trkpt lat="43.49444" lon="6.10043">
        <ele>309.5</ele>
        <time>2014-01-12T12:43:08Z</time>
      </trkpt>
      <trkpt lat="43.49448" lon="6.10052">
        <ele>310.6</ele>
        <time>2014-01-12T12:43:16Z</time>
      </trkpt>
      <trkpt lat="43.49452" lon="6.10063">
        <ele>311.7</ele>
        <time>2014-01-12T12:43:24Z</time>
      </trkpt>
      <trkpt lat="43.49456" lon="6.10073">
        <ele>312.6</ele>
        <time>2014-01-12T12:43:32Z</time>
      </trkpt>
      <trkpt lat="43.49457" lon="6.10086">
        <ele>312.9</ele>
        <time>2014-01-12T12:43:41Z</time>
      </trkpt>
      <trkpt lat="43.49457" lon="6.10087">
        <ele>312.7</ele>
        <time>2014-01-12T12:43:42Z</time>
      </trkpt>
      <trkpt lat="43.49456" lon="6.10109">
        <ele>314.1</ele>
        <time>2014-01-12T12:43:58Z</time>
      </trkpt>
      <trkpt lat="43.49455" lon="6.10121">
        <ele>315.4</ele>
        <time>2014-01-12T12:44:08Z</time>
      </trkpt>
      <trkpt lat="43.49451" lon="6.10131">
        <ele>316.5</ele>
        <time>2014-01-12T12:44:16Z</time>
      </trkpt>
      <trkpt lat="43.49446" lon="6.1014">
        <ele>317.1</ele>
        <time>2014-01-12T12:44:25Z</time>
      </trkpt>
      <trkpt lat="43.49445" lon="6.10152">
        <ele>318.3</ele>
        <time>2014-01-12T12:44:51Z</time>
      </trkpt>
      <trkpt lat="43.49445" lon="6.10153">
        <ele>318.3</ele>
        <time>2014-01-12T12:44:52Z</time>
      </trkpt>
      <trkpt lat="43.49439" lon="6.10162">
        <ele>315.3</ele>
        <time>2014-01-12T12:49:39Z</time>
      </trkpt>
      <trkpt lat="43.49431" lon="6.1018">
        <ele>312.2</ele>
        <time>2014-01-12T12:49:59Z</time>
      </trkpt>
      <trkpt lat="43.4943" lon="6.10192">
        <ele>310.8</ele>
        <time>2014-01-12T12:50:08Z</time>
      </trkpt>
      <trkpt lat="43.4943" lon="6.10204">
        <ele>309.8</ele>
        <time>2014-01-12T12:50:16Z</time>
      </trkpt>
      <trkpt lat="43.49429" lon="6.10216">
        <ele>308.9</ele>
        <time>2014-01-12T12:50:23Z</time>
      </trkpt>
      <trkpt lat="43.49426" lon="6.10228">
        <ele>306.8</ele>
        <time>2014-01-12T12:50:31Z</time>
      </trkpt>
      <trkpt lat="43.49422" lon="6.10238">
        <ele>305.2</ele>
        <time>2014-01-12T12:50:40Z</time>
      </trkpt>
      <trkpt lat="43.49421" lon="6.10239">
        <ele>305.1</ele>
        <time>2014-01-12T12:50:41Z</time>
      </trkpt>
      <trkpt lat="43.49414" lon="6.1026">
        <ele>302.2</ele>
        <time>2014-01-12T12:51:02Z</time>
      </trkpt>
      <trkpt lat="43.4941" lon="6.1027">
        <ele>301</ele>
        <time>2014-01-12T12:51:11Z</time>
      </trkpt>
      <trkpt lat="43.49408" lon="6.10281">
        <ele>300.3</ele>
        <time>2014-01-12T12:51:19Z</time>
      </trkpt>
      <trkpt lat="43.49404" lon="6.10291">
        <ele>298.4</ele>
        <time>2014-01-12T12:51:28Z</time>
      </trkpt>
      <trkpt lat="43.49399" lon="6.10302">
        <ele>297.8</ele>
        <time>2014-01-12T12:51:37Z</time>
      </trkpt>
      <trkpt lat="43.49397" lon="6.10311">
        <ele>297.5</ele>
        <time>2014-01-12T12:51:43Z</time>
      </trkpt>
      <trkpt lat="43.49397" lon="6.10314">
        <ele>297.3</ele>
        <time>2014-01-12T12:51:44Z</time>
      </trkpt>
      <trkpt lat="43.49399" lon="6.10334">
        <ele>296.4</ele>
        <time>2014-01-12T12:51:57Z</time>
      </trkpt>
      <trkpt lat="43.494" lon="6.10344">
        <ele>295</ele>
        <time>2014-01-12T12:52:05Z</time>
      </trkpt>
      <trkpt lat="43.49402" lon="6.10356">
        <ele>294.3</ele>
        <time>2014-01-12T12:52:14Z</time>
      </trkpt>
      <trkpt lat="43.49404" lon="6.10368">
        <ele>293.1</ele>
        <time>2014-01-12T12:52:23Z</time>
      </trkpt>
      <trkpt lat="43.49407" lon="6.10378">
        <ele>292.3</ele>
        <time>2014-01-12T12:52:31Z</time>
      </trkpt>
      <trkpt lat="43.49409" lon="6.1039">
        <ele>291</ele>
        <time>2014-01-12T12:52:39Z</time>
      </trkpt>
      <trkpt lat="43.49411" lon="6.10401">
        <ele>290.2</ele>
        <time>2014-01-12T12:52:47Z</time>
      </trkpt>
      <trkpt lat="43.49411" lon="6.10402">
        <ele>290.1</ele>
        <time>2014-01-12T12:52:48Z</time>
      </trkpt>
      <trkpt lat="43.49414" lon="6.10424">
        <ele>290.1</ele>
        <time>2014-01-12T12:53:02Z</time>
      </trkpt>
      <trkpt lat="43.49411" lon="6.10436">
        <ele>289.4</ele>
        <time>2014-01-12T12:53:10Z</time>
      </trkpt>
      <trkpt lat="43.49409" lon="6.10446">
        <ele>289</ele>
        <time>2014-01-12T12:53:17Z</time>
      </trkpt>
      <trkpt lat="43.49407" lon="6.10457">
        <ele>288.5</ele>
        <time>2014-01-12T12:53:31Z</time>
      </trkpt>
      <trkpt lat="43.49406" lon="6.10469">
        <ele>288.9</ele>
        <time>2014-01-12T12:53:38Z</time>
      </trkpt>
      <trkpt lat="43.49409" lon="6.10479">
        <ele>288.4</ele>
        <time>2014-01-12T12:53:44Z</time>
      </trkpt>
      <trkpt lat="43.49412" lon="6.1049">
        <ele>288.2</ele>
        <time>2014-01-12T12:53:51Z</time>
      </trkpt>
      <trkpt lat="43.49412" lon="6.10491">
        <ele>288.4</ele>
        <time>2014-01-12T12:53:52Z</time>
      </trkpt>
      <trkpt lat="43.49412" lon="6.10512">
        <ele>289.1</ele>
        <time>2014-01-12T12:54:06Z</time>
      </trkpt>
      <trkpt lat="43.49411" lon="6.10524">
        <ele>289.8</ele>
        <time>2014-01-12T12:54:13Z</time>
      </trkpt>
      <trkpt lat="43.49411" lon="6.10535">
        <ele>289.5</ele>
        <time>2014-01-12T12:54:19Z</time>
      </trkpt>
      <trkpt lat="43.49411" lon="6.10547">
        <ele>289.4</ele>
        <time>2014-01-12T12:54:28Z</time>
      </trkpt>
      <trkpt lat="43.49412" lon="6.10558">
        <ele>288.5</ele>
        <time>2014-01-12T12:54:35Z</time>
      </trkpt>
      <trkpt lat="43.49412" lon="6.10569">
        <ele>287.7</ele>
        <time>2014-01-12T12:54:41Z</time>
      </trkpt>
      <trkpt lat="43.49411" lon="6.1058">
        <ele>287.1</ele>
        <time>2014-01-12T12:54:47Z</time>
      </trkpt>
      <trkpt lat="43.49411" lon="6.10591">
        <ele>287</ele>
        <time>2014-01-12T12:54:54Z</time>
      </trkpt>
      <trkpt lat="43.49411" lon="6.10593">
        <ele>286.7</ele>
        <time>2014-01-12T12:54:55Z</time>
      </trkpt>
      <trkpt lat="43.49409" lon="6.10615">
        <ele>286.4</ele>
        <time>2014-01-12T12:55:09Z</time>
      </trkpt>
      <trkpt lat="43.49406" lon="6.10626">
        <ele>285.8</ele>
        <time>2014-01-12T12:55:17Z</time>
      </trkpt>
      <trkpt lat="43.49405" lon="6.10637">
        <ele>285.3</ele>
        <time>2014-01-12T12:55:24Z</time>
      </trkpt>
      <trkpt lat="43.49404" lon="6.10649">
        <ele>285.4</ele>
        <time>2014-01-12T12:55:42Z</time>
      </trkpt>
      <trkpt lat="43.49406" lon="6.10661">
        <ele>285.9</ele>
        <time>2014-01-12T12:55:51Z</time>
      </trkpt>
      <trkpt lat="43.49405" lon="6.10673">
        <ele>286.7</ele>
        <time>2014-01-12T12:56:00Z</time>
      </trkpt>
      <trkpt lat="43.49405" lon="6.10675">
        <ele>286.7</ele>
        <time>2014-01-12T12:56:01Z</time>
      </trkpt>
      <trkpt lat="43.49405" lon="6.10696">
        <ele>287.6</ele>
        <time>2014-01-12T12:56:14Z</time>
      </trkpt>
      <trkpt lat="43.49407" lon="6.10707">
        <ele>288.1</ele>
        <time>2014-01-12T12:56:22Z</time>
      </trkpt>
      <trkpt lat="43.49406" lon="6.10719">
        <ele>287.3</ele>
        <time>2014-01-12T12:56:39Z</time>
      </trkpt>
      <trkpt lat="43.49407" lon="6.1073">
        <ele>287</ele>
        <time>2014-01-12T12:56:49Z</time>
      </trkpt>
      <trkpt lat="43.49408" lon="6.10741">
        <ele>286.3</ele>
        <time>2014-01-12T12:56:55Z</time>
      </trkpt>
      <trkpt lat="43.49411" lon="6.10751">
        <ele>285.9</ele>
        <time>2014-01-12T12:57:02Z</time>
      </trkpt>
      <trkpt lat="43.49411" lon="6.10752">
        <ele>285.9</ele>
        <time>2014-01-12T12:57:03Z</time>
      </trkpt>
      <trkpt lat="43.49416" lon="6.10774">
        <ele>284</ele>
        <time>2014-01-12T12:57:21Z</time>
      </trkpt>
      <trkpt lat="43.49418" lon="6.10785">
        <ele>282.7</ele>
        <time>2014-01-12T12:57:32Z</time>
      </trkpt>
      <trkpt lat="43.49421" lon="6.10796">
        <ele>281.6</ele>
        <time>2014-01-12T12:57:40Z</time>
      </trkpt>
      <trkpt lat="43.49423" lon="6.10807">
        <ele>281.4</ele>
        <time>2014-01-12T12:57:49Z</time>
      </trkpt>
      <trkpt lat="43.49425" lon="6.10819">
        <ele>280.9</ele>
        <time>2014-01-12T12:57:56Z</time>
      </trkpt>
      <trkpt lat="43.49424" lon="6.10831">
        <ele>280.5</ele>
        <time>2014-01-12T12:58:13Z</time>
      </trkpt>
      <trkpt lat="43.49424" lon="6.10832">
        <ele>280.7</ele>
        <time>2014-01-12T12:58:14Z</time>
      </trkpt>
      <trkpt lat="43.49427" lon="6.10854">
        <ele>280.3</ele>
        <time>2014-01-12T12:58:28Z</time>
      </trkpt>
      <trkpt lat="43.49427" lon="6.10865">
        <ele>280</ele>
        <time>2014-01-12T12:58:36Z</time>
      </trkpt>
      <trkpt lat="43.49428" lon="6.10877">
        <ele>280.4</ele>
        <time>2014-01-12T13:00:42Z</time>
      </trkpt>
      <trkpt lat="43.49428" lon="6.10878">
        <ele>280.5</ele>
        <time>2014-01-12T13:00:43Z</time>
      </trkpt>
      <trkpt lat="43.49432" lon="6.109">
        <ele>279.5</ele>
        <time>2014-01-12T13:01:20Z</time>
      </trkpt>
      <trkpt lat="43.4943" lon="6.10912">
        <ele>278.9</ele>
        <time>2014-01-12T13:01:32Z</time>
      </trkpt>
      <trkpt lat="43.49437" lon="6.1092">
        <ele>278.8</ele>
        <time>2014-01-12T13:01:55Z</time>
      </trkpt>
      <trkpt lat="43.49438" lon="6.1092">
        <ele>278.9</ele>
        <time>2014-01-12T13:01:56Z</time>
      </trkpt>
      <trkpt lat="43.49443" lon="6.10941">
        <ele>277.3</ele>
        <time>2014-01-12T13:02:44Z</time>
      </trkpt>
      <trkpt lat="43.49448" lon="6.10951">
        <ele>277</ele>
        <time>2014-01-12T13:02:51Z</time>
      </trkpt>
      <trkpt lat="43.49454" lon="6.1096">
        <ele>275.9</ele>
        <time>2014-01-12T13:03:00Z</time>
      </trkpt>
      <trkpt lat="43.49454" lon="6.10961">
        <ele>275.6</ele>
        <time>2014-01-12T13:03:01Z</time>
      </trkpt>
      <trkpt lat="43.4946" lon="6.10982">
        <ele>273.1</ele>
        <time>2014-01-12T13:03:22Z</time>
      </trkpt>
      <trkpt lat="43.49452" lon="6.10983">
        <ele>273.3</ele>
        <time>2014-01-12T13:04:46Z</time>
      </trkpt>
      <trkpt lat="43.49451" lon="6.10983">
        <ele>273.5</ele>
        <time>2014-01-12T13:04:47Z</time>
      </trkpt>
      <trkpt lat="43.49435" lon="6.10982">
        <ele>276</ele>
        <time>2014-01-12T13:05:14Z</time>
      </trkpt>
      <trkpt lat="43.49427" lon="6.10981">
        <ele>277</ele>
        <time>2014-01-12T13:05:22Z</time>
      </trkpt>
      <trkpt lat="43.49419" lon="6.10983">
        <ele>277.5</ele>
        <time>2014-01-12T13:05:31Z</time>
      </trkpt>
      <trkpt lat="43.49411" lon="6.10987">
        <ele>278</ele>
        <time>2014-01-12T13:05:39Z</time>
      </trkpt>
      <trkpt lat="43.49404" lon="6.10995">
        <ele>278.9</ele>
        <time>2014-01-12T13:05:49Z</time>
      </trkpt>
      <trkpt lat="43.49404" lon="6.10997">
        <ele>278.8</ele>
        <time>2014-01-12T13:05:50Z</time>
      </trkpt>
      <trkpt lat="43.49397" lon="6.11017">
        <ele>279.9</ele>
        <time>2014-01-12T13:06:06Z</time>
      </trkpt>
      <trkpt lat="43.49391" lon="6.11025">
        <ele>280.2</ele>
        <time>2014-01-12T13:06:15Z</time>
      </trkpt>
      <trkpt lat="43.49384" lon="6.11032">
        <ele>280.7</ele>
        <time>2014-01-12T13:06:23Z</time>
      </trkpt>
      <trkpt lat="43.49377" lon="6.11038">
        <ele>280.6</ele>
        <time>2014-01-12T13:06:30Z</time>
      </trkpt>
      <trkpt lat="43.49371" lon="6.11046">
        <ele>281.9</ele>
        <time>2014-01-12T13:06:39Z</time>
      </trkpt>
      <trkpt lat="43.49367" lon="6.11057">
        <ele>282.6</ele>
        <time>2014-01-12T13:06:49Z</time>
      </trkpt>
      <trkpt lat="43.49362" lon="6.11067">
        <ele>283.2</ele>
        <time>2014-01-12T13:07:08Z</time>
      </trkpt>
      <trkpt lat="43.49362" lon="6.11067">
        <ele>283.3</ele>
        <time>2014-01-12T13:07:09Z</time>
      </trkpt>
      <trkpt lat="43.49347" lon="6.11079">
        <ele>285.9</ele>
        <time>2014-01-12T13:07:32Z</time>
      </trkpt>
      <trkpt lat="43.4934" lon="6.11085">
        <ele>287.2</ele>
        <time>2014-01-12T13:07:43Z</time>
      </trkpt>
      <trkpt lat="43.49333" lon="6.11092">
        <ele>288</ele>
        <time>2014-01-12T13:07:52Z</time>
      </trkpt>
      <trkpt lat="43.49326" lon="6.11098">
        <ele>288.5</ele>
        <time>2014-01-12T13:08:00Z</time>
      </trkpt>
      <trkpt lat="43.49318" lon="6.11102">
        <ele>289</ele>
        <time>2014-01-12T13:08:08Z</time>
      </trkpt>
      <trkpt lat="43.4931" lon="6.11106">
        <ele>289.8</ele>
        <time>2014-01-12T13:08:16Z</time>
      </trkpt>
      <trkpt lat="43.49309" lon="6.11106">
        <ele>290</ele>
        <time>2014-01-12T13:08:17Z</time>
      </trkpt>
      <trkpt lat="43.49293" lon="6.1111">
        <ele>291.3</ele>
        <time>2014-01-12T13:08:37Z</time>
      </trkpt>
      <trkpt lat="43.49286" lon="6.11107">
        <ele>292.1</ele>
        <time>2014-01-12T13:08:49Z</time>
      </trkpt>
      <trkpt lat="43.49277" lon="6.11106">
        <ele>293</ele>
        <time>2014-01-12T13:08:59Z</time>
      </trkpt>
      <trkpt lat="43.49274" lon="6.11117">
        <ele>293</ele>
        <time>2014-01-12T13:09:07Z</time>
      </trkpt>
      <trkpt lat="43.49273" lon="6.11129">
        <ele>293</ele>
        <time>2014-01-12T13:09:15Z</time>
      </trkpt>
      <trkpt lat="43.49271" lon="6.11141">
        <ele>293</ele>
        <time>2014-01-12T13:09:24Z</time>
      </trkpt>
      <trkpt lat="43.49271" lon="6.11142">
        <ele>293.1</ele>
        <time>2014-01-12T13:09:25Z</time>
      </trkpt>
      <trkpt lat="43.49279" lon="6.11157">
        <ele>293.2</ele>
        <time>2014-01-12T13:10:07Z</time>
      </trkpt>
      <trkpt lat="43.49283" lon="6.11146">
        <ele>292.7</ele>
        <time>2014-01-12T13:13:58Z</time>
      </trkpt>
      <trkpt lat="43.49282" lon="6.11145">
        <ele>292.9</ele>
        <time>2014-01-12T13:13:59Z</time>
      </trkpt>
      <trkpt lat="43.49277" lon="6.11124">
        <ele>292.9</ele>
        <time>2014-01-12T13:14:17Z</time>
      </trkpt>
      <trkpt lat="43.4927" lon="6.1112">
        <ele>292.9</ele>
        <time>2014-01-12T13:14:24Z</time>
      </trkpt>
      <trkpt lat="43.49262" lon="6.11118">
        <ele>292.8</ele>
        <time>2014-01-12T13:14:29Z</time>
      </trkpt>
      <trkpt lat="43.49253" lon="6.11116">
        <ele>292.5</ele>
        <time>2014-01-12T13:14:36Z</time>
      </trkpt>
      <trkpt lat="43.49244" lon="6.11115">
        <ele>292.8</ele>
        <time>2014-01-12T13:14:44Z</time>
      </trkpt>
      <trkpt lat="43.49235" lon="6.11113">
        <ele>292.1</ele>
        <time>2014-01-12T13:14:51Z</time>
      </trkpt>
      <trkpt lat="43.49227" lon="6.11114">
        <ele>292.1</ele>
        <time>2014-01-12T13:14:59Z</time>
      </trkpt>
      <trkpt lat="43.49226" lon="6.11114">
        <ele>292</ele>
        <time>2014-01-12T13:15:00Z</time>
      </trkpt>
      <trkpt lat="43.49236" lon="6.1111">
        <ele>293.1</ele>
        <time>2014-01-12T13:16:30Z</time>
      </trkpt>
      <trkpt lat="43.4925" lon="6.11114">
        <ele>293.2</ele>
        <time>2014-01-12T13:16:44Z</time>
      </trkpt>
      <trkpt lat="43.49258" lon="6.11116">
        <ele>293.4</ele>
        <time>2014-01-12T13:16:49Z</time>
      </trkpt>
      <trkpt lat="43.49266" lon="6.11118">
        <ele>293.3</ele>
        <time>2014-01-12T13:16:55Z</time>
      </trkpt>
      <trkpt lat="43.49274" lon="6.11112">
        <ele>292.6</ele>
        <time>2014-01-12T13:17:06Z</time>
      </trkpt>
      <trkpt lat="43.49273" lon="6.111">
        <ele>292</ele>
        <time>2014-01-12T13:17:15Z</time>
      </trkpt>
      <trkpt lat="43.49269" lon="6.11089">
        <ele>292.5</ele>
        <time>2014-01-12T13:17:25Z</time>
      </trkpt>
      <trkpt lat="43.49263" lon="6.11081">
        <ele>292.9</ele>
        <time>2014-01-12T13:17:32Z</time>
      </trkpt>
      <trkpt lat="43.49262" lon="6.1108">
        <ele>292.7</ele>
        <time>2014-01-12T13:17:33Z</time>
      </trkpt>
      <trkpt lat="43.49249" lon="6.11066">
        <ele>293.4</ele>
        <time>2014-01-12T13:17:46Z</time>
      </trkpt>
      <trkpt lat="43.49243" lon="6.11058">
        <ele>294</ele>
        <time>2014-01-12T13:17:54Z</time>
      </trkpt>
      <trkpt lat="43.49238" lon="6.11047">
        <ele>294.8</ele>
        <time>2014-01-12T13:18:03Z</time>
      </trkpt>
      <trkpt lat="43.49233" lon="6.11038">
        <ele>294.6</ele>
        <time>2014-01-12T13:18:09Z</time>
      </trkpt>
      <trkpt lat="43.49227" lon="6.1103">
        <ele>295.1</ele>
        <time>2014-01-12T13:18:15Z</time>
      </trkpt>
      <trkpt lat="43.49221" lon="6.11022">
        <ele>295.4</ele>
        <time>2014-01-12T13:18:23Z</time>
      </trkpt>
      <trkpt lat="43.49214" lon="6.11017">
        <ele>295.4</ele>
        <time>2014-01-12T13:18:30Z</time>
      </trkpt>
      <trkpt lat="43.49206" lon="6.11013">
        <ele>295.6</ele>
        <time>2014-01-12T13:18:50Z</time>
      </trkpt>
      <trkpt lat="43.49206" lon="6.11013">
        <ele>295.7</ele>
        <time>2014-01-12T13:18:51Z</time>
      </trkpt>
      <trkpt lat="43.49196" lon="6.10995">
        <ele>295.8</ele>
        <time>2014-01-12T13:19:38Z</time>
      </trkpt>
      <trkpt lat="43.49191" lon="6.10985">
        <ele>296.7</ele>
        <time>2014-01-12T13:19:45Z</time>
      </trkpt>
      <trkpt lat="43.49184" lon="6.10978">
        <ele>296.9</ele>
        <time>2014-01-12T13:19:52Z</time>
      </trkpt>
      <trkpt lat="43.49183" lon="6.10977">
        <ele>297</ele>
        <time>2014-01-12T13:19:53Z</time>
      </trkpt>
      <trkpt lat="43.49169" lon="6.10974">
        <ele>297.6</ele>
        <time>2014-01-12T13:20:03Z</time>
      </trkpt>
      <trkpt lat="43.49161" lon="6.10974">
        <ele>297.9</ele>
        <time>2014-01-12T13:20:09Z</time>
      </trkpt>
      <trkpt lat="43.49153" lon="6.10974">
        <ele>298.2</ele>
        <time>2014-01-12T13:20:16Z</time>
      </trkpt>
      <trkpt lat="43.49144" lon="6.10972">
        <ele>298.7</ele>
        <time>2014-01-12T13:20:22Z</time>
      </trkpt>
      <trkpt lat="43.49137" lon="6.10973">
        <ele>298.6</ele>
        <time>2014-01-12T13:20:28Z</time>
      </trkpt>
      <trkpt lat="43.49129" lon="6.10976">
        <ele>299.1</ele>
        <time>2014-01-12T13:20:36Z</time>
      </trkpt>
      <trkpt lat="43.49121" lon="6.1098">
        <ele>300.1</ele>
        <time>2014-01-12T13:20:43Z</time>
      </trkpt>
      <trkpt lat="43.49114" lon="6.10983">
        <ele>300.3</ele>
        <time>2014-01-12T13:20:49Z</time>
      </trkpt>
      <trkpt lat="43.49105" lon="6.10986">
        <ele>300.8</ele>
        <time>2014-01-12T13:20:55Z</time>
      </trkpt>
      <trkpt lat="43.49104" lon="6.10987">
        <ele>300.7</ele>
        <time>2014-01-12T13:20:56Z</time>
      </trkpt>
      <trkpt lat="43.49091" lon="6.10999">
        <ele>300.8</ele>
        <time>2014-01-12T13:21:09Z</time>
      </trkpt>
      <trkpt lat="43.49083" lon="6.11004">
        <ele>301</ele>
        <time>2014-01-12T13:21:15Z</time>
      </trkpt>
      <trkpt lat="43.49075" lon="6.11007">
        <ele>301.7</ele>
        <time>2014-01-12T13:21:22Z</time>
      </trkpt>
      <trkpt lat="43.49067" lon="6.11013">
        <ele>301.8</ele>
        <time>2014-01-12T13:21:29Z</time>
      </trkpt>
      <trkpt lat="43.49061" lon="6.11021">
        <ele>302.2</ele>
        <time>2014-01-12T13:22:02Z</time>
      </trkpt>
      <trkpt lat="43.4906" lon="6.11023">
        <ele>302.1</ele>
        <time>2014-01-12T13:22:03Z</time>
      </trkpt>
      <trkpt lat="43.49049" lon="6.11036">
        <ele>302.5</ele>
        <time>2014-01-12T13:22:13Z</time>
      </trkpt>
      <trkpt lat="43.49045" lon="6.11047">
        <ele>303.3</ele>
        <time>2014-01-12T13:22:21Z</time>
      </trkpt>
      <trkpt lat="43.49046" lon="6.11059">
        <ele>303.3</ele>
        <time>2014-01-12T13:22:26Z</time>
      </trkpt>
      <trkpt lat="43.49048" lon="6.11069">
        <ele>303.3</ele>
        <time>2014-01-12T13:22:32Z</time>
      </trkpt>
      <trkpt lat="43.49051" lon="6.11078">
        <ele>303.7</ele>
        <time>2014-01-12T13:22:37Z</time>
      </trkpt>
      <trkpt lat="43.49055" lon="6.11088">
        <ele>304</ele>
        <time>2014-01-12T13:22:43Z</time>
      </trkpt>
      <trkpt lat="43.49056" lon="6.11099">
        <ele>303.9</ele>
        <time>2014-01-12T13:22:50Z</time>
      </trkpt>
      <trkpt lat="43.49057" lon="6.11111">
        <ele>304.2</ele>
        <time>2014-01-12T13:22:57Z</time>
      </trkpt>
      <trkpt lat="43.49052" lon="6.1112">
        <ele>305.4</ele>
        <time>2014-01-12T13:23:05Z</time>
      </trkpt>
      <trkpt lat="43.49051" lon="6.11121">
        <ele>305.4</ele>
        <time>2014-01-12T13:23:06Z</time>
      </trkpt>
      <trkpt lat="43.49036" lon="6.11127">
        <ele>307.1</ele>
        <time>2014-01-12T13:23:23Z</time>
      </trkpt>
      <trkpt lat="43.49027" lon="6.11128">
        <ele>308.7</ele>
        <time>2014-01-12T13:23:32Z</time>
      </trkpt>
      <trkpt lat="43.49019" lon="6.11128">
        <ele>309.8</ele>
        <time>2014-01-12T13:23:39Z</time>
      </trkpt>
      <trkpt lat="43.4901" lon="6.11131">
        <ele>310.8</ele>
        <time>2014-01-12T13:23:48Z</time>
      </trkpt>
      <trkpt lat="43.49002" lon="6.11135">
        <ele>311.8</ele>
        <time>2014-01-12T13:23:58Z</time>
      </trkpt>
      <trkpt lat="43.48994" lon="6.1114">
        <ele>313.1</ele>
        <time>2014-01-12T13:24:08Z</time>
      </trkpt>
      <trkpt lat="43.48994" lon="6.11141">
        <ele>313.3</ele>
        <time>2014-01-12T13:24:09Z</time>
      </trkpt>
      <trkpt lat="43.48977" lon="6.11147">
        <ele>315.8</ele>
        <time>2014-01-12T13:24:29Z</time>
      </trkpt>
      <trkpt lat="43.48969" lon="6.11151">
        <ele>317.4</ele>
        <time>2014-01-12T13:24:39Z</time>
      </trkpt>
      <trkpt lat="43.48961" lon="6.11155">
        <ele>318.5</ele>
        <time>2014-01-12T13:24:48Z</time>
      </trkpt>
      <trkpt lat="43.48952" lon="6.11158">
        <ele>320.1</ele>
        <time>2014-01-12T13:24:57Z</time>
      </trkpt>
      <trkpt lat="43.48944" lon="6.11162">
        <ele>321.5</ele>
        <time>2014-01-12T13:25:05Z</time>
      </trkpt>
      <trkpt lat="43.48937" lon="6.11166">
        <ele>322.7</ele>
        <time>2014-01-12T13:25:13Z</time>
      </trkpt>
      <trkpt lat="43.48935" lon="6.11167">
        <ele>322.8</ele>
        <time>2014-01-12T13:25:14Z</time>
      </trkpt>
      <trkpt lat="43.4892" lon="6.11173">
        <ele>323.4</ele>
        <time>2014-01-12T13:25:28Z</time>
      </trkpt>
      <trkpt lat="43.48912" lon="6.11176">
        <ele>323.5</ele>
        <time>2014-01-12T13:25:36Z</time>
      </trkpt>
      <trkpt lat="43.48904" lon="6.11173">
        <ele>323.8</ele>
        <time>2014-01-12T13:25:43Z</time>
      </trkpt>
      <trkpt lat="43.48898" lon="6.11165">
        <ele>323.5</ele>
        <time>2014-01-12T13:25:51Z</time>
      </trkpt>
      <trkpt lat="43.48895" lon="6.11153">
        <ele>323.8</ele>
        <time>2014-01-12T13:26:00Z</time>
      </trkpt>
      <trkpt lat="43.48891" lon="6.11143">
        <ele>323.5</ele>
        <time>2014-01-12T13:26:07Z</time>
      </trkpt>
      <trkpt lat="43.48886" lon="6.11134">
        <ele>323.2</ele>
        <time>2014-01-12T13:26:13Z</time>
      </trkpt>
      <trkpt lat="43.48881" lon="6.11124">
        <ele>322.7</ele>
        <time>2014-01-12T13:26:20Z</time>
      </trkpt>
      <trkpt lat="43.4888" lon="6.11123">
        <ele>322.9</ele>
        <time>2014-01-12T13:26:21Z</time>
      </trkpt>
      <trkpt lat="43.4887" lon="6.11106">
        <ele>322.8</ele>
        <time>2014-01-12T13:26:33Z</time>
      </trkpt>
      <trkpt lat="43.48865" lon="6.11097">
        <ele>323</ele>
        <time>2014-01-12T13:26:41Z</time>
      </trkpt>
      <trkpt lat="43.48859" lon="6.11088">
        <ele>322.7</ele>
        <time>2014-01-12T13:26:46Z</time>
      </trkpt>
      <trkpt lat="43.48856" lon="6.11078">
        <ele>322.6</ele>
        <time>2014-01-12T13:26:53Z</time>
      </trkpt>
      <trkpt lat="43.48851" lon="6.1107">
        <ele>322.8</ele>
        <time>2014-01-12T13:26:58Z</time>
      </trkpt>
      <trkpt lat="43.48846" lon="6.1106">
        <ele>323.3</ele>
        <time>2014-01-12T13:27:06Z</time>
      </trkpt>
      <trkpt lat="43.4884" lon="6.11052">
        <ele>323.3</ele>
        <time>2014-01-12T13:27:12Z</time>
      </trkpt>
      <trkpt lat="43.48834" lon="6.11043">
        <ele>323.3</ele>
        <time>2014-01-12T13:27:19Z</time>
      </trkpt>
      <trkpt lat="43.48827" lon="6.11036">
        <ele>322.8</ele>
        <time>2014-01-12T13:27:28Z</time>
      </trkpt>
      <trkpt lat="43.48826" lon="6.11035">
        <ele>323</ele>
        <time>2014-01-12T13:27:29Z</time>
      </trkpt>
      <trkpt lat="43.48815" lon="6.11021">
        <ele>322.5</ele>
        <time>2014-01-12T13:27:41Z</time>
      </trkpt>
      <trkpt lat="43.48808" lon="6.11014">
        <ele>322.3</ele>
        <time>2014-01-12T13:27:47Z</time>
      </trkpt>
      <trkpt lat="43.48801" lon="6.11006">
        <ele>322.3</ele>
        <time>2014-01-12T13:27:55Z</time>
      </trkpt>
      <trkpt lat="43.48794" lon="6.11001">
        <ele>321.9</ele>
        <time>2014-01-12T13:28:01Z</time>
      </trkpt>
      <trkpt lat="43.48786" lon="6.10996">
        <ele>320.6</ele>
        <time>2014-01-12T13:28:11Z</time>
      </trkpt>
      <trkpt lat="43.48778" lon="6.10991">
        <ele>320.1</ele>
        <time>2014-01-12T13:28:20Z</time>
      </trkpt>
      <trkpt lat="43.4877" lon="6.10984">
        <ele>319.4</ele>
        <time>2014-01-12T13:28:28Z</time>
      </trkpt>
      <trkpt lat="43.48763" lon="6.10979">
        <ele>319</ele>
        <time>2014-01-12T13:28:36Z</time>
      </trkpt>
      <trkpt lat="43.48761" lon="6.10978">
        <ele>319.1</ele>
        <time>2014-01-12T13:28:37Z</time>
      </trkpt>
      <trkpt lat="43.48749" lon="6.10964">
        <ele>319.1</ele>
        <time>2014-01-12T13:28:52Z</time>
      </trkpt>
      <trkpt lat="43.48741" lon="6.10959">
        <ele>319.4</ele>
        <time>2014-01-12T13:29:01Z</time>
      </trkpt>
      <trkpt lat="43.48734" lon="6.10953">
        <ele>319.3</ele>
        <time>2014-01-12T13:29:08Z</time>
      </trkpt>
      <trkpt lat="43.48727" lon="6.10948">
        <ele>319.3</ele>
        <time>2014-01-12T13:29:14Z</time>
      </trkpt>
      <trkpt lat="43.4872" lon="6.10941">
        <ele>319.1</ele>
        <time>2014-01-12T13:29:21Z</time>
      </trkpt>
      <trkpt lat="43.48713" lon="6.10934">
        <ele>319.8</ele>
        <time>2014-01-12T13:29:28Z</time>
      </trkpt>
      <trkpt lat="43.48705" lon="6.10928">
        <ele>320.1</ele>
        <time>2014-01-12T13:29:36Z</time>
      </trkpt>
      <trkpt lat="43.48696" lon="6.10926">
        <ele>320.1</ele>
        <time>2014-01-12T13:29:44Z</time>
      </trkpt>
      <trkpt lat="43.48695" lon="6.10926">
        <ele>320</ele>
        <time>2014-01-12T13:29:45Z</time>
      </trkpt>
      <trkpt lat="43.48681" lon="6.10918">
        <ele>320.8</ele>
        <time>2014-01-12T13:29:57Z</time>
      </trkpt>
      <trkpt lat="43.48673" lon="6.10915">
        <ele>321</ele>
        <time>2014-01-12T13:30:04Z</time>
      </trkpt>
      <trkpt lat="43.48666" lon="6.10913">
        <ele>321</ele>
        <time>2014-01-12T13:30:09Z</time>
      </trkpt>
      <trkpt lat="43.48657" lon="6.10913">
        <ele>321</ele>
        <time>2014-01-12T13:30:16Z</time>
      </trkpt>
      <trkpt lat="43.48649" lon="6.10915">
        <ele>320.9</ele>
        <time>2014-01-12T13:30:22Z</time>
      </trkpt>
      <trkpt lat="43.48642" lon="6.10919">
        <ele>321.6</ele>
        <time>2014-01-12T13:30:29Z</time>
      </trkpt>
      <trkpt lat="43.48634" lon="6.10925">
        <ele>322.3</ele>
        <time>2014-01-12T13:30:36Z</time>
      </trkpt>
      <trkpt lat="43.48627" lon="6.10932">
        <ele>321.8</ele>
        <time>2014-01-12T13:30:45Z</time>
      </trkpt>
      <trkpt lat="43.48626" lon="6.10933">
        <ele>321.8</ele>
        <time>2014-01-12T13:30:46Z</time>
      </trkpt>
      <trkpt lat="43.48612" lon="6.10937">
        <ele>321.8</ele>
        <time>2014-01-12T13:31:02Z</time>
      </trkpt>
      <trkpt lat="43.48603" lon="6.10936">
        <ele>321.5</ele>
        <time>2014-01-12T13:31:09Z</time>
      </trkpt>
      <trkpt lat="43.48596" lon="6.10933">
        <ele>321.6</ele>
        <time>2014-01-12T13:31:19Z</time>
      </trkpt>
      <trkpt lat="43.48588" lon="6.10928">
        <ele>321.7</ele>
        <time>2014-01-12T13:31:29Z</time>
      </trkpt>
      <trkpt lat="43.48581" lon="6.10921">
        <ele>320.4</ele>
        <time>2014-01-12T13:31:38Z</time>
      </trkpt>
      <trkpt lat="43.48575" lon="6.10912">
        <ele>320.2</ele>
        <time>2014-01-12T13:31:47Z</time>
      </trkpt>
      <trkpt lat="43.48574" lon="6.1091">
        <ele>320.2</ele>
        <time>2014-01-12T13:31:48Z</time>
      </trkpt>
      <trkpt lat="43.48566" lon="6.10894">
        <ele>319.6</ele>
        <time>2014-01-12T13:32:00Z</time>
      </trkpt>
      <trkpt lat="43.48559" lon="6.10886">
        <ele>319.9</ele>
        <time>2014-01-12T13:32:09Z</time>
      </trkpt>
      <trkpt lat="43.48552" lon="6.10882">
        <ele>320.2</ele>
        <time>2014-01-12T13:32:17Z</time>
      </trkpt>
      <trkpt lat="43.48544" lon="6.10877">
        <ele>320.1</ele>
        <time>2014-01-12T13:32:27Z</time>
      </trkpt>
      <trkpt lat="43.48536" lon="6.10872">
        <ele>320.3</ele>
        <time>2014-01-12T13:32:35Z</time>
      </trkpt>
      <trkpt lat="43.48528" lon="6.10866">
        <ele>320.7</ele>
        <time>2014-01-12T13:32:42Z</time>
      </trkpt>
      <trkpt lat="43.48519" lon="6.10862">
        <ele>319.2</ele>
        <time>2014-01-12T13:32:49Z</time>
      </trkpt>
      <trkpt lat="43.48518" lon="6.10862">
        <ele>319.1</ele>
        <time>2014-01-12T13:32:50Z</time>
      </trkpt>
      <trkpt lat="43.48502" lon="6.10859">
        <ele>318.9</ele>
        <time>2014-01-12T13:33:09Z</time>
      </trkpt>
      <trkpt lat="43.48493" lon="6.1086">
        <ele>319</ele>
        <time>2014-01-12T13:33:17Z</time>
      </trkpt>
      <trkpt lat="43.48485" lon="6.10861">
        <ele>318.4</ele>
        <time>2014-01-12T13:33:25Z</time>
      </trkpt>
      <trkpt lat="43.48476" lon="6.10862">
        <ele>317.9</ele>
        <time>2014-01-12T13:33:34Z</time>
      </trkpt>
      <trkpt lat="43.48467" lon="6.10861">
        <ele>317.4</ele>
        <time>2014-01-12T13:33:41Z</time>
      </trkpt>
      <trkpt lat="43.48459" lon="6.10861">
        <ele>317</ele>
        <time>2014-01-12T13:33:50Z</time>
      </trkpt>
      <trkpt lat="43.48457" lon="6.10861">
        <ele>316.7</ele>
        <time>2014-01-12T13:33:51Z</time>
      </trkpt>
      <trkpt lat="43.48443" lon="6.10863">
        <ele>314.7</ele>
        <time>2014-01-12T13:34:21Z</time>
      </trkpt>
      <trkpt lat="43.48435" lon="6.10866">
        <ele>313.4</ele>
        <time>2014-01-12T13:34:26Z</time>
      </trkpt>
      <trkpt lat="43.48426" lon="6.10868">
        <ele>313.1</ele>
        <time>2014-01-12T13:34:33Z</time>
      </trkpt>
      <trkpt lat="43.48417" lon="6.10867">
        <ele>311.8</ele>
        <time>2014-01-12T13:34:40Z</time>
      </trkpt>
      <trkpt lat="43.48409" lon="6.10865">
        <ele>310.7</ele>
        <time>2014-01-12T13:34:48Z</time>
      </trkpt>
      <trkpt lat="43.48401" lon="6.10862">
        <ele>309.5</ele>
        <time>2014-01-12T13:34:58Z</time>
      </trkpt>
      <trkpt lat="43.484" lon="6.10862">
        <ele>309.4</ele>
        <time>2014-01-12T13:34:59Z</time>
      </trkpt>
      <trkpt lat="43.48384" lon="6.10857">
        <ele>308.5</ele>
        <time>2014-01-12T13:35:21Z</time>
      </trkpt>
      <trkpt lat="43.48375" lon="6.10857">
        <ele>308.6</ele>
        <time>2014-01-12T13:35:35Z</time>
      </trkpt>
      <trkpt lat="43.48367" lon="6.1086">
        <ele>308.8</ele>
        <time>2014-01-12T13:35:53Z</time>
      </trkpt>
      <trkpt lat="43.48358" lon="6.10858">
        <ele>308.1</ele>
        <time>2014-01-12T13:36:08Z</time>
      </trkpt>
      <trkpt lat="43.48357" lon="6.10858">
        <ele>308.2</ele>
        <time>2014-01-12T13:36:09Z</time>
      </trkpt>
      <trkpt lat="43.48342" lon="6.10852">
        <ele>307.5</ele>
        <time>2014-01-12T13:36:32Z</time>
      </trkpt>
      <trkpt lat="43.48336" lon="6.10844">
        <ele>307.4</ele>
        <time>2014-01-12T13:36:48Z</time>
      </trkpt>
      <trkpt lat="43.48329" lon="6.10837">
        <ele>308.4</ele>
        <time>2014-01-12T13:37:03Z</time>
      </trkpt>
      <trkpt lat="43.48321" lon="6.10839">
        <ele>308.1</ele>
        <time>2014-01-12T13:38:48Z</time>
      </trkpt>
      <trkpt lat="43.4832" lon="6.10838">
        <ele>308.3</ele>
        <time>2014-01-12T13:38:49Z</time>
      </trkpt>
      <trkpt lat="43.48304" lon="6.10836">
        <ele>307.7</ele>
        <time>2014-01-12T13:39:03Z</time>
      </trkpt>
      <trkpt lat="43.48298" lon="6.10829">
        <ele>308.3</ele>
        <time>2014-01-12T13:39:09Z</time>
      </trkpt>
      <trkpt lat="43.4829" lon="6.10825">
        <ele>309.2</ele>
        <time>2014-01-12T13:39:21Z</time>
      </trkpt>
      <trkpt lat="43.48286" lon="6.10814">
        <ele>310.2</ele>
        <time>2014-01-12T13:39:38Z</time>
      </trkpt>
      <trkpt lat="43.48279" lon="6.10806">
        <ele>310.1</ele>
        <time>2014-01-12T13:39:47Z</time>
      </trkpt>
      <trkpt lat="43.48272" lon="6.108">
        <ele>310.3</ele>
        <time>2014-01-12T13:40:11Z</time>
      </trkpt>
      <trkpt lat="43.48271" lon="6.10799">
        <ele>310.4</ele>
        <time>2014-01-12T13:40:12Z</time>
      </trkpt>
      <trkpt lat="43.48261" lon="6.10783">
        <ele>311.3</ele>
        <time>2014-01-12T13:40:27Z</time>
      </trkpt>
      <trkpt lat="43.48254" lon="6.10777">
        <ele>311.5</ele>
        <time>2014-01-12T13:40:33Z</time>
      </trkpt>
      <trkpt lat="43.48247" lon="6.10772">
        <ele>312.4</ele>
        <time>2014-01-12T13:40:39Z</time>
      </trkpt>
      <trkpt lat="43.48241" lon="6.10764">
        <ele>312.9</ele>
        <time>2014-01-12T13:40:45Z</time>
      </trkpt>
      <trkpt lat="43.48233" lon="6.10761">
        <ele>313.1</ele>
        <time>2014-01-12T13:40:52Z</time>
      </trkpt>
      <trkpt lat="43.48226" lon="6.10756">
        <ele>312.5</ele>
        <time>2014-01-12T13:40:57Z</time>
      </trkpt>
      <trkpt lat="43.48219" lon="6.10749">
        <ele>312.6</ele>
        <time>2014-01-12T13:41:04Z</time>
      </trkpt>
      <trkpt lat="43.48211" lon="6.10745">
        <ele>312.8</ele>
        <time>2014-01-12T13:41:11Z</time>
      </trkpt>
      <trkpt lat="43.48203" lon="6.1074">
        <ele>312.7</ele>
        <time>2014-01-12T13:41:17Z</time>
      </trkpt>
      <trkpt lat="43.48201" lon="6.10739">
        <ele>312.7</ele>
        <time>2014-01-12T13:41:18Z</time>
      </trkpt>
      <trkpt lat="43.48188" lon="6.10729">
        <ele>312.9</ele>
        <time>2014-01-12T13:41:31Z</time>
      </trkpt>
      <trkpt lat="43.48182" lon="6.10723">
        <ele>312.9</ele>
        <time>2014-01-12T13:41:36Z</time>
      </trkpt>
      <trkpt lat="43.48175" lon="6.10716">
        <ele>313.5</ele>
        <time>2014-01-12T13:41:44Z</time>
      </trkpt>
      <trkpt lat="43.48169" lon="6.10708">
        <ele>313.2</ele>
        <time>2014-01-12T13:41:49Z</time>
      </trkpt>
      <trkpt lat="43.48161" lon="6.10703">
        <ele>312.8</ele>
        <time>2014-01-12T13:41:54Z</time>
      </trkpt>
      <trkpt lat="43.48153" lon="6.10698">
        <ele>312.7</ele>
        <time>2014-01-12T13:42:00Z</time>
      </trkpt>
      <trkpt lat="43.48145" lon="6.10694">
        <ele>313.4</ele>
        <time>2014-01-12T13:42:07Z</time>
      </trkpt>
      <trkpt lat="43.48137" lon="6.10689">
        <ele>313.5</ele>
        <time>2014-01-12T13:42:13Z</time>
      </trkpt>
      <trkpt lat="43.48131" lon="6.10683">
        <ele>313.4</ele>
        <time>2014-01-12T13:42:18Z</time>
      </trkpt>
      <trkpt lat="43.4813" lon="6.10682">
        <ele>313.3</ele>
        <time>2014-01-12T13:42:19Z</time>
      </trkpt>
      <trkpt lat="43.48116" lon="6.10672">
        <ele>313.9</ele>
        <time>2014-01-12T13:42:30Z</time>
      </trkpt>
      <trkpt lat="43.48109" lon="6.10665">
        <ele>313.8</ele>
        <time>2014-01-12T13:42:38Z</time>
      </trkpt>
      <trkpt lat="43.48101" lon="6.10659">
        <ele>314.1</ele>
        <time>2014-01-12T13:42:45Z</time>
      </trkpt>
      <trkpt lat="43.48094" lon="6.10653">
        <ele>314.6</ele>
        <time>2014-01-12T13:42:51Z</time>
      </trkpt>
      <trkpt lat="43.48088" lon="6.10647">
        <ele>314.8</ele>
        <time>2014-01-12T13:42:58Z</time>
      </trkpt>
      <trkpt lat="43.48079" lon="6.10643">
        <ele>314.8</ele>
        <time>2014-01-12T13:43:08Z</time>
      </trkpt>
      <trkpt lat="43.48073" lon="6.10635">
        <ele>315.1</ele>
        <time>2014-01-12T13:43:15Z</time>
      </trkpt>
      <trkpt lat="43.48067" lon="6.10628">
        <ele>315.1</ele>
        <time>2014-01-12T13:43:22Z</time>
      </trkpt>
      <trkpt lat="43.48066" lon="6.10627">
        <ele>315.4</ele>
        <time>2014-01-12T13:43:23Z</time>
      </trkpt>
      <trkpt lat="43.4806" lon="6.10606">
        <ele>315.6</ele>
        <time>2014-01-12T13:43:38Z</time>
      </trkpt>
      <trkpt lat="43.4806" lon="6.10594">
        <ele>316.7</ele>
        <time>2014-01-12T13:43:47Z</time>
      </trkpt>
      <trkpt lat="43.48061" lon="6.10583">
        <ele>316.9</ele>
        <time>2014-01-12T13:43:56Z</time>
      </trkpt>
      <trkpt lat="43.48062" lon="6.10571">
        <ele>317.1</ele>
        <time>2014-01-12T13:44:06Z</time>
      </trkpt>
      <trkpt lat="43.48061" lon="6.1056">
        <ele>318.5</ele>
        <time>2014-01-12T13:44:14Z</time>
      </trkpt>
      <trkpt lat="43.48056" lon="6.10551">
        <ele>319.1</ele>
        <time>2014-01-12T13:44:23Z</time>
      </trkpt>
      <trkpt lat="43.48055" lon="6.1055">
        <ele>319</ele>
        <time>2014-01-12T13:44:24Z</time>
      </trkpt>
      <trkpt lat="43.4804" lon="6.1054">
        <ele>319.3</ele>
        <time>2014-01-12T13:45:02Z</time>
      </trkpt>
      <trkpt lat="43.48032" lon="6.10541">
        <ele>318.2</ele>
        <time>2014-01-12T13:45:12Z</time>
      </trkpt>
      <trkpt lat="43.48023" lon="6.10541">
        <ele>317.8</ele>
        <time>2014-01-12T13:45:21Z</time>
      </trkpt>
      <trkpt lat="43.48014" lon="6.10539">
        <ele>317.2</ele>
        <time>2014-01-12T13:45:29Z</time>
      </trkpt>
      <trkpt lat="43.48013" lon="6.10539">
        <ele>317.1</ele>
        <time>2014-01-12T13:45:30Z</time>
      </trkpt>
      <trkpt lat="43.47996" lon="6.10536">
        <ele>316</ele>
        <time>2014-01-12T13:45:48Z</time>
      </trkpt>
      <trkpt lat="43.47988" lon="6.10535">
        <ele>315.1</ele>
        <time>2014-01-12T13:45:59Z</time>
      </trkpt>
      <trkpt lat="43.4798" lon="6.10532">
        <ele>314.4</ele>
        <time>2014-01-12T13:46:08Z</time>
      </trkpt>
      <trkpt lat="43.47972" lon="6.1053">
        <ele>313.6</ele>
        <time>2014-01-12T13:46:16Z</time>
      </trkpt>
      <trkpt lat="43.47964" lon="6.10529">
        <ele>313.1</ele>
        <time>2014-01-12T13:46:23Z</time>
      </trkpt>
      <trkpt lat="43.47955" lon="6.10529">
        <ele>312</ele>
        <time>2014-01-12T13:46:31Z</time>
      </trkpt>
      <trkpt lat="43.47954" lon="6.10529">
        <ele>311.9</ele>
        <time>2014-01-12T13:46:32Z</time>
      </trkpt>
      <trkpt lat="43.47938" lon="6.10535">
        <ele>311</ele>
        <time>2014-01-12T13:46:51Z</time>
      </trkpt>
      <trkpt lat="43.47932" lon="6.10542">
        <ele>310.7</ele>
        <time>2014-01-12T13:46:59Z</time>
      </trkpt>
      <trkpt lat="43.47924" lon="6.10548">
        <ele>310.3</ele>
        <time>2014-01-12T13:47:07Z</time>
      </trkpt>
      <trkpt lat="43.47917" lon="6.10555">
        <ele>309.8</ele>
        <time>2014-01-12T13:47:16Z</time>
      </trkpt>
      <trkpt lat="43.4791" lon="6.10562">
        <ele>309</ele>
        <time>2014-01-12T13:47:25Z</time>
      </trkpt>
      <trkpt lat="43.47902" lon="6.10565">
        <ele>308.9</ele>
        <time>2014-01-12T13:47:33Z</time>
      </trkpt>
      <trkpt lat="43.47901" lon="6.10565">
        <ele>309</ele>
        <time>2014-01-12T13:47:34Z</time>
      </trkpt>
      <trkpt lat="43.47886" lon="6.10569">
        <ele>306.8</ele>
        <time>2014-01-12T13:47:51Z</time>
      </trkpt>
      <trkpt lat="43.47879" lon="6.10572">
        <ele>305.8</ele>
        <time>2014-01-12T13:48:00Z</time>
      </trkpt>
      <trkpt lat="43.47871" lon="6.10573">
        <ele>304.2</ele>
        <time>2014-01-12T13:48:07Z</time>
      </trkpt>
      <trkpt lat="43.47863" lon="6.10575">
        <ele>303.2</ele>
        <time>2014-01-12T13:48:13Z</time>
      </trkpt>
      <trkpt lat="43.47855" lon="6.10575">
        <ele>302.5</ele>
        <time>2014-01-12T13:48:21Z</time>
      </trkpt>
      <trkpt lat="43.47846" lon="6.10577">
        <ele>301.2</ele>
        <time>2014-01-12T13:48:29Z</time>
      </trkpt>
      <trkpt lat="43.47837" lon="6.10579">
        <ele>300.2</ele>
        <time>2014-01-12T13:48:38Z</time>
      </trkpt>
      <trkpt lat="43.47836" lon="6.10578">
        <ele>300</ele>
        <time>2014-01-12T13:48:39Z</time>
      </trkpt>
      <trkpt lat="43.47821" lon="6.10583">
        <ele>299.4</ele>
        <time>2014-01-12T13:48:53Z</time>
      </trkpt>
      <trkpt lat="43.4782" lon="6.10593">
        <ele>299.5</ele>
        <time>2014-01-12T13:49:01Z</time>
      </trkpt>
      <trkpt lat="43.47819" lon="6.10604">
        <ele>299.4</ele>
        <time>2014-01-12T13:49:08Z</time>
      </trkpt>
      <trkpt lat="43.47817" lon="6.10616">
        <ele>299.8</ele>
        <time>2014-01-12T13:49:15Z</time>
      </trkpt>
      <trkpt lat="43.4781" lon="6.10623">
        <ele>298.4</ele>
        <time>2014-01-12T13:49:25Z</time>
      </trkpt>
      <trkpt lat="43.47803" lon="6.10629">
        <ele>297.7</ele>
        <time>2014-01-12T13:49:33Z</time>
      </trkpt>
      <trkpt lat="43.47797" lon="6.10637">
        <ele>296.9</ele>
        <time>2014-01-12T13:49:40Z</time>
      </trkpt>
      <trkpt lat="43.47797" lon="6.10638">
        <ele>296.8</ele>
        <time>2014-01-12T13:49:41Z</time>
      </trkpt>
      <trkpt lat="43.47782" lon="6.10645">
        <ele>296</ele>
        <time>2014-01-12T13:49:52Z</time>
      </trkpt>
      <trkpt lat="43.47774" lon="6.1065">
        <ele>296</ele>
        <time>2014-01-12T13:50:00Z</time>
      </trkpt>
      <trkpt lat="43.47768" lon="6.10657">
        <ele>294.9</ele>
        <time>2014-01-12T13:50:09Z</time>
      </trkpt>
      <trkpt lat="43.47763" lon="6.10667">
        <ele>294.2</ele>
        <time>2014-01-12T13:50:17Z</time>
      </trkpt>
      <trkpt lat="43.47758" lon="6.10677">
        <ele>295.1</ele>
        <time>2014-01-12T13:50:26Z</time>
      </trkpt>
      <trkpt lat="43.47754" lon="6.10687">
        <ele>295</ele>
        <time>2014-01-12T13:50:35Z</time>
      </trkpt>
      <trkpt lat="43.47749" lon="6.10697">
        <ele>293.6</ele>
        <time>2014-01-12T13:50:43Z</time>
      </trkpt>
      <trkpt lat="43.47749" lon="6.10698">
        <ele>293.5</ele>
        <time>2014-01-12T13:50:44Z</time>
      </trkpt>
      <trkpt lat="43.47739" lon="6.10715">
        <ele>292.3</ele>
        <time>2014-01-12T13:51:01Z</time>
      </trkpt>
      <trkpt lat="43.47732" lon="6.10723">
        <ele>291.4</ele>
        <time>2014-01-12T13:51:09Z</time>
      </trkpt>
      <trkpt lat="43.47726" lon="6.1073">
        <ele>290.9</ele>
        <time>2014-01-12T13:51:16Z</time>
      </trkpt>
      <trkpt lat="43.47721" lon="6.10739">
        <ele>289.5</ele>
        <time>2014-01-12T13:51:25Z</time>
      </trkpt>
      <trkpt lat="43.47714" lon="6.10747">
        <ele>288.2</ele>
        <time>2014-01-12T13:51:34Z</time>
      </trkpt>
      <trkpt lat="43.47709" lon="6.10757">
        <ele>287</ele>
        <time>2014-01-12T13:51:43Z</time>
      </trkpt>
      <trkpt lat="43.47704" lon="6.10766">
        <ele>286.3</ele>
        <time>2014-01-12T13:51:52Z</time>
      </trkpt>
      <trkpt lat="43.47703" lon="6.10767">
        <ele>286.2</ele>
        <time>2014-01-12T13:51:53Z</time>
      </trkpt>
      <trkpt lat="43.47697" lon="6.10787">
        <ele>283.6</ele>
        <time>2014-01-12T13:52:09Z</time>
      </trkpt>
      <trkpt lat="43.47692" lon="6.10797">
        <ele>281.8</ele>
        <time>2014-01-12T13:52:20Z</time>
      </trkpt>
      <trkpt lat="43.47692" lon="6.10808">
        <ele>280.7</ele>
        <time>2014-01-12T13:52:28Z</time>
      </trkpt>
      <trkpt lat="43.47691" lon="6.10818">
        <ele>280.2</ele>
        <time>2014-01-12T13:52:35Z</time>
      </trkpt>
      <trkpt lat="43.47689" lon="6.1083">
        <ele>278.7</ele>
        <time>2014-01-12T13:52:46Z</time>
      </trkpt>
      <trkpt lat="43.47689" lon="6.10842">
        <ele>277.3</ele>
        <time>2014-01-12T13:52:56Z</time>
      </trkpt>
      <trkpt lat="43.47689" lon="6.10843">
        <ele>277.1</ele>
        <time>2014-01-12T13:52:57Z</time>
      </trkpt>
      <trkpt lat="43.47692" lon="6.10864">
        <ele>273.5</ele>
        <time>2014-01-12T13:53:13Z</time>
      </trkpt>
      <trkpt lat="43.47696" lon="6.10874">
        <ele>272.5</ele>
        <time>2014-01-12T13:53:20Z</time>
      </trkpt>
      <trkpt lat="43.47698" lon="6.10885">
        <ele>272.4</ele>
        <time>2014-01-12T13:53:26Z</time>
      </trkpt>
      <trkpt lat="43.47699" lon="6.10895">
        <ele>271.6</ele>
        <time>2014-01-12T13:53:31Z</time>
      </trkpt>
      <trkpt lat="43.477" lon="6.10906">
        <ele>271</ele>
        <time>2014-01-12T13:53:39Z</time>
      </trkpt>
      <trkpt lat="43.47701" lon="6.10917">
        <ele>271</ele>
        <time>2014-01-12T13:53:48Z</time>
      </trkpt>
      <trkpt lat="43.47702" lon="6.10929">
        <ele>270.3</ele>
        <time>2014-01-12T13:53:58Z</time>
      </trkpt>
      <trkpt lat="43.47702" lon="6.1093">
        <ele>270.3</ele>
        <time>2014-01-12T13:53:59Z</time>
      </trkpt>
      <trkpt lat="43.47705" lon="6.10952">
        <ele>269.5</ele>
        <time>2014-01-12T13:54:12Z</time>
      </trkpt>
      <trkpt lat="43.47704" lon="6.10964">
        <ele>269</ele>
        <time>2014-01-12T13:54:23Z</time>
      </trkpt>
      <trkpt lat="43.47705" lon="6.10976">
        <ele>268.4</ele>
        <time>2014-01-12T13:54:33Z</time>
      </trkpt>
      <trkpt lat="43.47704" lon="6.10987">
        <ele>267.3</ele>
        <time>2014-01-12T13:54:43Z</time>
      </trkpt>
      <trkpt lat="43.477" lon="6.10998">
        <ele>266.9</ele>
        <time>2014-01-12T13:54:54Z</time>
      </trkpt>
      <trkpt lat="43.477" lon="6.1101">
        <ele>266</ele>
        <time>2014-01-12T13:55:02Z</time>
      </trkpt>
      <trkpt lat="43.47699" lon="6.11012">
        <ele>266</ele>
        <time>2014-01-12T13:55:03Z</time>
      </trkpt>
      <trkpt lat="43.47697" lon="6.11033">
        <ele>264.5</ele>
        <time>2014-01-12T13:55:17Z</time>
      </trkpt>
      <trkpt lat="43.47692" lon="6.11043">
        <ele>264</ele>
        <time>2014-01-12T13:55:24Z</time>
      </trkpt>
      <trkpt lat="43.47689" lon="6.11055">
        <ele>263</ele>
        <time>2014-01-12T13:55:33Z</time>
      </trkpt>
      <trkpt lat="43.47683" lon="6.11064">
        <ele>261.1</ele>
        <time>2014-01-12T13:55:42Z</time>
      </trkpt>
      <trkpt lat="43.47679" lon="6.11074">
        <ele>260.3</ele>
        <time>2014-01-12T13:55:52Z</time>
      </trkpt>
      <trkpt lat="43.47673" lon="6.11083">
        <ele>259.3</ele>
        <time>2014-01-12T13:55:59Z</time>
      </trkpt>
      <trkpt lat="43.47672" lon="6.11095">
        <ele>259</ele>
        <time>2014-01-12T13:56:05Z</time>
      </trkpt>
      <trkpt lat="43.47672" lon="6.11096">
        <ele>259.1</ele>
        <time>2014-01-12T13:56:06Z</time>
      </trkpt>
      <trkpt lat="43.4766" lon="6.11112">
        <ele>258.6</ele>
        <time>2014-01-12T13:56:21Z</time>
      </trkpt>
      <trkpt lat="43.47656" lon="6.11123">
        <ele>258.1</ele>
        <time>2014-01-12T13:56:28Z</time>
      </trkpt>
      <trkpt lat="43.47652" lon="6.11133">
        <ele>257.4</ele>
        <time>2014-01-12T13:56:36Z</time>
      </trkpt>
      <trkpt lat="43.47647" lon="6.11142">
        <ele>256.6</ele>
        <time>2014-01-12T13:56:44Z</time>
      </trkpt>
      <trkpt lat="43.4764" lon="6.11147">
        <ele>256.1</ele>
        <time>2014-01-12T13:56:51Z</time>
      </trkpt>
      <trkpt lat="43.47636" lon="6.11157">
        <ele>255.8</ele>
        <time>2014-01-12T13:56:58Z</time>
      </trkpt>
      <trkpt lat="43.47629" lon="6.11166">
        <ele>255.7</ele>
        <time>2014-01-12T13:57:05Z</time>
      </trkpt>
      <trkpt lat="43.47624" lon="6.11174">
        <ele>254.4</ele>
        <time>2014-01-12T13:57:16Z</time>
      </trkpt>
      <trkpt lat="43.47623" lon="6.11175">
        <ele>254.5</ele>
        <time>2014-01-12T13:57:17Z</time>
      </trkpt>
      <trkpt lat="43.47607" lon="6.11179">
        <ele>253.5</ele>
        <time>2014-01-12T13:57:33Z</time>
      </trkpt>
      <trkpt lat="43.47599" lon="6.11182">
        <ele>252.9</ele>
        <time>2014-01-12T13:57:41Z</time>
      </trkpt>
      <trkpt lat="43.47591" lon="6.11189">
        <ele>252.9</ele>
        <time>2014-01-12T13:57:49Z</time>
      </trkpt>
      <trkpt lat="43.47589" lon="6.112">
        <ele>252.8</ele>
        <time>2014-01-12T13:57:56Z</time>
      </trkpt>
      <trkpt lat="43.47589" lon="6.11212">
        <ele>252.2</ele>
        <time>2014-01-12T13:58:03Z</time>
      </trkpt>
      <trkpt lat="43.47591" lon="6.11222">
        <ele>251.5</ele>
        <time>2014-01-12T13:58:09Z</time>
      </trkpt>
      <trkpt lat="43.47592" lon="6.11233">
        <ele>250.6</ele>
        <time>2014-01-12T13:58:16Z</time>
      </trkpt>
      <trkpt lat="43.47588" lon="6.11244">
        <ele>250.5</ele>
        <time>2014-01-12T13:58:32Z</time>
      </trkpt>
      <trkpt lat="43.47588" lon="6.11245">
        <ele>250.5</ele>
        <time>2014-01-12T13:58:33Z</time>
      </trkpt>
      <trkpt lat="43.47591" lon="6.11268">
        <ele>248.5</ele>
        <time>2014-01-12T13:58:53Z</time>
      </trkpt>
      <trkpt lat="43.47595" lon="6.11276">
        <ele>248.3</ele>
        <time>2014-01-12T13:58:59Z</time>
      </trkpt>
      <trkpt lat="43.47601" lon="6.11286">
        <ele>247.9</ele>
        <time>2014-01-12T13:59:11Z</time>
      </trkpt>
      <trkpt lat="43.47605" lon="6.11295">
        <ele>247.3</ele>
        <time>2014-01-12T13:59:43Z</time>
      </trkpt>
      <trkpt lat="43.47605" lon="6.11297">
        <ele>247.4</ele>
        <time>2014-01-12T13:59:44Z</time>
      </trkpt>
      <trkpt lat="43.47606" lon="6.11317">
        <ele>246.8</ele>
        <time>2014-01-12T14:00:00Z</time>
      </trkpt>
      <trkpt lat="43.47606" lon="6.11327">
        <ele>246.9</ele>
        <time>2014-01-12T14:00:06Z</time>
      </trkpt>
      <trkpt lat="43.47605" lon="6.11339">
        <ele>246.7</ele>
        <time>2014-01-12T14:00:13Z</time>
      </trkpt>
      <trkpt lat="43.47609" lon="6.11349">
        <ele>245.9</ele>
        <time>2014-01-12T14:00:19Z</time>
      </trkpt>
      <trkpt lat="43.47612" lon="6.1136">
        <ele>245.5</ele>
        <time>2014-01-12T14:00:24Z</time>
      </trkpt>
      <trkpt lat="43.47615" lon="6.11369">
        <ele>245.1</ele>
        <time>2014-01-12T14:00:29Z</time>
      </trkpt>
      <trkpt lat="43.47621" lon="6.11377">
        <ele>243.9</ele>
        <time>2014-01-12T14:00:37Z</time>
      </trkpt>
      <trkpt lat="43.47629" lon="6.11383">
        <ele>243.3</ele>
        <time>2014-01-12T14:00:43Z</time>
      </trkpt>
      <trkpt lat="43.47637" lon="6.11384">
        <ele>242.3</ele>
        <time>2014-01-12T14:00:49Z</time>
      </trkpt>
      <trkpt lat="43.47638" lon="6.11383">
        <ele>242.3</ele>
        <time>2014-01-12T14:00:50Z</time>
      </trkpt>
      <trkpt lat="43.47652" lon="6.11394">
        <ele>241.5</ele>
        <time>2014-01-12T14:01:03Z</time>
      </trkpt>
      <trkpt lat="43.47658" lon="6.114">
        <ele>241.2</ele>
        <time>2014-01-12T14:01:09Z</time>
      </trkpt>
      <trkpt lat="43.47667" lon="6.11404">
        <ele>241.7</ele>
        <time>2014-01-12T14:01:17Z</time>
      </trkpt>
      <trkpt lat="43.47675" lon="6.11408">
        <ele>241</ele>
        <time>2014-01-12T14:01:24Z</time>
      </trkpt>
      <trkpt lat="43.47683" lon="6.11412">
        <ele>241.6</ele>
        <time>2014-01-12T14:01:32Z</time>
      </trkpt>
      <trkpt lat="43.47689" lon="6.11419">
        <ele>241.7</ele>
        <time>2014-01-12T14:01:40Z</time>
      </trkpt>
      <trkpt lat="43.47696" lon="6.11427">
        <ele>241.7</ele>
        <time>2014-01-12T14:01:49Z</time>
      </trkpt>
      <trkpt lat="43.477" lon="6.11435">
        <ele>242</ele>
        <time>2014-01-12T14:01:58Z</time>
      </trkpt>
      <trkpt lat="43.47701" lon="6.11437">
        <ele>242</ele>
        <time>2014-01-12T14:01:59Z</time>
      </trkpt>
      <trkpt lat="43.47687" lon="6.11448">
        <ele>238.5</ele>
        <time>2014-01-12T14:02:28Z</time>
      </trkpt>
      <trkpt lat="43.4768" lon="6.11453">
        <ele>237.5</ele>
        <time>2014-01-12T14:02:36Z</time>
      </trkpt>
      <trkpt lat="43.47674" lon="6.11463">
        <ele>236.5</ele>
        <time>2014-01-12T14:02:44Z</time>
      </trkpt>
      <trkpt lat="43.47668" lon="6.11472">
        <ele>235.7</ele>
        <time>2014-01-12T14:02:53Z</time>
      </trkpt>
      <trkpt lat="43.47662" lon="6.11479">
        <ele>234.9</ele>
        <time>2014-01-12T14:03:01Z</time>
      </trkpt>
      <trkpt lat="43.47661" lon="6.1148">
        <ele>234.9</ele>
        <time>2014-01-12T14:03:02Z</time>
      </trkpt>
      <trkpt lat="43.47649" lon="6.11496">
        <ele>233.1</ele>
        <time>2014-01-12T14:03:20Z</time>
      </trkpt>
      <trkpt lat="43.47645" lon="6.11505">
        <ele>232.4</ele>
        <time>2014-01-12T14:03:29Z</time>
      </trkpt>
      <trkpt lat="43.47644" lon="6.11517">
        <ele>230.8</ele>
        <time>2014-01-12T14:03:38Z</time>
      </trkpt>
      <trkpt lat="43.47644" lon="6.11529">
        <ele>229.8</ele>
        <time>2014-01-12T14:03:47Z</time>
      </trkpt>
      <trkpt lat="43.47644" lon="6.11541">
        <ele>229.3</ele>
        <time>2014-01-12T14:03:55Z</time>
      </trkpt>
      <trkpt lat="43.47644" lon="6.11553">
        <ele>228.5</ele>
        <time>2014-01-12T14:04:03Z</time>
      </trkpt>
      <trkpt lat="43.47644" lon="6.11555">
        <ele>228.3</ele>
        <time>2014-01-12T14:04:04Z</time>
      </trkpt>
      <trkpt lat="43.47644" lon="6.11577">
        <ele>227</ele>
        <time>2014-01-12T14:04:19Z</time>
      </trkpt>
      <trkpt lat="43.47638" lon="6.11585">
        <ele>226.1</ele>
        <time>2014-01-12T14:04:26Z</time>
      </trkpt>
      <trkpt lat="43.4763" lon="6.11589">
        <ele>225.8</ele>
        <time>2014-01-12T14:04:36Z</time>
      </trkpt>
      <trkpt lat="43.47623" lon="6.11594">
        <ele>225.1</ele>
        <time>2014-01-12T14:04:46Z</time>
      </trkpt>
      <trkpt lat="43.4762" lon="6.11605">
        <ele>224.2</ele>
        <time>2014-01-12T14:04:54Z</time>
      </trkpt>
      <trkpt lat="43.47618" lon="6.11616">
        <ele>223.7</ele>
        <time>2014-01-12T14:05:02Z</time>
      </trkpt>
      <trkpt lat="43.47618" lon="6.11627">
        <ele>222.9</ele>
        <time>2014-01-12T14:05:10Z</time>
      </trkpt>
      <trkpt lat="43.47619" lon="6.11629">
        <ele>222.8</ele>
        <time>2014-01-12T14:05:11Z</time>
      </trkpt>
      <trkpt lat="43.47621" lon="6.11651">
        <ele>220</ele>
        <time>2014-01-12T14:05:29Z</time>
      </trkpt>
      <trkpt lat="43.47617" lon="6.11662">
        <ele>218.9</ele>
        <time>2014-01-12T14:05:39Z</time>
      </trkpt>
      <trkpt lat="43.47609" lon="6.11666">
        <ele>217.9</ele>
        <time>2014-01-12T14:05:47Z</time>
      </trkpt>
      <trkpt lat="43.47601" lon="6.11668">
        <ele>216.9</ele>
        <time>2014-01-12T14:05:57Z</time>
      </trkpt>
      <trkpt lat="43.47592" lon="6.11672">
        <ele>215.6</ele>
        <time>2014-01-12T14:06:07Z</time>
      </trkpt>
      <trkpt lat="43.47584" lon="6.11673">
        <ele>215.1</ele>
        <time>2014-01-12T14:06:15Z</time>
      </trkpt>
      <trkpt lat="43.47583" lon="6.11673">
        <ele>215.1</ele>
        <time>2014-01-12T14:06:16Z</time>
      </trkpt>
      <trkpt lat="43.47568" lon="6.11681">
        <ele>212.6</ele>
        <time>2014-01-12T14:06:31Z</time>
      </trkpt>
      <trkpt lat="43.4756" lon="6.11682">
        <ele>212.1</ele>
        <time>2014-01-12T14:06:39Z</time>
      </trkpt>
      <trkpt lat="43.47552" lon="6.11684">
        <ele>211.8</ele>
        <time>2014-01-12T14:06:47Z</time>
      </trkpt>
      <trkpt lat="43.47544" lon="6.11687">
        <ele>210.8</ele>
        <time>2014-01-12T14:06:54Z</time>
      </trkpt>
      <trkpt lat="43.47535" lon="6.1169">
        <ele>209.7</ele>
        <time>2014-01-12T14:07:03Z</time>
      </trkpt>
      <trkpt lat="43.47527" lon="6.11693">
        <ele>209.2</ele>
        <time>2014-01-12T14:07:11Z</time>
      </trkpt>
      <trkpt lat="43.47518" lon="6.11693">
        <ele>208.4</ele>
        <time>2014-01-12T14:07:18Z</time>
      </trkpt>
      <trkpt lat="43.47517" lon="6.11693">
        <ele>208.4</ele>
        <time>2014-01-12T14:07:19Z</time>
      </trkpt>
      <trkpt lat="43.47515" lon="6.11714">
        <ele>207.5</ele>
        <time>2014-01-12T14:07:35Z</time>
      </trkpt>
      <trkpt lat="43.47517" lon="6.11726">
        <ele>207.2</ele>
        <time>2014-01-12T14:07:41Z</time>
      </trkpt>
      <trkpt lat="43.47516" lon="6.11737">
        <ele>206.4</ele>
        <time>2014-01-12T14:07:49Z</time>
      </trkpt>
      <trkpt lat="43.47508" lon="6.11743">
        <ele>205.2</ele>
        <time>2014-01-12T14:07:57Z</time>
      </trkpt>
      <trkpt lat="43.475" lon="6.11738">
        <ele>203.8</ele>
        <time>2014-01-12T14:08:08Z</time>
      </trkpt>
      <trkpt lat="43.47492" lon="6.11735">
        <ele>203.1</ele>
        <time>2014-01-12T14:08:17Z</time>
      </trkpt>
      <trkpt lat="43.47485" lon="6.11729">
        <ele>202.3</ele>
        <time>2014-01-12T14:08:26Z</time>
      </trkpt>
      <trkpt lat="43.47484" lon="6.11728">
        <ele>202.3</ele>
        <time>2014-01-12T14:08:27Z</time>
      </trkpt>
      <trkpt lat="43.4747" lon="6.11717">
        <ele>200.3</ele>
        <time>2014-01-12T14:08:42Z</time>
      </trkpt>
      <trkpt lat="43.47462" lon="6.11714">
        <ele>199.5</ele>
        <time>2014-01-12T14:08:51Z</time>
      </trkpt>
      <trkpt lat="43.47454" lon="6.1171">
        <ele>198.6</ele>
        <time>2014-01-12T14:09:00Z</time>
      </trkpt>
      <trkpt lat="43.47446" lon="6.11707">
        <ele>198</ele>
        <time>2014-01-12T14:09:07Z</time>
      </trkpt>
      <trkpt lat="43.47438" lon="6.11705">
        <ele>196.8</ele>
        <time>2014-01-12T14:09:15Z</time>
      </trkpt>
      <trkpt lat="43.47429" lon="6.11703">
        <ele>196</ele>
        <time>2014-01-12T14:09:23Z</time>
      </trkpt>
      <trkpt lat="43.47422" lon="6.11696">
        <ele>194</ele>
        <time>2014-01-12T14:09:31Z</time>
      </trkpt>
      <trkpt lat="43.47421" lon="6.11693">
        <ele>193.8</ele>
        <time>2014-01-12T14:09:32Z</time>
      </trkpt>
      <trkpt lat="43.47411" lon="6.11679">
        <ele>191.5</ele>
        <time>2014-01-12T14:09:46Z</time>
      </trkpt>
      <trkpt lat="43.47404" lon="6.11676">
        <ele>190.2</ele>
        <time>2014-01-12T14:09:53Z</time>
      </trkpt>
      <trkpt lat="43.47397" lon="6.11684">
        <ele>189.5</ele>
        <time>2014-01-12T14:10:00Z</time>
      </trkpt>
      <trkpt lat="43.47395" lon="6.11694">
        <ele>188.8</ele>
        <time>2014-01-12T14:10:07Z</time>
      </trkpt>
      <trkpt lat="43.47392" lon="6.11705">
        <ele>188.2</ele>
        <time>2014-01-12T14:10:16Z</time>
      </trkpt>
      <trkpt lat="43.47388" lon="6.11715">
        <ele>187.6</ele>
        <time>2014-01-12T14:10:24Z</time>
      </trkpt>
      <trkpt lat="43.47381" lon="6.11723">
        <ele>186</ele>
        <time>2014-01-12T14:10:32Z</time>
      </trkpt>
      <trkpt lat="43.4738" lon="6.11724">
        <ele>186.1</ele>
        <time>2014-01-12T14:10:33Z</time>
      </trkpt>
      <trkpt lat="43.47366" lon="6.1173">
        <ele>184.6</ele>
        <time>2014-01-12T14:10:47Z</time>
      </trkpt>
      <trkpt lat="43.47359" lon="6.11732">
        <ele>184.1</ele>
        <time>2014-01-12T14:10:53Z</time>
      </trkpt>
      <trkpt lat="43.47351" lon="6.11736">
        <ele>183.2</ele>
        <time>2014-01-12T14:11:01Z</time>
      </trkpt>
      <trkpt lat="43.47343" lon="6.1174">
        <ele>182.9</ele>
        <time>2014-01-12T14:11:08Z</time>
      </trkpt>
      <trkpt lat="43.47335" lon="6.11746">
        <ele>181.9</ele>
        <time>2014-01-12T14:11:16Z</time>
      </trkpt>
      <trkpt lat="43.47327" lon="6.1175">
        <ele>181</ele>
        <time>2014-01-12T14:11:24Z</time>
      </trkpt>
      <trkpt lat="43.47319" lon="6.11755">
        <ele>181.3</ele>
        <time>2014-01-12T14:11:34Z</time>
      </trkpt>
      <trkpt lat="43.47318" lon="6.11757">
        <ele>181.2</ele>
        <time>2014-01-12T14:11:35Z</time>
      </trkpt>
      <trkpt lat="43.47303" lon="6.11762">
        <ele>180.9</ele>
        <time>2014-01-12T14:11:48Z</time>
      </trkpt>
      <trkpt lat="43.47296" lon="6.11766">
        <ele>181.2</ele>
        <time>2014-01-12T14:11:54Z</time>
      </trkpt>
      <trkpt lat="43.47287" lon="6.1177">
        <ele>180.7</ele>
        <time>2014-01-12T14:12:03Z</time>
      </trkpt>
      <trkpt lat="43.4728" lon="6.11777">
        <ele>180.1</ele>
        <time>2014-01-12T14:12:20Z</time>
      </trkpt>
      <trkpt lat="43.47273" lon="6.1178">
        <ele>179.9</ele>
        <time>2014-01-12T14:12:27Z</time>
      </trkpt>
      <trkpt lat="43.47266" lon="6.11787">
        <ele>179.1</ele>
        <time>2014-01-12T14:12:35Z</time>
      </trkpt>
      <trkpt lat="43.47265" lon="6.11788">
        <ele>178.8</ele>
        <time>2014-01-12T14:12:36Z</time>
      </trkpt>
      <trkpt lat="43.47264" lon="6.11809">
        <ele>177.1</ele>
        <time>2014-01-12T14:12:54Z</time>
      </trkpt>
      <trkpt lat="43.47268" lon="6.11818">
        <ele>177</ele>
        <time>2014-01-12T14:13:24Z</time>
      </trkpt>
      <trkpt lat="43.47273" lon="6.11829">
        <ele>176.2</ele>
        <time>2014-01-12T14:13:33Z</time>
      </trkpt>
      <trkpt lat="43.47278" lon="6.11838">
        <ele>176.2</ele>
        <time>2014-01-12T14:13:43Z</time>
      </trkpt>
      <trkpt lat="43.47279" lon="6.11839">
        <ele>176</ele>
        <time>2014-01-12T14:13:44Z</time>
      </trkpt>
      <trkpt lat="43.47289" lon="6.11857">
        <ele>176.1</ele>
        <time>2014-01-12T14:15:02Z</time>
      </trkpt>
      <trkpt lat="43.4729" lon="6.11858">
        <ele>176.1</ele>
        <time>2014-01-12T14:15:03Z</time>
      </trkpt>
      <trkpt lat="43.47302" lon="6.11873">
        <ele>176.5</ele>
        <time>2014-01-12T14:15:18Z</time>
      </trkpt>
      <trkpt lat="43.47307" lon="6.11882">
        <ele>177.2</ele>
        <time>2014-01-12T14:15:31Z</time>
      </trkpt>
      <trkpt lat="43.47312" lon="6.11892">
        <ele>177.6</ele>
        <time>2014-01-12T14:15:42Z</time>
      </trkpt>
      <trkpt lat="43.47319" lon="6.11898">
        <ele>177.9</ele>
        <time>2014-01-12T14:16:14Z</time>
      </trkpt>
      <trkpt lat="43.4732" lon="6.11899">
        <ele>178</ele>
        <time>2014-01-12T14:16:15Z</time>
      </trkpt>
      <trkpt lat="43.47328" lon="6.11918">
        <ele>178.4</ele>
        <time>2014-01-12T14:16:52Z</time>
      </trkpt>
      <trkpt lat="43.47333" lon="6.11927">
        <ele>178.7</ele>
        <time>2014-01-12T14:17:02Z</time>
      </trkpt>
      <trkpt lat="43.47342" lon="6.11927">
        <ele>178.8</ele>
        <time>2014-01-12T14:17:25Z</time>
      </trkpt>
      <trkpt lat="43.47342" lon="6.11928">
        <ele>178.8</ele>
        <time>2014-01-12T14:17:26Z</time>
      </trkpt>
      <trkpt lat="43.47343" lon="6.11935">
        <ele>179.3</ele>
        <time>2014-01-12T14:18:17Z</time>
      </trkpt>
      <trkpt lat="43.47351" lon="6.11935">
        <ele>179.4</ele>
        <time>2014-01-12T14:18:24Z</time>
      </trkpt>
      <trkpt lat="43.47359" lon="6.11938">
        <ele>180</ele>
        <time>2014-01-12T14:18:33Z</time>
      </trkpt>
      <trkpt lat="43.4736" lon="6.11938">
        <ele>180.1</ele>
        <time>2014-01-12T14:18:34Z</time>
      </trkpt>
      <trkpt lat="43.47371" lon="6.11953">
        <ele>180.8</ele>
        <time>2014-01-12T14:18:49Z</time>
      </trkpt>
      <trkpt lat="43.47378" lon="6.1196">
        <ele>181.2</ele>
        <time>2014-01-12T14:18:57Z</time>
      </trkpt>
      <trkpt lat="43.47383" lon="6.11969">
        <ele>181.7</ele>
        <time>2014-01-12T14:19:04Z</time>
      </trkpt>
      <trkpt lat="43.4739" lon="6.11977">
        <ele>181.8</ele>
        <time>2014-01-12T14:19:14Z</time>
      </trkpt>
      <trkpt lat="43.47398" lon="6.1198">
        <ele>181.5</ele>
        <time>2014-01-12T14:19:21Z</time>
      </trkpt>
      <trkpt lat="43.47399" lon="6.11991">
        <ele>181.6</ele>
        <time>2014-01-12T14:19:31Z</time>
      </trkpt>
      <trkpt lat="43.47405" lon="6.12">
        <ele>181.8</ele>
        <time>2014-01-12T14:19:37Z</time>
      </trkpt>
      <trkpt lat="43.47407" lon="6.12002">
        <ele>182</ele>
        <time>2014-01-12T14:19:38Z</time>
      </trkpt>
      <trkpt lat="43.47418" lon="6.12013">
        <ele>182.5</ele>
        <time>2014-01-12T14:19:49Z</time>
      </trkpt>
      <trkpt lat="43.47421" lon="6.12025">
        <ele>182.4</ele>
        <time>2014-01-12T14:20:00Z</time>
      </trkpt>
      <trkpt lat="43.47424" lon="6.12036">
        <ele>183.6</ele>
        <time>2014-01-12T14:20:22Z</time>
      </trkpt>
      <trkpt lat="43.47427" lon="6.12048">
        <ele>183.5</ele>
        <time>2014-01-12T14:20:35Z</time>
      </trkpt>
      <trkpt lat="43.47427" lon="6.1206">
        <ele>183.3</ele>
        <time>2014-01-12T14:20:45Z</time>
      </trkpt>
      <trkpt lat="43.47426" lon="6.12061">
        <ele>183.2</ele>
        <time>2014-01-12T14:20:46Z</time>
      </trkpt>
      <trkpt lat="43.47429" lon="6.12083">
        <ele>183.8</ele>
        <time>2014-01-12T14:21:01Z</time>
      </trkpt>
      <trkpt lat="43.47431" lon="6.12095">
        <ele>183.3</ele>
        <time>2014-01-12T14:21:24Z</time>
      </trkpt>
      <trkpt lat="43.47435" lon="6.12105">
        <ele>183.4</ele>
        <time>2014-01-12T14:22:51Z</time>
      </trkpt>
      <trkpt lat="43.47436" lon="6.12105">
        <ele>183.2</ele>
        <time>2014-01-12T14:22:52Z</time>
      </trkpt>
      <trkpt lat="43.47434" lon="6.12107">
        <ele>180.7</ele>
        <time>2014-01-12T14:24:47Z</time>
      </trkpt>
      <trkpt lat="43.47434" lon="6.12107">
        <ele>180.6</ele>
        <time>2014-01-12T14:24:48Z</time>
      </trkpt>
      <trkpt lat="43.47418" lon="6.12113">
        <ele>176.7</ele>
        <time>2014-01-12T14:25:33Z</time>
      </trkpt>
      <trkpt lat="43.47415" lon="6.12125">
        <ele>175.1</ele>
        <time>2014-01-12T14:25:46Z</time>
      </trkpt>
      <trkpt lat="43.47416" lon="6.12136">
        <ele>175</ele>
        <time>2014-01-12T14:25:54Z</time>
      </trkpt>
      <trkpt lat="43.47416" lon="6.12138">
        <ele>174.9</ele>
        <time>2014-01-12T14:25:55Z</time>
      </trkpt>
      <trkpt lat="43.47418" lon="6.1216">
        <ele>172.6</ele>
        <time>2014-01-12T14:28:01Z</time>
      </trkpt>
      <trkpt lat="43.47418" lon="6.1216">
        <ele>172.6</ele>
        <time>2014-01-12T14:28:02Z</time>
      </trkpt>
      <trkpt lat="43.47402" lon="6.12156">
        <ele>169.6</ele>
        <time>2014-01-12T14:28:54Z</time>
      </trkpt>
      <trkpt lat="43.47402" lon="6.12145">
        <ele>167.2</ele>
        <time>2014-01-12T14:29:12Z</time>
      </trkpt>
      <trkpt lat="43.47402" lon="6.12144">
        <ele>167</ele>
        <time>2014-01-12T14:29:13Z</time>
      </trkpt>
      <trkpt lat="43.47404" lon="6.12168">
        <ele>164.5</ele>
        <time>2014-01-12T14:29:53Z</time>
      </trkpt>
      <trkpt lat="43.47402" lon="6.1218">
        <ele>164.7</ele>
        <time>2014-01-12T14:30:08Z</time>
      </trkpt>
      <trkpt lat="43.47397" lon="6.12189">
        <ele>163.7</ele>
        <time>2014-01-12T14:30:38Z</time>
      </trkpt>
      <trkpt lat="43.47395" lon="6.12189">
        <ele>163.8</ele>
        <time>2014-01-12T14:30:39Z</time>
      </trkpt>
      <trkpt lat="43.47382" lon="6.12199">
        <ele>163</ele>
        <time>2014-01-12T14:30:53Z</time>
      </trkpt>
      <trkpt lat="43.47373" lon="6.12198">
        <ele>163.2</ele>
        <time>2014-01-12T14:31:00Z</time>
      </trkpt>
      <trkpt lat="43.47366" lon="6.122">
        <ele>163.1</ele>
        <time>2014-01-12T14:31:09Z</time>
      </trkpt>
      <trkpt lat="43.47359" lon="6.12204">
        <ele>162.9</ele>
        <time>2014-01-12T14:31:16Z</time>
      </trkpt>
      <trkpt lat="43.47357" lon="6.12216">
        <ele>162.7</ele>
        <time>2014-01-12T14:34:15Z</time>
      </trkpt>
      <trkpt lat="43.47357" lon="6.12217">
        <ele>162.7</ele>
        <time>2014-01-12T14:34:16Z</time>
      </trkpt>
      <trkpt lat="43.47365" lon="6.12224">
        <ele>163.1</ele>
        <time>2014-01-12T14:53:55Z</time>
      </trkpt>
      <trkpt lat="43.47358" lon="6.12214">
        <ele>163.2</ele>
        <time>2014-01-12T14:59:43Z</time>
      </trkpt>
      <trkpt lat="43.47359" lon="6.12202">
        <ele>163</ele>
        <time>2014-01-12T15:05:09Z</time>
      </trkpt>
      <trkpt lat="43.47364" lon="6.12213">
        <ele>163.1</ele>
        <time>2014-01-12T15:07:09Z</time>
      </trkpt>
      <trkpt lat="43.47357" lon="6.12203">
        <ele>162.6</ele>
        <time>2014-01-12T15:11:04Z</time>
      </trkpt>
      <trkpt lat="43.47355" lon="6.12209">
        <ele>161.6</ele>
        <time>2014-01-12T15:15:09Z</time>
      </trkpt>
      <trkpt lat="43.47352" lon="6.1221">
        <ele>161.6</ele>
        <time>2014-01-12T15:15:10Z</time>
      </trkpt>
      <trkpt lat="43.47339" lon="6.12211">
        <ele>162.2</ele>
        <time>2014-01-12T15:15:15Z</time>
      </trkpt>
      <trkpt lat="43.47331" lon="6.12212">
        <ele>162.2</ele>
        <time>2014-01-12T15:15:20Z</time>
      </trkpt>
      <trkpt lat="43.47322" lon="6.12214">
        <ele>162.3</ele>
        <time>2014-01-12T15:15:27Z</time>
      </trkpt>
      <trkpt lat="43.47313" lon="6.12214">
        <ele>162.6</ele>
        <time>2014-01-12T15:15:34Z</time>
      </trkpt>
      <trkpt lat="43.47306" lon="6.12215">
        <ele>162.3</ele>
        <time>2014-01-12T15:15:40Z</time>
      </trkpt>
      <trkpt lat="43.47298" lon="6.12218">
        <ele>162.4</ele>
        <time>2014-01-12T15:15:54Z</time>
      </trkpt>
      <trkpt lat="43.47295" lon="6.12229">
        <ele>162.2</ele>
        <time>2014-01-12T15:16:18Z</time>
      </trkpt>
      <trkpt lat="43.47295" lon="6.1223">
        <ele>162.3</ele>
        <time>2014-01-12T15:16:19Z</time>
      </trkpt>
      <trkpt lat="43.4728" lon="6.12231">
        <ele>161.1</ele>
        <time>2014-01-12T15:17:26Z</time>
      </trkpt>
      <trkpt lat="43.47278" lon="6.12232">
        <ele>161</ele>
        <time>2014-01-12T15:17:27Z</time>
      </trkpt>
      <trkpt lat="43.47263" lon="6.12236">
        <ele>160.8</ele>
        <time>2014-01-12T15:17:40Z</time>
      </trkpt>
      <trkpt lat="43.47255" lon="6.12241">
        <ele>160.5</ele>
        <time>2014-01-12T15:17:47Z</time>
      </trkpt>
      <trkpt lat="43.4725" lon="6.12249">
        <ele>160.3</ele>
        <time>2014-01-12T15:17:57Z</time>
      </trkpt>
      <trkpt lat="43.47246" lon="6.12259">
        <ele>160.4</ele>
        <time>2014-01-12T15:18:05Z</time>
      </trkpt>
      <trkpt lat="43.47244" lon="6.1227">
        <ele>160.2</ele>
        <time>2014-01-12T15:18:11Z</time>
      </trkpt>
      <trkpt lat="43.47242" lon="6.12282">
        <ele>159.8</ele>
        <time>2014-01-12T15:18:19Z</time>
      </trkpt>
      <trkpt lat="43.47239" lon="6.12294">
        <ele>159.1</ele>
        <time>2014-01-12T15:18:27Z</time>
      </trkpt>
      <trkpt lat="43.47239" lon="6.12295">
        <ele>159.4</ele>
        <time>2014-01-12T15:18:28Z</time>
      </trkpt>
      <trkpt lat="43.47225" lon="6.12308">
        <ele>159.5</ele>
        <time>2014-01-12T15:18:41Z</time>
      </trkpt>
      <trkpt lat="43.4722" lon="6.12316">
        <ele>158.6</ele>
        <time>2014-01-12T15:18:54Z</time>
      </trkpt>
      <trkpt lat="43.47216" lon="6.12327">
        <ele>158.4</ele>
        <time>2014-01-12T15:19:01Z</time>
      </trkpt>
      <trkpt lat="43.4722" lon="6.12338">
        <ele>158</ele>
        <time>2014-01-12T15:19:25Z</time>
      </trkpt>
    </trkseg>
  </trk>
</gpx>